<?xml version="1.0" encoding="UTF-8" standalone="no" ?>
<gpx xmlns="http://www.topografix.com/GPX/1/1" xmlns:xsi="http://www.w3.org/2001/XMLSchema-instance" xsi:schemaLocation="http://www.topografix.com/GPX/1/1 http://www.topografix.com/GPX/1/1/gpx.xsd" version="1.1" creator="VisuGPX - https://www.visugpx.com">
  <metadata>
    <name>Entre Bois-Cités-Terrils</name>
    <desc><![CDATA[Cheminement au cœur d'un patrimoine minier historique et naturel.]]></desc>
  </metadata>
  <trk>
    <name><![CDATA[JUIL-16-17 15:38:45]]></name>
    <trkseg>
      <trkpt lat="50.48296" lon="3.00279">
        <ele>-32.55</ele>
        <time>2017-07-16T06:53:54Z</time>
      </trkpt>
      <trkpt lat="50.48298" lon="3.00279">
        <ele>-19.57</ele>
        <time>2017-07-16T06:59:16Z</time>
      </trkpt>
      <trkpt lat="50.48303" lon="3.00271">
        <ele>-13.32</ele>
        <time>2017-07-16T07:03:33Z</time>
      </trkpt>
      <trkpt lat="50.48295" lon="3.00266">
        <ele>-12.84</ele>
        <time>2017-07-16T07:03:43Z</time>
      </trkpt>
      <trkpt lat="50.48295" lon="3.00264">
        <ele>-11.88</ele>
        <time>2017-07-16T07:04:00Z</time>
      </trkpt>
      <trkpt lat="50.48293" lon="3.00253">
        <ele>-12.36</ele>
        <time>2017-07-16T07:04:10Z</time>
      </trkpt>
      <trkpt lat="50.48287" lon="3.00244">
        <ele>-11.88</ele>
        <time>2017-07-16T07:04:18Z</time>
      </trkpt>
      <trkpt lat="50.48294" lon="3.00231">
        <ele>-11.88</ele>
        <time>2017-07-16T07:04:28Z</time>
      </trkpt>
      <trkpt lat="50.48299" lon="3.00219">
        <ele>-11.4</ele>
        <time>2017-07-16T07:04:37Z</time>
      </trkpt>
      <trkpt lat="50.48306" lon="3.00206">
        <ele>-10.92</ele>
        <time>2017-07-16T07:04:45Z</time>
      </trkpt>
      <trkpt lat="50.48314" lon="3.00189">
        <ele>-10.92</ele>
        <time>2017-07-16T07:04:54Z</time>
      </trkpt>
      <trkpt lat="50.48321" lon="3.00177">
        <ele>-10.92</ele>
        <time>2017-07-16T07:05:03Z</time>
      </trkpt>
      <trkpt lat="50.48328" lon="3.00165">
        <ele>-10.92</ele>
        <time>2017-07-16T07:05:12Z</time>
      </trkpt>
      <trkpt lat="50.48335" lon="3.0015">
        <ele>-10.44</ele>
        <time>2017-07-16T07:05:22Z</time>
      </trkpt>
      <trkpt lat="50.48342" lon="3.00136">
        <ele>-9.96</ele>
        <time>2017-07-16T07:05:31Z</time>
      </trkpt>
      <trkpt lat="50.48348" lon="3.00121">
        <ele>-9</ele>
        <time>2017-07-16T07:05:40Z</time>
      </trkpt>
      <trkpt lat="50.48354" lon="3.00104">
        <ele>-9</ele>
        <time>2017-07-16T07:05:50Z</time>
      </trkpt>
      <trkpt lat="50.48361" lon="3.00085">
        <ele>-9</ele>
        <time>2017-07-16T07:06:00Z</time>
      </trkpt>
      <trkpt lat="50.48356" lon="3.0007">
        <ele>-9</ele>
        <time>2017-07-16T07:06:08Z</time>
      </trkpt>
      <trkpt lat="50.48351" lon="3.00057">
        <ele>-8.51</ele>
        <time>2017-07-16T07:06:17Z</time>
      </trkpt>
      <trkpt lat="50.48354" lon="3.00044">
        <ele>-8.51</ele>
        <time>2017-07-16T07:06:26Z</time>
      </trkpt>
      <trkpt lat="50.48358" lon="3.00029">
        <ele>-8.51</ele>
        <time>2017-07-16T07:06:38Z</time>
      </trkpt>
      <trkpt lat="50.48363" lon="3.00012">
        <ele>-8.03</ele>
        <time>2017-07-16T07:06:48Z</time>
      </trkpt>
      <trkpt lat="50.48369" lon="2.99995">
        <ele>-7.55</ele>
        <time>2017-07-16T07:06:57Z</time>
      </trkpt>
      <trkpt lat="50.48373" lon="2.99981">
        <ele>-7.55</ele>
        <time>2017-07-16T07:07:06Z</time>
      </trkpt>
      <trkpt lat="50.48377" lon="2.99966">
        <ele>-7.55</ele>
        <time>2017-07-16T07:07:16Z</time>
      </trkpt>
      <trkpt lat="50.48382" lon="2.99951">
        <ele>-7.07</ele>
        <time>2017-07-16T07:07:25Z</time>
      </trkpt>
      <trkpt lat="50.48388" lon="2.99938">
        <ele>-6.59</ele>
        <time>2017-07-16T07:07:34Z</time>
      </trkpt>
      <trkpt lat="50.48396" lon="2.99925">
        <ele>-6.59</ele>
        <time>2017-07-16T07:07:44Z</time>
      </trkpt>
      <trkpt lat="50.48403" lon="2.99911">
        <ele>-6.11</ele>
        <time>2017-07-16T07:07:54Z</time>
      </trkpt>
      <trkpt lat="50.48412" lon="2.99894">
        <ele>-6.11</ele>
        <time>2017-07-16T07:08:12Z</time>
      </trkpt>
      <trkpt lat="50.4842" lon="2.9988">
        <ele>-5.63</ele>
        <time>2017-07-16T07:08:30Z</time>
      </trkpt>
      <trkpt lat="50.48429" lon="2.99872">
        <ele>-5.15</ele>
        <time>2017-07-16T07:08:36Z</time>
      </trkpt>
      <trkpt lat="50.48437" lon="2.99863">
        <ele>-5.15</ele>
        <time>2017-07-16T07:08:44Z</time>
      </trkpt>
      <trkpt lat="50.48444" lon="2.99853">
        <ele>-5.15</ele>
        <time>2017-07-16T07:08:51Z</time>
      </trkpt>
      <trkpt lat="50.48451" lon="2.99841">
        <ele>-4.67</ele>
        <time>2017-07-16T07:09:05Z</time>
      </trkpt>
      <trkpt lat="50.4846" lon="2.99832">
        <ele>-4.19</ele>
        <time>2017-07-16T07:09:12Z</time>
      </trkpt>
      <trkpt lat="50.48467" lon="2.99821">
        <ele>-4.19</ele>
        <time>2017-07-16T07:09:20Z</time>
      </trkpt>
      <trkpt lat="50.48476" lon="2.9981">
        <ele>-4.19</ele>
        <time>2017-07-16T07:09:28Z</time>
      </trkpt>
      <trkpt lat="50.48485" lon="2.99797">
        <ele>-4.19</ele>
        <time>2017-07-16T07:09:37Z</time>
      </trkpt>
      <trkpt lat="50.48494" lon="2.99787">
        <ele>-4.19</ele>
        <time>2017-07-16T07:09:46Z</time>
      </trkpt>
      <trkpt lat="50.48502" lon="2.99773">
        <ele>-4.19</ele>
        <time>2017-07-16T07:09:54Z</time>
      </trkpt>
      <trkpt lat="50.48508" lon="2.99756">
        <ele>-4.67</ele>
        <time>2017-07-16T07:10:03Z</time>
      </trkpt>
      <trkpt lat="50.48517" lon="2.99748">
        <ele>-4.19</ele>
        <time>2017-07-16T07:10:12Z</time>
      </trkpt>
      <trkpt lat="50.48527" lon="2.99737">
        <ele>-3.71</ele>
        <time>2017-07-16T07:10:20Z</time>
      </trkpt>
      <trkpt lat="50.48535" lon="2.99723">
        <ele>-4.19</ele>
        <time>2017-07-16T07:10:28Z</time>
      </trkpt>
      <trkpt lat="50.48543" lon="2.99712">
        <ele>-3.71</ele>
        <time>2017-07-16T07:10:38Z</time>
      </trkpt>
      <trkpt lat="50.48542" lon="2.997">
        <ele>-3.23</ele>
        <time>2017-07-16T07:10:55Z</time>
      </trkpt>
      <trkpt lat="50.4854" lon="2.99688">
        <ele>-3.71</ele>
        <time>2017-07-16T07:11:12Z</time>
      </trkpt>
      <trkpt lat="50.48537" lon="2.99671">
        <ele>-2.75</ele>
        <time>2017-07-16T07:11:21Z</time>
      </trkpt>
      <trkpt lat="50.48532" lon="2.99656">
        <ele>-3.23</ele>
        <time>2017-07-16T07:11:29Z</time>
      </trkpt>
      <trkpt lat="50.48528" lon="2.99638">
        <ele>-3.23</ele>
        <time>2017-07-16T07:11:38Z</time>
      </trkpt>
      <trkpt lat="50.48525" lon="2.99621">
        <ele>-2.75</ele>
        <time>2017-07-16T07:11:47Z</time>
      </trkpt>
      <trkpt lat="50.48522" lon="2.99606">
        <ele>-3.23</ele>
        <time>2017-07-16T07:11:55Z</time>
      </trkpt>
      <trkpt lat="50.48523" lon="2.99589">
        <ele>-3.23</ele>
        <time>2017-07-16T07:12:04Z</time>
      </trkpt>
      <trkpt lat="50.48525" lon="2.99575">
        <ele>-3.23</ele>
        <time>2017-07-16T07:12:13Z</time>
      </trkpt>
      <trkpt lat="50.48523" lon="2.9956">
        <ele>-2.75</ele>
        <time>2017-07-16T07:12:23Z</time>
      </trkpt>
      <trkpt lat="50.48521" lon="2.99543">
        <ele>-2.75</ele>
        <time>2017-07-16T07:12:31Z</time>
      </trkpt>
      <trkpt lat="50.48518" lon="2.99527">
        <ele>-2.27</ele>
        <time>2017-07-16T07:12:39Z</time>
      </trkpt>
      <trkpt lat="50.48516" lon="2.99511">
        <ele>-2.27</ele>
        <time>2017-07-16T07:12:47Z</time>
      </trkpt>
      <trkpt lat="50.48513" lon="2.99495">
        <ele>-2.75</ele>
        <time>2017-07-16T07:12:55Z</time>
      </trkpt>
      <trkpt lat="50.48513" lon="2.99479">
        <ele>-2.27</ele>
        <time>2017-07-16T07:13:03Z</time>
      </trkpt>
      <trkpt lat="50.48515" lon="2.99464">
        <ele>-2.27</ele>
        <time>2017-07-16T07:13:10Z</time>
      </trkpt>
      <trkpt lat="50.48516" lon="2.99448">
        <ele>-2.27</ele>
        <time>2017-07-16T07:13:18Z</time>
      </trkpt>
      <trkpt lat="50.4851" lon="2.99436">
        <ele>-2.27</ele>
        <time>2017-07-16T07:13:28Z</time>
      </trkpt>
      <trkpt lat="50.48501" lon="2.99426">
        <ele>-2.27</ele>
        <time>2017-07-16T07:13:37Z</time>
      </trkpt>
      <trkpt lat="50.48491" lon="2.99417">
        <ele>-2.27</ele>
        <time>2017-07-16T07:13:46Z</time>
      </trkpt>
      <trkpt lat="50.48483" lon="2.99405">
        <ele>-2.27</ele>
        <time>2017-07-16T07:13:55Z</time>
      </trkpt>
      <trkpt lat="50.48475" lon="2.99394">
        <ele>-2.75</ele>
        <time>2017-07-16T07:14:04Z</time>
      </trkpt>
      <trkpt lat="50.48466" lon="2.99382">
        <ele>-2.27</ele>
        <time>2017-07-16T07:14:13Z</time>
      </trkpt>
      <trkpt lat="50.48457" lon="2.99372">
        <ele>-2.27</ele>
        <time>2017-07-16T07:14:21Z</time>
      </trkpt>
      <trkpt lat="50.48448" lon="2.99362">
        <ele>-2.27</ele>
        <time>2017-07-16T07:14:29Z</time>
      </trkpt>
      <trkpt lat="50.48439" lon="2.99352">
        <ele>-2.75</ele>
        <time>2017-07-16T07:14:38Z</time>
      </trkpt>
      <trkpt lat="50.4843" lon="2.99343">
        <ele>-2.27</ele>
        <time>2017-07-16T07:14:46Z</time>
      </trkpt>
      <trkpt lat="50.48421" lon="2.99331">
        <ele>-1.79</ele>
        <time>2017-07-16T07:14:55Z</time>
      </trkpt>
      <trkpt lat="50.48413" lon="2.99319">
        <ele>-2.27</ele>
        <time>2017-07-16T07:15:04Z</time>
      </trkpt>
      <trkpt lat="50.48406" lon="2.99306">
        <ele>-2.27</ele>
        <time>2017-07-16T07:15:14Z</time>
      </trkpt>
      <trkpt lat="50.48403" lon="2.99287">
        <ele>-2.75</ele>
        <time>2017-07-16T07:15:24Z</time>
      </trkpt>
      <trkpt lat="50.48409" lon="2.99265">
        <ele>-2.75</ele>
        <time>2017-07-16T07:15:39Z</time>
      </trkpt>
      <trkpt lat="50.48418" lon="2.99249">
        <ele>-2.75</ele>
        <time>2017-07-16T07:15:48Z</time>
      </trkpt>
      <trkpt lat="50.48425" lon="2.99235">
        <ele>-2.27</ele>
        <time>2017-07-16T07:15:56Z</time>
      </trkpt>
      <trkpt lat="50.48431" lon="2.99219">
        <ele>-1.79</ele>
        <time>2017-07-16T07:16:08Z</time>
      </trkpt>
      <trkpt lat="50.48438" lon="2.99204">
        <ele>-1.79</ele>
        <time>2017-07-16T07:16:17Z</time>
      </trkpt>
      <trkpt lat="50.48446" lon="2.99193">
        <ele>-1.79</ele>
        <time>2017-07-16T07:16:25Z</time>
      </trkpt>
      <trkpt lat="50.48452" lon="2.99176">
        <ele>-1.79</ele>
        <time>2017-07-16T07:16:36Z</time>
      </trkpt>
      <trkpt lat="50.4846" lon="2.99161">
        <ele>-1.79</ele>
        <time>2017-07-16T07:16:46Z</time>
      </trkpt>
      <trkpt lat="50.48467" lon="2.99147">
        <ele>-1.79</ele>
        <time>2017-07-16T07:16:56Z</time>
      </trkpt>
      <trkpt lat="50.48475" lon="2.99131">
        <ele>-1.79</ele>
        <time>2017-07-16T07:17:05Z</time>
      </trkpt>
      <trkpt lat="50.48483" lon="2.99116">
        <ele>-2.27</ele>
        <time>2017-07-16T07:17:15Z</time>
      </trkpt>
      <trkpt lat="50.4849" lon="2.99102">
        <ele>-1.79</ele>
        <time>2017-07-16T07:17:24Z</time>
      </trkpt>
      <trkpt lat="50.48499" lon="2.99089">
        <ele>-1.79</ele>
        <time>2017-07-16T07:17:34Z</time>
      </trkpt>
      <trkpt lat="50.48508" lon="2.99075">
        <ele>-1.79</ele>
        <time>2017-07-16T07:17:43Z</time>
      </trkpt>
      <trkpt lat="50.48514" lon="2.99061">
        <ele>-1.79</ele>
        <time>2017-07-16T07:17:53Z</time>
      </trkpt>
      <trkpt lat="50.4852" lon="2.99043">
        <ele>-1.79</ele>
        <time>2017-07-16T07:18:05Z</time>
      </trkpt>
      <trkpt lat="50.48528" lon="2.99026">
        <ele>-1.3</ele>
        <time>2017-07-16T07:18:16Z</time>
      </trkpt>
      <trkpt lat="50.48536" lon="2.99011">
        <ele>-1.3</ele>
        <time>2017-07-16T07:18:25Z</time>
      </trkpt>
      <trkpt lat="50.48543" lon="2.98998">
        <ele>-1.79</ele>
        <time>2017-07-16T07:18:33Z</time>
      </trkpt>
      <trkpt lat="50.4855" lon="2.98984">
        <ele>-1.79</ele>
        <time>2017-07-16T07:18:43Z</time>
      </trkpt>
      <trkpt lat="50.48559" lon="2.98972">
        <ele>-0.82</ele>
        <time>2017-07-16T07:18:52Z</time>
      </trkpt>
      <trkpt lat="50.48563" lon="2.98951">
        <ele>-1.3</ele>
        <time>2017-07-16T07:19:05Z</time>
      </trkpt>
      <trkpt lat="50.48558" lon="2.98933">
        <ele>-1.3</ele>
        <time>2017-07-16T07:19:18Z</time>
      </trkpt>
      <trkpt lat="50.48548" lon="2.98922">
        <ele>-0.82</ele>
        <time>2017-07-16T07:19:28Z</time>
      </trkpt>
      <trkpt lat="50.48539" lon="2.98909">
        <ele>-0.82</ele>
        <time>2017-07-16T07:19:39Z</time>
      </trkpt>
      <trkpt lat="50.4853" lon="2.98899">
        <ele>-1.79</ele>
        <time>2017-07-16T07:19:47Z</time>
      </trkpt>
      <trkpt lat="50.48522" lon="2.98888">
        <ele>-1.3</ele>
        <time>2017-07-16T07:19:56Z</time>
      </trkpt>
      <trkpt lat="50.4851" lon="2.98873">
        <ele>-1.79</ele>
        <time>2017-07-16T07:20:07Z</time>
      </trkpt>
      <trkpt lat="50.48501" lon="2.98859">
        <ele>-1.3</ele>
        <time>2017-07-16T07:20:19Z</time>
      </trkpt>
      <trkpt lat="50.48491" lon="2.98845">
        <ele>-1.79</ele>
        <time>2017-07-16T07:20:32Z</time>
      </trkpt>
      <trkpt lat="50.48479" lon="2.98831">
        <ele>-2.27</ele>
        <time>2017-07-16T07:20:42Z</time>
      </trkpt>
      <trkpt lat="50.48466" lon="2.98821">
        <ele>-1.79</ele>
        <time>2017-07-16T07:20:51Z</time>
      </trkpt>
      <trkpt lat="50.48455" lon="2.98807">
        <ele>-2.27</ele>
        <time>2017-07-16T07:21:01Z</time>
      </trkpt>
      <trkpt lat="50.48446" lon="2.98794">
        <ele>-1.79</ele>
        <time>2017-07-16T07:21:12Z</time>
      </trkpt>
      <trkpt lat="50.48437" lon="2.98783">
        <ele>-2.27</ele>
        <time>2017-07-16T07:21:20Z</time>
      </trkpt>
      <trkpt lat="50.48429" lon="2.98772">
        <ele>-2.27</ele>
        <time>2017-07-16T07:21:28Z</time>
      </trkpt>
      <trkpt lat="50.48422" lon="2.98759">
        <ele>-1.79</ele>
        <time>2017-07-16T07:21:37Z</time>
      </trkpt>
      <trkpt lat="50.48412" lon="2.98747">
        <ele>-2.27</ele>
        <time>2017-07-16T07:21:47Z</time>
      </trkpt>
      <trkpt lat="50.48404" lon="2.98736">
        <ele>-1.79</ele>
        <time>2017-07-16T07:21:57Z</time>
      </trkpt>
      <trkpt lat="50.48397" lon="2.98725">
        <ele>-2.27</ele>
        <time>2017-07-16T07:22:06Z</time>
      </trkpt>
      <trkpt lat="50.48388" lon="2.98713">
        <ele>-2.75</ele>
        <time>2017-07-16T07:22:15Z</time>
      </trkpt>
      <trkpt lat="50.48379" lon="2.98701">
        <ele>-2.75</ele>
        <time>2017-07-16T07:22:25Z</time>
      </trkpt>
      <trkpt lat="50.4837" lon="2.98688">
        <ele>-2.75</ele>
        <time>2017-07-16T07:22:35Z</time>
      </trkpt>
      <trkpt lat="50.48362" lon="2.98677">
        <ele>-2.27</ele>
        <time>2017-07-16T07:22:45Z</time>
      </trkpt>
      <trkpt lat="50.48353" lon="2.98665">
        <ele>-2.75</ele>
        <time>2017-07-16T07:22:54Z</time>
      </trkpt>
      <trkpt lat="50.4834" lon="2.98652">
        <ele>-2.75</ele>
        <time>2017-07-16T07:23:06Z</time>
      </trkpt>
      <trkpt lat="50.48329" lon="2.98654">
        <ele>-2.27</ele>
        <time>2017-07-16T07:23:20Z</time>
      </trkpt>
      <trkpt lat="50.48328" lon="2.98641">
        <ele>-2.75</ele>
        <time>2017-07-16T07:23:31Z</time>
      </trkpt>
      <trkpt lat="50.48325" lon="2.98647">
        <ele>-1.79</ele>
        <time>2017-07-16T07:24:52Z</time>
      </trkpt>
      <trkpt lat="50.48331" lon="2.98655">
        <ele>-1.3</ele>
        <time>2017-07-16T07:25:05Z</time>
      </trkpt>
      <trkpt lat="50.48339" lon="2.98651">
        <ele>-0.82</ele>
        <time>2017-07-16T07:25:20Z</time>
      </trkpt>
      <trkpt lat="50.48347" lon="2.98658">
        <ele>-0.82</ele>
        <time>2017-07-16T07:25:32Z</time>
      </trkpt>
      <trkpt lat="50.48355" lon="2.98667">
        <ele>-0.82</ele>
        <time>2017-07-16T07:25:44Z</time>
      </trkpt>
      <trkpt lat="50.48358" lon="2.98681">
        <ele>0.14</ele>
        <time>2017-07-16T07:25:53Z</time>
      </trkpt>
      <trkpt lat="50.48349" lon="2.98689">
        <ele>-1.3</ele>
        <time>2017-07-16T07:26:03Z</time>
      </trkpt>
      <trkpt lat="50.48337" lon="2.98698">
        <ele>-0.34</ele>
        <time>2017-07-16T07:26:14Z</time>
      </trkpt>
      <trkpt lat="50.48321" lon="2.98704">
        <ele>-0.82</ele>
        <time>2017-07-16T07:26:25Z</time>
      </trkpt>
      <trkpt lat="50.48312" lon="2.98715">
        <ele>-0.34</ele>
        <time>2017-07-16T07:26:37Z</time>
      </trkpt>
      <trkpt lat="50.48301" lon="2.98725">
        <ele>0.14</ele>
        <time>2017-07-16T07:26:48Z</time>
      </trkpt>
      <trkpt lat="50.48289" lon="2.98728">
        <ele>-0.34</ele>
        <time>2017-07-16T07:26:57Z</time>
      </trkpt>
      <trkpt lat="50.48281" lon="2.98738">
        <ele>0.14</ele>
        <time>2017-07-16T07:27:05Z</time>
      </trkpt>
      <trkpt lat="50.48271" lon="2.98746">
        <ele>0.14</ele>
        <time>2017-07-16T07:27:14Z</time>
      </trkpt>
      <trkpt lat="50.48261" lon="2.98751">
        <ele>0.14</ele>
        <time>2017-07-16T07:27:23Z</time>
      </trkpt>
      <trkpt lat="50.48252" lon="2.98754">
        <ele>0.62</ele>
        <time>2017-07-16T07:27:32Z</time>
      </trkpt>
      <trkpt lat="50.48246" lon="2.98769">
        <ele>1.1</ele>
        <time>2017-07-16T07:27:42Z</time>
      </trkpt>
      <trkpt lat="50.4824" lon="2.98784">
        <ele>1.1</ele>
        <time>2017-07-16T07:27:55Z</time>
      </trkpt>
      <trkpt lat="50.48231" lon="2.98787">
        <ele>1.1</ele>
        <time>2017-07-16T07:28:03Z</time>
      </trkpt>
      <trkpt lat="50.48235" lon="2.98789">
        <ele>0.62</ele>
        <time>2017-07-16T07:28:17Z</time>
      </trkpt>
      <trkpt lat="50.48243" lon="2.98792">
        <ele>1.1</ele>
        <time>2017-07-16T07:28:25Z</time>
      </trkpt>
      <trkpt lat="50.48248" lon="2.98807">
        <ele>1.1</ele>
        <time>2017-07-16T07:28:35Z</time>
      </trkpt>
      <trkpt lat="50.48256" lon="2.98814">
        <ele>1.58</ele>
        <time>2017-07-16T07:28:45Z</time>
      </trkpt>
      <trkpt lat="50.48266" lon="2.98824">
        <ele>1.1</ele>
        <time>2017-07-16T07:28:53Z</time>
      </trkpt>
      <trkpt lat="50.48269" lon="2.9884">
        <ele>1.58</ele>
        <time>2017-07-16T07:29:02Z</time>
      </trkpt>
      <trkpt lat="50.48271" lon="2.98859">
        <ele>1.58</ele>
        <time>2017-07-16T07:29:12Z</time>
      </trkpt>
      <trkpt lat="50.48278" lon="2.98874">
        <ele>1.58</ele>
        <time>2017-07-16T07:29:22Z</time>
      </trkpt>
      <trkpt lat="50.4828" lon="2.98893">
        <ele>2.06</ele>
        <time>2017-07-16T07:29:33Z</time>
      </trkpt>
      <trkpt lat="50.48281" lon="2.98911">
        <ele>2.54</ele>
        <time>2017-07-16T07:29:43Z</time>
      </trkpt>
      <trkpt lat="50.48286" lon="2.98927">
        <ele>2.54</ele>
        <time>2017-07-16T07:29:51Z</time>
      </trkpt>
      <trkpt lat="50.48289" lon="2.98942">
        <ele>3.02</ele>
        <time>2017-07-16T07:30:00Z</time>
      </trkpt>
      <trkpt lat="50.48283" lon="2.98958">
        <ele>3.02</ele>
        <time>2017-07-16T07:30:11Z</time>
      </trkpt>
      <trkpt lat="50.48285" lon="2.98989">
        <ele>3.02</ele>
        <time>2017-07-16T07:30:27Z</time>
      </trkpt>
      <trkpt lat="50.48287" lon="2.99005">
        <ele>3.5</ele>
        <time>2017-07-16T07:30:49Z</time>
      </trkpt>
      <trkpt lat="50.48292" lon="2.99021">
        <ele>3.98</ele>
        <time>2017-07-16T07:30:58Z</time>
      </trkpt>
      <trkpt lat="50.48299" lon="2.99037">
        <ele>4.94</ele>
        <time>2017-07-16T07:31:12Z</time>
      </trkpt>
      <trkpt lat="50.48305" lon="2.99052">
        <ele>4.94</ele>
        <time>2017-07-16T07:31:22Z</time>
      </trkpt>
      <trkpt lat="50.48313" lon="2.99063">
        <ele>4.94</ele>
        <time>2017-07-16T07:31:29Z</time>
      </trkpt>
      <trkpt lat="50.48321" lon="2.99077">
        <ele>5.42</ele>
        <time>2017-07-16T07:31:38Z</time>
      </trkpt>
      <trkpt lat="50.4833" lon="2.99089">
        <ele>5.42</ele>
        <time>2017-07-16T07:31:48Z</time>
      </trkpt>
      <trkpt lat="50.48335" lon="2.99097">
        <ele>6.39</ele>
        <time>2017-07-16T07:31:57Z</time>
      </trkpt>
      <trkpt lat="50.48341" lon="2.991">
        <ele>5.91</ele>
        <time>2017-07-16T07:32:12Z</time>
      </trkpt>
      <trkpt lat="50.48342" lon="2.99114">
        <ele>6.87</ele>
        <time>2017-07-16T07:33:10Z</time>
      </trkpt>
      <trkpt lat="50.48356" lon="2.9913">
        <ele>7.83</ele>
        <time>2017-07-16T07:33:42Z</time>
      </trkpt>
      <trkpt lat="50.48368" lon="2.99142">
        <ele>7.83</ele>
        <time>2017-07-16T07:33:53Z</time>
      </trkpt>
      <trkpt lat="50.48378" lon="2.99152">
        <ele>8.31</ele>
        <time>2017-07-16T07:34:03Z</time>
      </trkpt>
      <trkpt lat="50.48384" lon="2.99168">
        <ele>8.79</ele>
        <time>2017-07-16T07:34:16Z</time>
      </trkpt>
      <trkpt lat="50.48388" lon="2.99177">
        <ele>8.79</ele>
        <time>2017-07-16T07:34:53Z</time>
      </trkpt>
      <trkpt lat="50.48396" lon="2.99192">
        <ele>9.75</ele>
        <time>2017-07-16T07:35:07Z</time>
      </trkpt>
      <trkpt lat="50.484" lon="2.99202">
        <ele>9.75</ele>
        <time>2017-07-16T07:35:46Z</time>
      </trkpt>
      <trkpt lat="50.48411" lon="2.99214">
        <ele>10.23</ele>
        <time>2017-07-16T07:35:58Z</time>
      </trkpt>
      <trkpt lat="50.4842" lon="2.99224">
        <ele>9.75</ele>
        <time>2017-07-16T07:36:08Z</time>
      </trkpt>
      <trkpt lat="50.48418" lon="2.99239">
        <ele>10.71</ele>
        <time>2017-07-16T07:36:20Z</time>
      </trkpt>
      <trkpt lat="50.48412" lon="2.99254">
        <ele>10.71</ele>
        <time>2017-07-16T07:36:30Z</time>
      </trkpt>
      <trkpt lat="50.48405" lon="2.99268">
        <ele>10.71</ele>
        <time>2017-07-16T07:36:40Z</time>
      </trkpt>
      <trkpt lat="50.48398" lon="2.99286">
        <ele>11.19</ele>
        <time>2017-07-16T07:36:50Z</time>
      </trkpt>
      <trkpt lat="50.48388" lon="2.99303">
        <ele>10.71</ele>
        <time>2017-07-16T07:37:01Z</time>
      </trkpt>
      <trkpt lat="50.4838" lon="2.99317">
        <ele>11.67</ele>
        <time>2017-07-16T07:37:13Z</time>
      </trkpt>
      <trkpt lat="50.48371" lon="2.99332">
        <ele>11.67</ele>
        <time>2017-07-16T07:37:22Z</time>
      </trkpt>
      <trkpt lat="50.48364" lon="2.99347">
        <ele>11.19</ele>
        <time>2017-07-16T07:37:31Z</time>
      </trkpt>
      <trkpt lat="50.48358" lon="2.9936">
        <ele>11.67</ele>
        <time>2017-07-16T07:37:41Z</time>
      </trkpt>
      <trkpt lat="50.4835" lon="2.9937">
        <ele>12.15</ele>
        <time>2017-07-16T07:37:50Z</time>
      </trkpt>
      <trkpt lat="50.48342" lon="2.99381">
        <ele>12.63</ele>
        <time>2017-07-16T07:37:59Z</time>
      </trkpt>
      <trkpt lat="50.48336" lon="2.99394">
        <ele>12.63</ele>
        <time>2017-07-16T07:38:08Z</time>
      </trkpt>
      <trkpt lat="50.48329" lon="2.99406">
        <ele>13.12</ele>
        <time>2017-07-16T07:38:17Z</time>
      </trkpt>
      <trkpt lat="50.48321" lon="2.99418">
        <ele>13.12</ele>
        <time>2017-07-16T07:38:27Z</time>
      </trkpt>
      <trkpt lat="50.48312" lon="2.99427">
        <ele>12.15</ele>
        <time>2017-07-16T07:38:39Z</time>
      </trkpt>
      <trkpt lat="50.48302" lon="2.99432">
        <ele>11.67</ele>
        <time>2017-07-16T07:38:47Z</time>
      </trkpt>
      <trkpt lat="50.48291" lon="2.99444">
        <ele>13.6</ele>
        <time>2017-07-16T07:38:56Z</time>
      </trkpt>
      <trkpt lat="50.48282" lon="2.99455">
        <ele>14.56</ele>
        <time>2017-07-16T07:39:04Z</time>
      </trkpt>
      <trkpt lat="50.48272" lon="2.99462">
        <ele>14.08</ele>
        <time>2017-07-16T07:39:13Z</time>
      </trkpt>
      <trkpt lat="50.48263" lon="2.99475">
        <ele>14.56</ele>
        <time>2017-07-16T07:39:23Z</time>
      </trkpt>
      <trkpt lat="50.48257" lon="2.99489">
        <ele>15.04</ele>
        <time>2017-07-16T07:39:33Z</time>
      </trkpt>
      <trkpt lat="50.48251" lon="2.99506">
        <ele>15.52</ele>
        <time>2017-07-16T07:39:46Z</time>
      </trkpt>
      <trkpt lat="50.48243" lon="2.9952">
        <ele>15.04</ele>
        <time>2017-07-16T07:39:56Z</time>
      </trkpt>
      <trkpt lat="50.48237" lon="2.99532">
        <ele>15.52</ele>
        <time>2017-07-16T07:40:08Z</time>
      </trkpt>
      <trkpt lat="50.48227" lon="2.99542">
        <ele>15.04</ele>
        <time>2017-07-16T07:40:16Z</time>
      </trkpt>
      <trkpt lat="50.48216" lon="2.99549">
        <ele>15.04</ele>
        <time>2017-07-16T07:40:25Z</time>
      </trkpt>
      <trkpt lat="50.48206" lon="2.99551">
        <ele>15.52</ele>
        <time>2017-07-16T07:40:33Z</time>
      </trkpt>
      <trkpt lat="50.48196" lon="2.99555">
        <ele>15.52</ele>
        <time>2017-07-16T07:40:40Z</time>
      </trkpt>
      <trkpt lat="50.48186" lon="2.99558">
        <ele>15.52</ele>
        <time>2017-07-16T07:40:47Z</time>
      </trkpt>
      <trkpt lat="50.48177" lon="2.99562">
        <ele>15.52</ele>
        <time>2017-07-16T07:40:55Z</time>
      </trkpt>
      <trkpt lat="50.48167" lon="2.99564">
        <ele>15.52</ele>
        <time>2017-07-16T07:41:03Z</time>
      </trkpt>
      <trkpt lat="50.48156" lon="2.99566">
        <ele>15.52</ele>
        <time>2017-07-16T07:41:11Z</time>
      </trkpt>
      <trkpt lat="50.48146" lon="2.99565">
        <ele>15.52</ele>
        <time>2017-07-16T07:41:19Z</time>
      </trkpt>
      <trkpt lat="50.48136" lon="2.99567">
        <ele>15.52</ele>
        <time>2017-07-16T07:41:27Z</time>
      </trkpt>
      <trkpt lat="50.48125" lon="2.99572">
        <ele>15.52</ele>
        <time>2017-07-16T07:41:36Z</time>
      </trkpt>
      <trkpt lat="50.48113" lon="2.99578">
        <ele>15.52</ele>
        <time>2017-07-16T07:41:45Z</time>
      </trkpt>
      <trkpt lat="50.48103" lon="2.99586">
        <ele>15.52</ele>
        <time>2017-07-16T07:41:53Z</time>
      </trkpt>
      <trkpt lat="50.48094" lon="2.99593">
        <ele>15.52</ele>
        <time>2017-07-16T07:42:01Z</time>
      </trkpt>
      <trkpt lat="50.48084" lon="2.99596">
        <ele>16</ele>
        <time>2017-07-16T07:42:10Z</time>
      </trkpt>
      <trkpt lat="50.48075" lon="2.99598">
        <ele>15.52</ele>
        <time>2017-07-16T07:42:18Z</time>
      </trkpt>
      <trkpt lat="50.48066" lon="2.996">
        <ele>15.52</ele>
        <time>2017-07-16T07:42:26Z</time>
      </trkpt>
      <trkpt lat="50.48056" lon="2.99608">
        <ele>15.52</ele>
        <time>2017-07-16T07:42:35Z</time>
      </trkpt>
      <trkpt lat="50.48045" lon="2.99614">
        <ele>15.04</ele>
        <time>2017-07-16T07:42:43Z</time>
      </trkpt>
      <trkpt lat="50.48036" lon="2.99617">
        <ele>15.04</ele>
        <time>2017-07-16T07:42:52Z</time>
      </trkpt>
      <trkpt lat="50.48026" lon="2.99621">
        <ele>15.04</ele>
        <time>2017-07-16T07:43:01Z</time>
      </trkpt>
      <trkpt lat="50.48016" lon="2.99633">
        <ele>14.56</ele>
        <time>2017-07-16T07:43:10Z</time>
      </trkpt>
      <trkpt lat="50.4801" lon="2.99645">
        <ele>15.04</ele>
        <time>2017-07-16T07:43:19Z</time>
      </trkpt>
      <trkpt lat="50.48" lon="2.99648">
        <ele>14.56</ele>
        <time>2017-07-16T07:43:29Z</time>
      </trkpt>
      <trkpt lat="50.4799" lon="2.99656">
        <ele>15.04</ele>
        <time>2017-07-16T07:43:38Z</time>
      </trkpt>
      <trkpt lat="50.47982" lon="2.99664">
        <ele>15.04</ele>
        <time>2017-07-16T07:43:45Z</time>
      </trkpt>
      <trkpt lat="50.47974" lon="2.99671">
        <ele>14.56</ele>
        <time>2017-07-16T07:43:53Z</time>
      </trkpt>
      <trkpt lat="50.47964" lon="2.99671">
        <ele>14.56</ele>
        <time>2017-07-16T07:44:01Z</time>
      </trkpt>
      <trkpt lat="50.47953" lon="2.99671">
        <ele>14.08</ele>
        <time>2017-07-16T07:44:10Z</time>
      </trkpt>
      <trkpt lat="50.47945" lon="2.99662">
        <ele>14.56</ele>
        <time>2017-07-16T07:44:19Z</time>
      </trkpt>
      <trkpt lat="50.47946" lon="2.99647">
        <ele>15.04</ele>
        <time>2017-07-16T07:44:55Z</time>
      </trkpt>
      <trkpt lat="50.4795" lon="2.99636">
        <ele>15.52</ele>
        <time>2017-07-16T07:45:21Z</time>
      </trkpt>
      <trkpt lat="50.47957" lon="2.99625">
        <ele>16</ele>
        <time>2017-07-16T07:45:35Z</time>
      </trkpt>
      <trkpt lat="50.47963" lon="2.99616">
        <ele>16</ele>
        <time>2017-07-16T07:45:47Z</time>
      </trkpt>
      <trkpt lat="50.47971" lon="2.99608">
        <ele>16.96</ele>
        <time>2017-07-16T07:45:58Z</time>
      </trkpt>
      <trkpt lat="50.47975" lon="2.99594">
        <ele>17.44</ele>
        <time>2017-07-16T07:46:06Z</time>
      </trkpt>
      <trkpt lat="50.47981" lon="2.99582">
        <ele>17.44</ele>
        <time>2017-07-16T07:46:13Z</time>
      </trkpt>
      <trkpt lat="50.47986" lon="2.9957">
        <ele>18.4</ele>
        <time>2017-07-16T07:46:20Z</time>
      </trkpt>
      <trkpt lat="50.47993" lon="2.99559">
        <ele>18.88</ele>
        <time>2017-07-16T07:46:28Z</time>
      </trkpt>
      <trkpt lat="50.47999" lon="2.9955">
        <ele>18.88</ele>
        <time>2017-07-16T07:46:35Z</time>
      </trkpt>
      <trkpt lat="50.48005" lon="2.99538">
        <ele>19.36</ele>
        <time>2017-07-16T07:46:42Z</time>
      </trkpt>
      <trkpt lat="50.4801" lon="2.99527">
        <ele>19.84</ele>
        <time>2017-07-16T07:46:48Z</time>
      </trkpt>
      <trkpt lat="50.48016" lon="2.99515">
        <ele>21.29</ele>
        <time>2017-07-16T07:46:55Z</time>
      </trkpt>
      <trkpt lat="50.48013" lon="2.99509">
        <ele>20.81</ele>
        <time>2017-07-16T07:47:05Z</time>
      </trkpt>
      <trkpt lat="50.48006" lon="2.99521">
        <ele>21.77</ele>
        <time>2017-07-16T07:47:23Z</time>
      </trkpt>
      <trkpt lat="50.48" lon="2.99533">
        <ele>21.77</ele>
        <time>2017-07-16T07:47:41Z</time>
      </trkpt>
      <trkpt lat="50.47992" lon="2.99544">
        <ele>22.25</ele>
        <time>2017-07-16T07:47:55Z</time>
      </trkpt>
      <trkpt lat="50.47983" lon="2.99556">
        <ele>22.73</ele>
        <time>2017-07-16T07:48:02Z</time>
      </trkpt>
      <trkpt lat="50.47976" lon="2.99567">
        <ele>23.69</ele>
        <time>2017-07-16T07:48:10Z</time>
      </trkpt>
      <trkpt lat="50.47967" lon="2.99578">
        <ele>23.69</ele>
        <time>2017-07-16T07:48:19Z</time>
      </trkpt>
      <trkpt lat="50.4796" lon="2.99586">
        <ele>23.69</ele>
        <time>2017-07-16T07:48:28Z</time>
      </trkpt>
      <trkpt lat="50.47953" lon="2.99599">
        <ele>25.13</ele>
        <time>2017-07-16T07:48:38Z</time>
      </trkpt>
      <trkpt lat="50.47945" lon="2.99606">
        <ele>25.13</ele>
        <time>2017-07-16T07:48:45Z</time>
      </trkpt>
      <trkpt lat="50.47936" lon="2.99612">
        <ele>26.09</ele>
        <time>2017-07-16T07:48:53Z</time>
      </trkpt>
      <trkpt lat="50.47927" lon="2.99617">
        <ele>26.09</ele>
        <time>2017-07-16T07:49:01Z</time>
      </trkpt>
      <trkpt lat="50.47919" lon="2.99622">
        <ele>26.57</ele>
        <time>2017-07-16T07:49:09Z</time>
      </trkpt>
      <trkpt lat="50.47911" lon="2.99626">
        <ele>26.57</ele>
        <time>2017-07-16T07:49:17Z</time>
      </trkpt>
      <trkpt lat="50.47902" lon="2.99631">
        <ele>27.05</ele>
        <time>2017-07-16T07:49:27Z</time>
      </trkpt>
      <trkpt lat="50.47894" lon="2.99637">
        <ele>28.02</ele>
        <time>2017-07-16T07:49:35Z</time>
      </trkpt>
      <trkpt lat="50.47885" lon="2.99643">
        <ele>28.02</ele>
        <time>2017-07-16T07:49:43Z</time>
      </trkpt>
      <trkpt lat="50.47875" lon="2.99645">
        <ele>28.98</ele>
        <time>2017-07-16T07:49:52Z</time>
      </trkpt>
      <trkpt lat="50.47866" lon="2.99649">
        <ele>28.98</ele>
        <time>2017-07-16T07:50:00Z</time>
      </trkpt>
      <trkpt lat="50.47858" lon="2.99653">
        <ele>29.46</ele>
        <time>2017-07-16T07:50:07Z</time>
      </trkpt>
      <trkpt lat="50.47848" lon="2.99654">
        <ele>30.42</ele>
        <time>2017-07-16T07:50:15Z</time>
      </trkpt>
      <trkpt lat="50.47838" lon="2.99655">
        <ele>30.9</ele>
        <time>2017-07-16T07:50:24Z</time>
      </trkpt>
      <trkpt lat="50.47828" lon="2.99655">
        <ele>31.38</ele>
        <time>2017-07-16T07:50:33Z</time>
      </trkpt>
      <trkpt lat="50.47819" lon="2.99653">
        <ele>31.38</ele>
        <time>2017-07-16T07:50:41Z</time>
      </trkpt>
      <trkpt lat="50.47822" lon="2.99642">
        <ele>32.34</ele>
        <time>2017-07-16T07:50:50Z</time>
      </trkpt>
      <trkpt lat="50.47832" lon="2.99641">
        <ele>32.82</ele>
        <time>2017-07-16T07:50:58Z</time>
      </trkpt>
      <trkpt lat="50.47843" lon="2.99637">
        <ele>33.3</ele>
        <time>2017-07-16T07:51:07Z</time>
      </trkpt>
      <trkpt lat="50.47852" lon="2.99631">
        <ele>34.26</ele>
        <time>2017-07-16T07:51:25Z</time>
      </trkpt>
      <trkpt lat="50.47862" lon="2.99624">
        <ele>34.74</ele>
        <time>2017-07-16T07:51:34Z</time>
      </trkpt>
      <trkpt lat="50.47872" lon="2.99619">
        <ele>34.74</ele>
        <time>2017-07-16T07:51:42Z</time>
      </trkpt>
      <trkpt lat="50.4788" lon="2.99611">
        <ele>35.71</ele>
        <time>2017-07-16T07:51:51Z</time>
      </trkpt>
      <trkpt lat="50.47889" lon="2.99603">
        <ele>36.19</ele>
        <time>2017-07-16T07:52:00Z</time>
      </trkpt>
      <trkpt lat="50.47898" lon="2.99595">
        <ele>36.67</ele>
        <time>2017-07-16T07:52:09Z</time>
      </trkpt>
      <trkpt lat="50.47907" lon="2.99589">
        <ele>36.67</ele>
        <time>2017-07-16T07:52:18Z</time>
      </trkpt>
      <trkpt lat="50.47916" lon="2.99581">
        <ele>37.15</ele>
        <time>2017-07-16T07:52:26Z</time>
      </trkpt>
      <trkpt lat="50.47924" lon="2.99573">
        <ele>37.63</ele>
        <time>2017-07-16T07:52:34Z</time>
      </trkpt>
      <trkpt lat="50.47931" lon="2.99564">
        <ele>38.11</ele>
        <time>2017-07-16T07:52:42Z</time>
      </trkpt>
      <trkpt lat="50.47938" lon="2.99553">
        <ele>38.59</ele>
        <time>2017-07-16T07:52:50Z</time>
      </trkpt>
      <trkpt lat="50.47945" lon="2.99541">
        <ele>39.07</ele>
        <time>2017-07-16T07:52:59Z</time>
      </trkpt>
      <trkpt lat="50.4795" lon="2.99529">
        <ele>39.55</ele>
        <time>2017-07-16T07:53:07Z</time>
      </trkpt>
      <trkpt lat="50.47956" lon="2.99518">
        <ele>40.03</ele>
        <time>2017-07-16T07:53:15Z</time>
      </trkpt>
      <trkpt lat="50.47961" lon="2.99507">
        <ele>40.51</ele>
        <time>2017-07-16T07:53:23Z</time>
      </trkpt>
      <trkpt lat="50.47965" lon="2.99494">
        <ele>40.03</ele>
        <time>2017-07-16T07:53:30Z</time>
      </trkpt>
      <trkpt lat="50.47969" lon="2.99482">
        <ele>41.47</ele>
        <time>2017-07-16T07:53:38Z</time>
      </trkpt>
      <trkpt lat="50.4797" lon="2.99479">
        <ele>41.95</ele>
        <time>2017-07-16T07:53:48Z</time>
      </trkpt>
      <trkpt lat="50.47963" lon="2.99493">
        <ele>42.44</ele>
        <time>2017-07-16T07:54:01Z</time>
      </trkpt>
      <trkpt lat="50.47956" lon="2.99503">
        <ele>42.92</ele>
        <time>2017-07-16T07:54:10Z</time>
      </trkpt>
      <trkpt lat="50.47949" lon="2.99513">
        <ele>43.4</ele>
        <time>2017-07-16T07:54:18Z</time>
      </trkpt>
      <trkpt lat="50.47942" lon="2.99524">
        <ele>43.4</ele>
        <time>2017-07-16T07:54:27Z</time>
      </trkpt>
      <trkpt lat="50.47936" lon="2.99533">
        <ele>43.88</ele>
        <time>2017-07-16T07:54:35Z</time>
      </trkpt>
      <trkpt lat="50.47928" lon="2.99543">
        <ele>44.36</ele>
        <time>2017-07-16T07:54:44Z</time>
      </trkpt>
      <trkpt lat="50.4792" lon="2.99553">
        <ele>44.84</ele>
        <time>2017-07-16T07:54:53Z</time>
      </trkpt>
      <trkpt lat="50.47911" lon="2.99558">
        <ele>44.84</ele>
        <time>2017-07-16T07:55:01Z</time>
      </trkpt>
      <trkpt lat="50.47902" lon="2.99559">
        <ele>45.8</ele>
        <time>2017-07-16T07:55:10Z</time>
      </trkpt>
      <trkpt lat="50.47893" lon="2.99552">
        <ele>45.8</ele>
        <time>2017-07-16T07:55:18Z</time>
      </trkpt>
      <trkpt lat="50.47895" lon="2.99537">
        <ele>46.28</ele>
        <time>2017-07-16T07:55:26Z</time>
      </trkpt>
      <trkpt lat="50.47903" lon="2.9953">
        <ele>46.76</ele>
        <time>2017-07-16T07:55:34Z</time>
      </trkpt>
      <trkpt lat="50.4791" lon="2.9952">
        <ele>47.24</ele>
        <time>2017-07-16T07:55:42Z</time>
      </trkpt>
      <trkpt lat="50.47917" lon="2.99511">
        <ele>47.72</ele>
        <time>2017-07-16T07:55:50Z</time>
      </trkpt>
      <trkpt lat="50.47924" lon="2.995">
        <ele>48.2</ele>
        <time>2017-07-16T07:55:58Z</time>
      </trkpt>
      <trkpt lat="50.47932" lon="2.99492">
        <ele>48.2</ele>
        <time>2017-07-16T07:56:05Z</time>
      </trkpt>
      <trkpt lat="50.47938" lon="2.99482">
        <ele>48.68</ele>
        <time>2017-07-16T07:56:12Z</time>
      </trkpt>
      <trkpt lat="50.47945" lon="2.99473">
        <ele>48.68</ele>
        <time>2017-07-16T07:56:20Z</time>
      </trkpt>
      <trkpt lat="50.47951" lon="2.99463">
        <ele>48.68</ele>
        <time>2017-07-16T07:56:28Z</time>
      </trkpt>
      <trkpt lat="50.47957" lon="2.99452">
        <ele>49.16</ele>
        <time>2017-07-16T07:56:36Z</time>
      </trkpt>
      <trkpt lat="50.47963" lon="2.99439">
        <ele>49.16</ele>
        <time>2017-07-16T07:56:43Z</time>
      </trkpt>
      <trkpt lat="50.4797" lon="2.99432">
        <ele>48.68</ele>
        <time>2017-07-16T07:56:51Z</time>
      </trkpt>
      <trkpt lat="50.47977" lon="2.99423">
        <ele>48.68</ele>
        <time>2017-07-16T07:56:58Z</time>
      </trkpt>
      <trkpt lat="50.47985" lon="2.99415">
        <ele>47.72</ele>
        <time>2017-07-16T07:57:05Z</time>
      </trkpt>
      <trkpt lat="50.47993" lon="2.99408">
        <ele>47.72</ele>
        <time>2017-07-16T07:57:12Z</time>
      </trkpt>
      <trkpt lat="50.48001" lon="2.99402">
        <ele>47.72</ele>
        <time>2017-07-16T07:57:19Z</time>
      </trkpt>
      <trkpt lat="50.4801" lon="2.99396">
        <ele>47.72</ele>
        <time>2017-07-16T07:57:26Z</time>
      </trkpt>
      <trkpt lat="50.48018" lon="2.99388">
        <ele>48.2</ele>
        <time>2017-07-16T07:57:34Z</time>
      </trkpt>
      <trkpt lat="50.48027" lon="2.9938">
        <ele>47.24</ele>
        <time>2017-07-16T07:57:41Z</time>
      </trkpt>
      <trkpt lat="50.48035" lon="2.99373">
        <ele>47.24</ele>
        <time>2017-07-16T07:57:48Z</time>
      </trkpt>
      <trkpt lat="50.48043" lon="2.99367">
        <ele>47.24</ele>
        <time>2017-07-16T07:57:55Z</time>
      </trkpt>
      <trkpt lat="50.48051" lon="2.99359">
        <ele>46.76</ele>
        <time>2017-07-16T07:58:02Z</time>
      </trkpt>
      <trkpt lat="50.48058" lon="2.99351">
        <ele>46.28</ele>
        <time>2017-07-16T07:58:09Z</time>
      </trkpt>
      <trkpt lat="50.48065" lon="2.99342">
        <ele>46.28</ele>
        <time>2017-07-16T07:58:16Z</time>
      </trkpt>
      <trkpt lat="50.48073" lon="2.99333">
        <ele>46.28</ele>
        <time>2017-07-16T07:58:23Z</time>
      </trkpt>
      <trkpt lat="50.4808" lon="2.99323">
        <ele>45.32</ele>
        <time>2017-07-16T07:58:30Z</time>
      </trkpt>
      <trkpt lat="50.48086" lon="2.99314">
        <ele>45.8</ele>
        <time>2017-07-16T07:58:37Z</time>
      </trkpt>
      <trkpt lat="50.48093" lon="2.99305">
        <ele>46.28</ele>
        <time>2017-07-16T07:58:44Z</time>
      </trkpt>
      <trkpt lat="50.48101" lon="2.99296">
        <ele>46.28</ele>
        <time>2017-07-16T07:58:52Z</time>
      </trkpt>
      <trkpt lat="50.48108" lon="2.9929">
        <ele>46.28</ele>
        <time>2017-07-16T07:58:59Z</time>
      </trkpt>
      <trkpt lat="50.48117" lon="2.99284">
        <ele>47.24</ele>
        <time>2017-07-16T07:59:07Z</time>
      </trkpt>
      <trkpt lat="50.48125" lon="2.99278">
        <ele>47.24</ele>
        <time>2017-07-16T07:59:14Z</time>
      </trkpt>
      <trkpt lat="50.48133" lon="2.9927">
        <ele>47.72</ele>
        <time>2017-07-16T07:59:22Z</time>
      </trkpt>
      <trkpt lat="50.48141" lon="2.9926">
        <ele>48.68</ele>
        <time>2017-07-16T07:59:31Z</time>
      </trkpt>
      <trkpt lat="50.48146" lon="2.99248">
        <ele>49.16</ele>
        <time>2017-07-16T07:59:39Z</time>
      </trkpt>
      <trkpt lat="50.4815" lon="2.99235">
        <ele>49.16</ele>
        <time>2017-07-16T07:59:47Z</time>
      </trkpt>
      <trkpt lat="50.48153" lon="2.99221">
        <ele>50.13</ele>
        <time>2017-07-16T07:59:56Z</time>
      </trkpt>
      <trkpt lat="50.48154" lon="2.99208">
        <ele>49.65</ele>
        <time>2017-07-16T08:00:04Z</time>
      </trkpt>
      <trkpt lat="50.48152" lon="2.99195">
        <ele>50.13</ele>
        <time>2017-07-16T08:00:12Z</time>
      </trkpt>
      <trkpt lat="50.48152" lon="2.99182">
        <ele>49.65</ele>
        <time>2017-07-16T08:00:20Z</time>
      </trkpt>
      <trkpt lat="50.48157" lon="2.99172">
        <ele>50.61</ele>
        <time>2017-07-16T08:02:24Z</time>
      </trkpt>
      <trkpt lat="50.48159" lon="2.99181">
        <ele>51.09</ele>
        <time>2017-07-16T08:02:54Z</time>
      </trkpt>
      <trkpt lat="50.48163" lon="2.99198">
        <ele>51.09</ele>
        <time>2017-07-16T08:03:04Z</time>
      </trkpt>
      <trkpt lat="50.48164" lon="2.99213">
        <ele>50.61</ele>
        <time>2017-07-16T08:03:14Z</time>
      </trkpt>
      <trkpt lat="50.48162" lon="2.99228">
        <ele>51.09</ele>
        <time>2017-07-16T08:03:23Z</time>
      </trkpt>
      <trkpt lat="50.48157" lon="2.99242">
        <ele>50.61</ele>
        <time>2017-07-16T08:03:33Z</time>
      </trkpt>
      <trkpt lat="50.48152" lon="2.99253">
        <ele>50.61</ele>
        <time>2017-07-16T08:03:43Z</time>
      </trkpt>
      <trkpt lat="50.48149" lon="2.99265">
        <ele>50.61</ele>
        <time>2017-07-16T08:04:07Z</time>
      </trkpt>
      <trkpt lat="50.48147" lon="2.99268">
        <ele>50.61</ele>
        <time>2017-07-16T08:05:17Z</time>
      </trkpt>
      <trkpt lat="50.48138" lon="2.99274">
        <ele>50.13</ele>
        <time>2017-07-16T08:06:00Z</time>
      </trkpt>
      <trkpt lat="50.48129" lon="2.99281">
        <ele>49.65</ele>
        <time>2017-07-16T08:06:09Z</time>
      </trkpt>
      <trkpt lat="50.48121" lon="2.99287">
        <ele>49.16</ele>
        <time>2017-07-16T08:06:17Z</time>
      </trkpt>
      <trkpt lat="50.48113" lon="2.99293">
        <ele>48.68</ele>
        <time>2017-07-16T08:06:24Z</time>
      </trkpt>
      <trkpt lat="50.48104" lon="2.99301">
        <ele>48.68</ele>
        <time>2017-07-16T08:06:32Z</time>
      </trkpt>
      <trkpt lat="50.48096" lon="2.99308">
        <ele>48.68</ele>
        <time>2017-07-16T08:06:40Z</time>
      </trkpt>
      <trkpt lat="50.48089" lon="2.99316">
        <ele>48.68</ele>
        <time>2017-07-16T08:06:48Z</time>
      </trkpt>
      <trkpt lat="50.48081" lon="2.99325">
        <ele>48.68</ele>
        <time>2017-07-16T08:06:56Z</time>
      </trkpt>
      <trkpt lat="50.48075" lon="2.99335">
        <ele>48.68</ele>
        <time>2017-07-16T08:07:04Z</time>
      </trkpt>
      <trkpt lat="50.48068" lon="2.99345">
        <ele>48.68</ele>
        <time>2017-07-16T08:07:12Z</time>
      </trkpt>
      <trkpt lat="50.4806" lon="2.99355">
        <ele>49.16</ele>
        <time>2017-07-16T08:07:21Z</time>
      </trkpt>
      <trkpt lat="50.48052" lon="2.99363">
        <ele>49.65</ele>
        <time>2017-07-16T08:07:29Z</time>
      </trkpt>
      <trkpt lat="50.48045" lon="2.99369">
        <ele>50.13</ele>
        <time>2017-07-16T08:07:37Z</time>
      </trkpt>
      <trkpt lat="50.48036" lon="2.99377">
        <ele>50.61</ele>
        <time>2017-07-16T08:07:46Z</time>
      </trkpt>
      <trkpt lat="50.48028" lon="2.99386">
        <ele>50.61</ele>
        <time>2017-07-16T08:07:55Z</time>
      </trkpt>
      <trkpt lat="50.4802" lon="2.99393">
        <ele>51.09</ele>
        <time>2017-07-16T08:08:03Z</time>
      </trkpt>
      <trkpt lat="50.48011" lon="2.99399">
        <ele>50.61</ele>
        <time>2017-07-16T08:08:11Z</time>
      </trkpt>
      <trkpt lat="50.48008" lon="2.9941">
        <ele>52.05</ele>
        <time>2017-07-16T08:08:53Z</time>
      </trkpt>
      <trkpt lat="50.47998" lon="2.99411">
        <ele>51.57</ele>
        <time>2017-07-16T08:09:00Z</time>
      </trkpt>
      <trkpt lat="50.47989" lon="2.99418">
        <ele>52.05</ele>
        <time>2017-07-16T08:09:07Z</time>
      </trkpt>
      <trkpt lat="50.47981" lon="2.99425">
        <ele>52.05</ele>
        <time>2017-07-16T08:09:14Z</time>
      </trkpt>
      <trkpt lat="50.47973" lon="2.99434">
        <ele>52.53</ele>
        <time>2017-07-16T08:09:22Z</time>
      </trkpt>
      <trkpt lat="50.47965" lon="2.99441">
        <ele>53.01</ele>
        <time>2017-07-16T08:09:30Z</time>
      </trkpt>
      <trkpt lat="50.47959" lon="2.99452">
        <ele>52.53</ele>
        <time>2017-07-16T08:09:39Z</time>
      </trkpt>
      <trkpt lat="50.47952" lon="2.99464">
        <ele>53.01</ele>
        <time>2017-07-16T08:09:48Z</time>
      </trkpt>
      <trkpt lat="50.47946" lon="2.99475">
        <ele>52.53</ele>
        <time>2017-07-16T08:09:57Z</time>
      </trkpt>
      <trkpt lat="50.47938" lon="2.99485">
        <ele>53.01</ele>
        <time>2017-07-16T08:10:06Z</time>
      </trkpt>
      <trkpt lat="50.47932" lon="2.99497">
        <ele>53.01</ele>
        <time>2017-07-16T08:10:15Z</time>
      </trkpt>
      <trkpt lat="50.47926" lon="2.99507">
        <ele>52.53</ele>
        <time>2017-07-16T08:10:23Z</time>
      </trkpt>
      <trkpt lat="50.47919" lon="2.99515">
        <ele>52.53</ele>
        <time>2017-07-16T08:10:31Z</time>
      </trkpt>
      <trkpt lat="50.4791" lon="2.99524">
        <ele>52.05</ele>
        <time>2017-07-16T08:10:39Z</time>
      </trkpt>
      <trkpt lat="50.47903" lon="2.99533">
        <ele>51.57</ele>
        <time>2017-07-16T08:10:47Z</time>
      </trkpt>
      <trkpt lat="50.47894" lon="2.99542">
        <ele>51.57</ele>
        <time>2017-07-16T08:10:55Z</time>
      </trkpt>
      <trkpt lat="50.47891" lon="2.99555">
        <ele>51.09</ele>
        <time>2017-07-16T08:11:03Z</time>
      </trkpt>
      <trkpt lat="50.47889" lon="2.99563">
        <ele>53.01</ele>
        <time>2017-07-16T08:11:33Z</time>
      </trkpt>
      <trkpt lat="50.47892" lon="2.99563">
        <ele>52.53</ele>
        <time>2017-07-16T08:15:08Z</time>
      </trkpt>
      <trkpt lat="50.47899" lon="2.99557">
        <ele>51.09</ele>
        <time>2017-07-16T08:15:24Z</time>
      </trkpt>
      <trkpt lat="50.47906" lon="2.9956">
        <ele>51.09</ele>
        <time>2017-07-16T08:15:36Z</time>
      </trkpt>
      <trkpt lat="50.47917" lon="2.99556">
        <ele>50.13</ele>
        <time>2017-07-16T08:15:46Z</time>
      </trkpt>
      <trkpt lat="50.47925" lon="2.99549">
        <ele>49.65</ele>
        <time>2017-07-16T08:15:54Z</time>
      </trkpt>
      <trkpt lat="50.47932" lon="2.99538">
        <ele>49.16</ele>
        <time>2017-07-16T08:16:07Z</time>
      </trkpt>
      <trkpt lat="50.4794" lon="2.99527">
        <ele>48.68</ele>
        <time>2017-07-16T08:16:16Z</time>
      </trkpt>
      <trkpt lat="50.47946" lon="2.99515">
        <ele>48.2</ele>
        <time>2017-07-16T08:16:25Z</time>
      </trkpt>
      <trkpt lat="50.47953" lon="2.99503">
        <ele>47.72</ele>
        <time>2017-07-16T08:16:34Z</time>
      </trkpt>
      <trkpt lat="50.47961" lon="2.99493">
        <ele>47.72</ele>
        <time>2017-07-16T08:16:42Z</time>
      </trkpt>
      <trkpt lat="50.47967" lon="2.99482">
        <ele>47.72</ele>
        <time>2017-07-16T08:16:50Z</time>
      </trkpt>
      <trkpt lat="50.47974" lon="2.9948">
        <ele>47.24</ele>
        <time>2017-07-16T08:16:58Z</time>
      </trkpt>
      <trkpt lat="50.47969" lon="2.99493">
        <ele>46.76</ele>
        <time>2017-07-16T08:17:06Z</time>
      </trkpt>
      <trkpt lat="50.47964" lon="2.99507">
        <ele>46.76</ele>
        <time>2017-07-16T08:17:14Z</time>
      </trkpt>
      <trkpt lat="50.47958" lon="2.9952">
        <ele>46.28</ele>
        <time>2017-07-16T08:17:23Z</time>
      </trkpt>
      <trkpt lat="50.47952" lon="2.99533">
        <ele>45.8</ele>
        <time>2017-07-16T08:17:31Z</time>
      </trkpt>
      <trkpt lat="50.47947" lon="2.99545">
        <ele>45.32</ele>
        <time>2017-07-16T08:17:39Z</time>
      </trkpt>
      <trkpt lat="50.47941" lon="2.99557">
        <ele>44.84</ele>
        <time>2017-07-16T08:17:47Z</time>
      </trkpt>
      <trkpt lat="50.47934" lon="2.99569">
        <ele>44.84</ele>
        <time>2017-07-16T08:17:55Z</time>
      </trkpt>
      <trkpt lat="50.47926" lon="2.99579">
        <ele>43.88</ele>
        <time>2017-07-16T08:18:03Z</time>
      </trkpt>
      <trkpt lat="50.47917" lon="2.99586">
        <ele>43.88</ele>
        <time>2017-07-16T08:18:11Z</time>
      </trkpt>
      <trkpt lat="50.47908" lon="2.99593">
        <ele>43.4</ele>
        <time>2017-07-16T08:18:20Z</time>
      </trkpt>
      <trkpt lat="50.479" lon="2.99599">
        <ele>43.4</ele>
        <time>2017-07-16T08:18:28Z</time>
      </trkpt>
      <trkpt lat="50.47891" lon="2.99607">
        <ele>42.92</ele>
        <time>2017-07-16T08:18:36Z</time>
      </trkpt>
      <trkpt lat="50.47884" lon="2.99613">
        <ele>41.95</ele>
        <time>2017-07-16T08:18:44Z</time>
      </trkpt>
      <trkpt lat="50.47874" lon="2.9962">
        <ele>41.47</ele>
        <time>2017-07-16T08:18:52Z</time>
      </trkpt>
      <trkpt lat="50.47867" lon="2.99626">
        <ele>41.47</ele>
        <time>2017-07-16T08:19:00Z</time>
      </trkpt>
      <trkpt lat="50.47858" lon="2.99631">
        <ele>40.99</ele>
        <time>2017-07-16T08:19:08Z</time>
      </trkpt>
      <trkpt lat="50.47849" lon="2.99637">
        <ele>40.03</ele>
        <time>2017-07-16T08:19:17Z</time>
      </trkpt>
      <trkpt lat="50.47839" lon="2.99641">
        <ele>40.03</ele>
        <time>2017-07-16T08:19:25Z</time>
      </trkpt>
      <trkpt lat="50.4783" lon="2.99642">
        <ele>39.55</ele>
        <time>2017-07-16T08:19:33Z</time>
      </trkpt>
      <trkpt lat="50.4782" lon="2.99645">
        <ele>38.59</ele>
        <time>2017-07-16T08:19:41Z</time>
      </trkpt>
      <trkpt lat="50.47824" lon="2.99651">
        <ele>39.07</ele>
        <time>2017-07-16T08:19:51Z</time>
      </trkpt>
      <trkpt lat="50.47834" lon="2.99652">
        <ele>38.11</ele>
        <time>2017-07-16T08:20:01Z</time>
      </trkpt>
      <trkpt lat="50.47844" lon="2.99653">
        <ele>37.63</ele>
        <time>2017-07-16T08:20:10Z</time>
      </trkpt>
      <trkpt lat="50.47854" lon="2.99653">
        <ele>37.15</ele>
        <time>2017-07-16T08:20:19Z</time>
      </trkpt>
      <trkpt lat="50.47863" lon="2.9965">
        <ele>36.67</ele>
        <time>2017-07-16T08:20:27Z</time>
      </trkpt>
      <trkpt lat="50.47873" lon="2.99646">
        <ele>35.71</ele>
        <time>2017-07-16T08:20:36Z</time>
      </trkpt>
      <trkpt lat="50.47882" lon="2.99642">
        <ele>35.71</ele>
        <time>2017-07-16T08:20:44Z</time>
      </trkpt>
      <trkpt lat="50.47891" lon="2.99638">
        <ele>35.23</ele>
        <time>2017-07-16T08:20:52Z</time>
      </trkpt>
      <trkpt lat="50.47901" lon="2.99633">
        <ele>34.74</ele>
        <time>2017-07-16T08:21:01Z</time>
      </trkpt>
      <trkpt lat="50.47911" lon="2.99627">
        <ele>34.26</ele>
        <time>2017-07-16T08:21:10Z</time>
      </trkpt>
      <trkpt lat="50.4792" lon="2.9962">
        <ele>33.78</ele>
        <time>2017-07-16T08:21:19Z</time>
      </trkpt>
      <trkpt lat="50.4793" lon="2.99615">
        <ele>32.82</ele>
        <time>2017-07-16T08:21:28Z</time>
      </trkpt>
      <trkpt lat="50.47939" lon="2.99609">
        <ele>32.82</ele>
        <time>2017-07-16T08:21:36Z</time>
      </trkpt>
      <trkpt lat="50.47947" lon="2.996">
        <ele>32.82</ele>
        <time>2017-07-16T08:21:45Z</time>
      </trkpt>
      <trkpt lat="50.47955" lon="2.99593">
        <ele>32.82</ele>
        <time>2017-07-16T08:21:53Z</time>
      </trkpt>
      <trkpt lat="50.47962" lon="2.99583">
        <ele>31.86</ele>
        <time>2017-07-16T08:22:01Z</time>
      </trkpt>
      <trkpt lat="50.47969" lon="2.99573">
        <ele>31.38</ele>
        <time>2017-07-16T08:22:09Z</time>
      </trkpt>
      <trkpt lat="50.47976" lon="2.99563">
        <ele>31.38</ele>
        <time>2017-07-16T08:22:18Z</time>
      </trkpt>
      <trkpt lat="50.47984" lon="2.99552">
        <ele>30.42</ele>
        <time>2017-07-16T08:22:26Z</time>
      </trkpt>
      <trkpt lat="50.47989" lon="2.99541">
        <ele>30.42</ele>
        <time>2017-07-16T08:22:33Z</time>
      </trkpt>
      <trkpt lat="50.47996" lon="2.99531">
        <ele>29.46</ele>
        <time>2017-07-16T08:22:41Z</time>
      </trkpt>
      <trkpt lat="50.48003" lon="2.99523">
        <ele>28.98</ele>
        <time>2017-07-16T08:22:49Z</time>
      </trkpt>
      <trkpt lat="50.48008" lon="2.9951">
        <ele>28.98</ele>
        <time>2017-07-16T08:22:57Z</time>
      </trkpt>
      <trkpt lat="50.48016" lon="2.995">
        <ele>28.5</ele>
        <time>2017-07-16T08:23:06Z</time>
      </trkpt>
      <trkpt lat="50.48018" lon="2.99505">
        <ele>28.5</ele>
        <time>2017-07-16T08:23:16Z</time>
      </trkpt>
      <trkpt lat="50.48016" lon="2.99505">
        <ele>29.46</ele>
        <time>2017-07-16T08:28:07Z</time>
      </trkpt>
      <trkpt lat="50.48017" lon="2.99509">
        <ele>29.46</ele>
        <time>2017-07-16T08:28:24Z</time>
      </trkpt>
      <trkpt lat="50.48017" lon="2.99517">
        <ele>29.46</ele>
        <time>2017-07-16T08:31:40Z</time>
      </trkpt>
      <trkpt lat="50.48013" lon="2.99525">
        <ele>28.98</ele>
        <time>2017-07-16T08:34:03Z</time>
      </trkpt>
      <trkpt lat="50.48006" lon="2.99539">
        <ele>28.5</ele>
        <time>2017-07-16T08:34:14Z</time>
      </trkpt>
      <trkpt lat="50.48" lon="2.99549">
        <ele>28.02</ele>
        <time>2017-07-16T08:34:30Z</time>
      </trkpt>
      <trkpt lat="50.47994" lon="2.99563">
        <ele>27.53</ele>
        <time>2017-07-16T08:34:40Z</time>
      </trkpt>
      <trkpt lat="50.47988" lon="2.99577">
        <ele>27.05</ele>
        <time>2017-07-16T08:34:49Z</time>
      </trkpt>
      <trkpt lat="50.47981" lon="2.99589">
        <ele>27.05</ele>
        <time>2017-07-16T08:34:57Z</time>
      </trkpt>
      <trkpt lat="50.47975" lon="2.99601">
        <ele>26.57</ele>
        <time>2017-07-16T08:35:05Z</time>
      </trkpt>
      <trkpt lat="50.47966" lon="2.99614">
        <ele>25.61</ele>
        <time>2017-07-16T08:35:14Z</time>
      </trkpt>
      <trkpt lat="50.47959" lon="2.99627">
        <ele>25.61</ele>
        <time>2017-07-16T08:35:23Z</time>
      </trkpt>
      <trkpt lat="50.47948" lon="2.99641">
        <ele>22.73</ele>
        <time>2017-07-16T08:35:34Z</time>
      </trkpt>
      <trkpt lat="50.47945" lon="2.99656">
        <ele>23.69</ele>
        <time>2017-07-16T08:35:43Z</time>
      </trkpt>
      <trkpt lat="50.4794" lon="2.99669">
        <ele>22.25</ele>
        <time>2017-07-16T08:35:52Z</time>
      </trkpt>
      <trkpt lat="50.4793" lon="2.99679">
        <ele>22.25</ele>
        <time>2017-07-16T08:36:04Z</time>
      </trkpt>
      <trkpt lat="50.47926" lon="2.99683">
        <ele>23.69</ele>
        <time>2017-07-16T08:36:23Z</time>
      </trkpt>
      <trkpt lat="50.47921" lon="2.99685">
        <ele>23.69</ele>
        <time>2017-07-16T08:37:04Z</time>
      </trkpt>
      <trkpt lat="50.47914" lon="2.99695">
        <ele>23.21</ele>
        <time>2017-07-16T08:37:15Z</time>
      </trkpt>
      <trkpt lat="50.47906" lon="2.99707">
        <ele>23.21</ele>
        <time>2017-07-16T08:37:26Z</time>
      </trkpt>
      <trkpt lat="50.47897" lon="2.99715">
        <ele>23.21</ele>
        <time>2017-07-16T08:37:41Z</time>
      </trkpt>
      <trkpt lat="50.47886" lon="2.99718">
        <ele>25.61</ele>
        <time>2017-07-16T08:37:54Z</time>
      </trkpt>
      <trkpt lat="50.47875" lon="2.99723">
        <ele>23.69</ele>
        <time>2017-07-16T08:38:07Z</time>
      </trkpt>
      <trkpt lat="50.47862" lon="2.99728">
        <ele>24.17</ele>
        <time>2017-07-16T08:38:19Z</time>
      </trkpt>
      <trkpt lat="50.4785" lon="2.99728">
        <ele>24.17</ele>
        <time>2017-07-16T08:38:29Z</time>
      </trkpt>
      <trkpt lat="50.47839" lon="2.99729">
        <ele>24.17</ele>
        <time>2017-07-16T08:38:39Z</time>
      </trkpt>
      <trkpt lat="50.47827" lon="2.99731">
        <ele>23.21</ele>
        <time>2017-07-16T08:38:48Z</time>
      </trkpt>
      <trkpt lat="50.47816" lon="2.99745">
        <ele>23.21</ele>
        <time>2017-07-16T08:39:03Z</time>
      </trkpt>
      <trkpt lat="50.47817" lon="2.99764">
        <ele>24.65</ele>
        <time>2017-07-16T08:39:13Z</time>
      </trkpt>
      <trkpt lat="50.47826" lon="2.99775">
        <ele>23.69</ele>
        <time>2017-07-16T08:39:23Z</time>
      </trkpt>
      <trkpt lat="50.47833" lon="2.99791">
        <ele>23.69</ele>
        <time>2017-07-16T08:39:32Z</time>
      </trkpt>
      <trkpt lat="50.4784" lon="2.99804">
        <ele>25.61</ele>
        <time>2017-07-16T08:39:41Z</time>
      </trkpt>
      <trkpt lat="50.47848" lon="2.99815">
        <ele>25.13</ele>
        <time>2017-07-16T08:39:50Z</time>
      </trkpt>
      <trkpt lat="50.47857" lon="2.99825">
        <ele>25.61</ele>
        <time>2017-07-16T08:40:00Z</time>
      </trkpt>
      <trkpt lat="50.47865" lon="2.99837">
        <ele>25.13</ele>
        <time>2017-07-16T08:40:08Z</time>
      </trkpt>
      <trkpt lat="50.47874" lon="2.9985">
        <ele>25.13</ele>
        <time>2017-07-16T08:40:18Z</time>
      </trkpt>
      <trkpt lat="50.47877" lon="2.99858">
        <ele>24.65</ele>
        <time>2017-07-16T08:40:31Z</time>
      </trkpt>
      <trkpt lat="50.47873" lon="2.99869">
        <ele>24.65</ele>
        <time>2017-07-16T08:40:45Z</time>
      </trkpt>
      <trkpt lat="50.47865" lon="2.9988">
        <ele>25.13</ele>
        <time>2017-07-16T08:40:54Z</time>
      </trkpt>
      <trkpt lat="50.47858" lon="2.99891">
        <ele>25.61</ele>
        <time>2017-07-16T08:41:02Z</time>
      </trkpt>
      <trkpt lat="50.47852" lon="2.99905">
        <ele>26.09</ele>
        <time>2017-07-16T08:41:11Z</time>
      </trkpt>
      <trkpt lat="50.47845" lon="2.99917">
        <ele>26.09</ele>
        <time>2017-07-16T08:41:19Z</time>
      </trkpt>
      <trkpt lat="50.47838" lon="2.99929">
        <ele>26.09</ele>
        <time>2017-07-16T08:41:27Z</time>
      </trkpt>
      <trkpt lat="50.47831" lon="2.99941">
        <ele>27.05</ele>
        <time>2017-07-16T08:41:37Z</time>
      </trkpt>
      <trkpt lat="50.47823" lon="2.99953">
        <ele>26.09</ele>
        <time>2017-07-16T08:41:55Z</time>
      </trkpt>
      <trkpt lat="50.47816" lon="2.99965">
        <ele>26.57</ele>
        <time>2017-07-16T08:42:04Z</time>
      </trkpt>
      <trkpt lat="50.47808" lon="2.99978">
        <ele>26.57</ele>
        <time>2017-07-16T08:42:13Z</time>
      </trkpt>
      <trkpt lat="50.47801" lon="2.99989">
        <ele>26.09</ele>
        <time>2017-07-16T08:42:21Z</time>
      </trkpt>
      <trkpt lat="50.47794" lon="2.99998">
        <ele>26.57</ele>
        <time>2017-07-16T08:42:34Z</time>
      </trkpt>
      <trkpt lat="50.47788" lon="3.0001">
        <ele>26.09</ele>
        <time>2017-07-16T08:42:47Z</time>
      </trkpt>
      <trkpt lat="50.4778" lon="3.00021">
        <ele>26.57</ele>
        <time>2017-07-16T08:42:55Z</time>
      </trkpt>
      <trkpt lat="50.47774" lon="3.00033">
        <ele>27.05</ele>
        <time>2017-07-16T08:43:09Z</time>
      </trkpt>
      <trkpt lat="50.47767" lon="3.00045">
        <ele>26.57</ele>
        <time>2017-07-16T08:43:27Z</time>
      </trkpt>
      <trkpt lat="50.47763" lon="3.00055">
        <ele>26.57</ele>
        <time>2017-07-16T08:43:46Z</time>
      </trkpt>
      <trkpt lat="50.47757" lon="3.00069">
        <ele>27.53</ele>
        <time>2017-07-16T08:43:56Z</time>
      </trkpt>
      <trkpt lat="50.47762" lon="3.00079">
        <ele>26.57</ele>
        <time>2017-07-16T08:44:04Z</time>
      </trkpt>
      <trkpt lat="50.47767" lon="3.00082">
        <ele>26.57</ele>
        <time>2017-07-16T08:44:52Z</time>
      </trkpt>
      <trkpt lat="50.47774" lon="3.00093">
        <ele>27.05</ele>
        <time>2017-07-16T08:45:00Z</time>
      </trkpt>
      <trkpt lat="50.47782" lon="3.00103">
        <ele>27.05</ele>
        <time>2017-07-16T08:45:10Z</time>
      </trkpt>
      <trkpt lat="50.4779" lon="3.00113">
        <ele>27.05</ele>
        <time>2017-07-16T08:45:18Z</time>
      </trkpt>
      <trkpt lat="50.478" lon="3.00116">
        <ele>27.05</ele>
        <time>2017-07-16T08:45:27Z</time>
      </trkpt>
      <trkpt lat="50.47811" lon="3.00116">
        <ele>27.05</ele>
        <time>2017-07-16T08:45:36Z</time>
      </trkpt>
      <trkpt lat="50.4782" lon="3.00116">
        <ele>27.05</ele>
        <time>2017-07-16T08:45:45Z</time>
      </trkpt>
      <trkpt lat="50.47831" lon="3.00116">
        <ele>27.53</ele>
        <time>2017-07-16T08:45:55Z</time>
      </trkpt>
      <trkpt lat="50.47843" lon="3.00115">
        <ele>27.53</ele>
        <time>2017-07-16T08:46:04Z</time>
      </trkpt>
      <trkpt lat="50.47853" lon="3.00116">
        <ele>28.02</ele>
        <time>2017-07-16T08:46:12Z</time>
      </trkpt>
      <trkpt lat="50.47863" lon="3.00116">
        <ele>27.53</ele>
        <time>2017-07-16T08:46:20Z</time>
      </trkpt>
      <trkpt lat="50.47873" lon="3.00116">
        <ele>27.53</ele>
        <time>2017-07-16T08:46:28Z</time>
      </trkpt>
      <trkpt lat="50.47882" lon="3.00118">
        <ele>24.17</ele>
        <time>2017-07-16T08:46:36Z</time>
      </trkpt>
      <trkpt lat="50.47892" lon="3.00123">
        <ele>26.09</ele>
        <time>2017-07-16T08:46:44Z</time>
      </trkpt>
      <trkpt lat="50.47903" lon="3.00124">
        <ele>27.53</ele>
        <time>2017-07-16T08:46:52Z</time>
      </trkpt>
      <trkpt lat="50.47912" lon="3.00124">
        <ele>27.53</ele>
        <time>2017-07-16T08:47:00Z</time>
      </trkpt>
      <trkpt lat="50.47922" lon="3.00124">
        <ele>28.02</ele>
        <time>2017-07-16T08:47:08Z</time>
      </trkpt>
      <trkpt lat="50.47932" lon="3.00124">
        <ele>28.02</ele>
        <time>2017-07-16T08:47:16Z</time>
      </trkpt>
      <trkpt lat="50.47942" lon="3.00124">
        <ele>28.02</ele>
        <time>2017-07-16T08:47:24Z</time>
      </trkpt>
      <trkpt lat="50.47951" lon="3.00125">
        <ele>28.02</ele>
        <time>2017-07-16T08:47:32Z</time>
      </trkpt>
      <trkpt lat="50.4796" lon="3.00125">
        <ele>28.02</ele>
        <time>2017-07-16T08:47:49Z</time>
      </trkpt>
      <trkpt lat="50.47971" lon="3.00127">
        <ele>27.53</ele>
        <time>2017-07-16T08:47:58Z</time>
      </trkpt>
      <trkpt lat="50.47981" lon="3.00131">
        <ele>28.5</ele>
        <time>2017-07-16T08:48:07Z</time>
      </trkpt>
      <trkpt lat="50.47991" lon="3.00133">
        <ele>28.5</ele>
        <time>2017-07-16T08:48:15Z</time>
      </trkpt>
      <trkpt lat="50.48" lon="3.00139">
        <ele>28.02</ele>
        <time>2017-07-16T08:48:23Z</time>
      </trkpt>
      <trkpt lat="50.4801" lon="3.00144">
        <ele>28.5</ele>
        <time>2017-07-16T08:48:32Z</time>
      </trkpt>
      <trkpt lat="50.4802" lon="3.00149">
        <ele>28.5</ele>
        <time>2017-07-16T08:48:46Z</time>
      </trkpt>
      <trkpt lat="50.48029" lon="3.00153">
        <ele>28.02</ele>
        <time>2017-07-16T08:48:54Z</time>
      </trkpt>
      <trkpt lat="50.48039" lon="3.00159">
        <ele>28.02</ele>
        <time>2017-07-16T08:49:02Z</time>
      </trkpt>
      <trkpt lat="50.48049" lon="3.00165">
        <ele>28.02</ele>
        <time>2017-07-16T08:49:10Z</time>
      </trkpt>
      <trkpt lat="50.48059" lon="3.00171">
        <ele>28.02</ele>
        <time>2017-07-16T08:49:19Z</time>
      </trkpt>
      <trkpt lat="50.48067" lon="3.00178">
        <ele>26.57</ele>
        <time>2017-07-16T08:49:28Z</time>
      </trkpt>
      <trkpt lat="50.48066" lon="3.00196">
        <ele>28.02</ele>
        <time>2017-07-16T08:49:37Z</time>
      </trkpt>
      <trkpt lat="50.48068" lon="3.00212">
        <ele>28.5</ele>
        <time>2017-07-16T08:49:45Z</time>
      </trkpt>
      <trkpt lat="50.48067" lon="3.00228">
        <ele>27.53</ele>
        <time>2017-07-16T08:49:53Z</time>
      </trkpt>
      <trkpt lat="50.48065" lon="3.00244">
        <ele>28.02</ele>
        <time>2017-07-16T08:50:02Z</time>
      </trkpt>
      <trkpt lat="50.48062" lon="3.0026">
        <ele>28.02</ele>
        <time>2017-07-16T08:50:11Z</time>
      </trkpt>
      <trkpt lat="50.48058" lon="3.00274">
        <ele>28.98</ele>
        <time>2017-07-16T08:50:20Z</time>
      </trkpt>
      <trkpt lat="50.4805" lon="3.00283">
        <ele>28.98</ele>
        <time>2017-07-16T08:50:29Z</time>
      </trkpt>
      <trkpt lat="50.48039" lon="3.00277">
        <ele>28.02</ele>
        <time>2017-07-16T08:50:39Z</time>
      </trkpt>
      <trkpt lat="50.48029" lon="3.00281">
        <ele>28.5</ele>
        <time>2017-07-16T08:50:50Z</time>
      </trkpt>
      <trkpt lat="50.48025" lon="3.00299">
        <ele>28.5</ele>
        <time>2017-07-16T08:51:05Z</time>
      </trkpt>
      <trkpt lat="50.48019" lon="3.00315">
        <ele>28.5</ele>
        <time>2017-07-16T08:51:15Z</time>
      </trkpt>
      <trkpt lat="50.48014" lon="3.00329">
        <ele>28.5</ele>
        <time>2017-07-16T08:51:23Z</time>
      </trkpt>
      <trkpt lat="50.48008" lon="3.0034">
        <ele>28.5</ele>
        <time>2017-07-16T08:51:31Z</time>
      </trkpt>
      <trkpt lat="50.48002" lon="3.00353">
        <ele>28.98</ele>
        <time>2017-07-16T08:51:41Z</time>
      </trkpt>
      <trkpt lat="50.47995" lon="3.00362">
        <ele>28.02</ele>
        <time>2017-07-16T08:51:50Z</time>
      </trkpt>
      <trkpt lat="50.47984" lon="3.00367">
        <ele>28.98</ele>
        <time>2017-07-16T08:51:59Z</time>
      </trkpt>
      <trkpt lat="50.47975" lon="3.00378">
        <ele>29.46</ele>
        <time>2017-07-16T08:52:11Z</time>
      </trkpt>
      <trkpt lat="50.47974" lon="3.0039">
        <ele>29.46</ele>
        <time>2017-07-16T08:52:41Z</time>
      </trkpt>
      <trkpt lat="50.47968" lon="3.00408">
        <ele>29.46</ele>
        <time>2017-07-16T08:52:55Z</time>
      </trkpt>
      <trkpt lat="50.47963" lon="3.00426">
        <ele>29.46</ele>
        <time>2017-07-16T08:53:06Z</time>
      </trkpt>
      <trkpt lat="50.4796" lon="3.00451">
        <ele>28.98</ele>
        <time>2017-07-16T08:53:24Z</time>
      </trkpt>
      <trkpt lat="50.4796" lon="3.00476">
        <ele>28.98</ele>
        <time>2017-07-16T08:53:38Z</time>
      </trkpt>
      <trkpt lat="50.47957" lon="3.00493">
        <ele>29.46</ele>
        <time>2017-07-16T08:53:53Z</time>
      </trkpt>
      <trkpt lat="50.47955" lon="3.00512">
        <ele>28.98</ele>
        <time>2017-07-16T08:54:08Z</time>
      </trkpt>
      <trkpt lat="50.47956" lon="3.00529">
        <ele>28.98</ele>
        <time>2017-07-16T08:54:24Z</time>
      </trkpt>
      <trkpt lat="50.47954" lon="3.00544">
        <ele>29.46</ele>
        <time>2017-07-16T08:54:39Z</time>
      </trkpt>
      <trkpt lat="50.47947" lon="3.00567">
        <ele>29.46</ele>
        <time>2017-07-16T08:54:58Z</time>
      </trkpt>
      <trkpt lat="50.47939" lon="3.00588">
        <ele>28.98</ele>
        <time>2017-07-16T08:55:09Z</time>
      </trkpt>
      <trkpt lat="50.47928" lon="3.00585">
        <ele>28.98</ele>
        <time>2017-07-16T08:55:33Z</time>
      </trkpt>
      <trkpt lat="50.47918" lon="3.00584">
        <ele>28.98</ele>
        <time>2017-07-16T08:55:44Z</time>
      </trkpt>
      <trkpt lat="50.47906" lon="3.00586">
        <ele>29.46</ele>
        <time>2017-07-16T08:55:53Z</time>
      </trkpt>
      <trkpt lat="50.47892" lon="3.00584">
        <ele>28.98</ele>
        <time>2017-07-16T08:56:01Z</time>
      </trkpt>
      <trkpt lat="50.47882" lon="3.00577">
        <ele>28.98</ele>
        <time>2017-07-16T08:56:10Z</time>
      </trkpt>
      <trkpt lat="50.47871" lon="3.00574">
        <ele>28.5</ele>
        <time>2017-07-16T08:56:28Z</time>
      </trkpt>
      <trkpt lat="50.47861" lon="3.00571">
        <ele>28.5</ele>
        <time>2017-07-16T08:57:15Z</time>
      </trkpt>
      <trkpt lat="50.47844" lon="3.00569">
        <ele>28.02</ele>
        <time>2017-07-16T08:57:44Z</time>
      </trkpt>
      <trkpt lat="50.47833" lon="3.00565">
        <ele>28.02</ele>
        <time>2017-07-16T08:57:54Z</time>
      </trkpt>
      <trkpt lat="50.47821" lon="3.00567">
        <ele>28.02</ele>
        <time>2017-07-16T08:58:03Z</time>
      </trkpt>
      <trkpt lat="50.47811" lon="3.00572">
        <ele>27.53</ele>
        <time>2017-07-16T08:58:14Z</time>
      </trkpt>
      <trkpt lat="50.47801" lon="3.00565">
        <ele>27.05</ele>
        <time>2017-07-16T08:58:24Z</time>
      </trkpt>
      <trkpt lat="50.47789" lon="3.00567">
        <ele>27.53</ele>
        <time>2017-07-16T08:58:44Z</time>
      </trkpt>
      <trkpt lat="50.4778" lon="3.00567">
        <ele>27.05</ele>
        <time>2017-07-16T08:59:12Z</time>
      </trkpt>
      <trkpt lat="50.4777" lon="3.00555">
        <ele>27.05</ele>
        <time>2017-07-16T08:59:19Z</time>
      </trkpt>
      <trkpt lat="50.47762" lon="3.00546">
        <ele>27.05</ele>
        <time>2017-07-16T08:59:26Z</time>
      </trkpt>
      <trkpt lat="50.47755" lon="3.00536">
        <ele>26.57</ele>
        <time>2017-07-16T08:59:33Z</time>
      </trkpt>
      <trkpt lat="50.47749" lon="3.00525">
        <ele>26.57</ele>
        <time>2017-07-16T08:59:43Z</time>
      </trkpt>
      <trkpt lat="50.47751" lon="3.00509">
        <ele>26.57</ele>
        <time>2017-07-16T08:59:51Z</time>
      </trkpt>
      <trkpt lat="50.47752" lon="3.00493">
        <ele>26.57</ele>
        <time>2017-07-16T09:00:00Z</time>
      </trkpt>
      <trkpt lat="50.47754" lon="3.00478">
        <ele>26.09</ele>
        <time>2017-07-16T09:00:09Z</time>
      </trkpt>
      <trkpt lat="50.47756" lon="3.00463">
        <ele>26.57</ele>
        <time>2017-07-16T09:00:17Z</time>
      </trkpt>
      <trkpt lat="50.47759" lon="3.00448">
        <ele>26.57</ele>
        <time>2017-07-16T09:00:26Z</time>
      </trkpt>
      <trkpt lat="50.47764" lon="3.00427">
        <ele>26.09</ele>
        <time>2017-07-16T09:00:36Z</time>
      </trkpt>
      <trkpt lat="50.47768" lon="3.00412">
        <ele>26.09</ele>
        <time>2017-07-16T09:01:05Z</time>
      </trkpt>
      <trkpt lat="50.47773" lon="3.00396">
        <ele>26.09</ele>
        <time>2017-07-16T09:01:18Z</time>
      </trkpt>
      <trkpt lat="50.47779" lon="3.0038">
        <ele>26.09</ele>
        <time>2017-07-16T09:01:27Z</time>
      </trkpt>
      <trkpt lat="50.47785" lon="3.00365">
        <ele>26.57</ele>
        <time>2017-07-16T09:01:36Z</time>
      </trkpt>
      <trkpt lat="50.47792" lon="3.00353">
        <ele>25.13</ele>
        <time>2017-07-16T09:01:44Z</time>
      </trkpt>
      <trkpt lat="50.47799" lon="3.0034">
        <ele>25.13</ele>
        <time>2017-07-16T09:01:52Z</time>
      </trkpt>
      <trkpt lat="50.47805" lon="3.00329">
        <ele>25.13</ele>
        <time>2017-07-16T09:02:00Z</time>
      </trkpt>
      <trkpt lat="50.47811" lon="3.00316">
        <ele>25.13</ele>
        <time>2017-07-16T09:02:08Z</time>
      </trkpt>
      <trkpt lat="50.47818" lon="3.00303">
        <ele>27.05</ele>
        <time>2017-07-16T09:02:17Z</time>
      </trkpt>
      <trkpt lat="50.47826" lon="3.00291">
        <ele>27.05</ele>
        <time>2017-07-16T09:02:27Z</time>
      </trkpt>
      <trkpt lat="50.47832" lon="3.00278">
        <ele>27.05</ele>
        <time>2017-07-16T09:02:37Z</time>
      </trkpt>
      <trkpt lat="50.47839" lon="3.00267">
        <ele>27.05</ele>
        <time>2017-07-16T09:02:45Z</time>
      </trkpt>
      <trkpt lat="50.47841" lon="3.00253">
        <ele>26.57</ele>
        <time>2017-07-16T09:03:13Z</time>
      </trkpt>
      <trkpt lat="50.47832" lon="3.00242">
        <ele>26.57</ele>
        <time>2017-07-16T09:03:21Z</time>
      </trkpt>
      <trkpt lat="50.47824" lon="3.00232">
        <ele>26.57</ele>
        <time>2017-07-16T09:03:29Z</time>
      </trkpt>
      <trkpt lat="50.47815" lon="3.00223">
        <ele>26.09</ele>
        <time>2017-07-16T09:03:38Z</time>
      </trkpt>
      <trkpt lat="50.47806" lon="3.00215">
        <ele>26.09</ele>
        <time>2017-07-16T09:03:46Z</time>
      </trkpt>
      <trkpt lat="50.47798" lon="3.00206">
        <ele>26.09</ele>
        <time>2017-07-16T09:03:54Z</time>
      </trkpt>
      <trkpt lat="50.4779" lon="3.002">
        <ele>26.09</ele>
        <time>2017-07-16T09:04:01Z</time>
      </trkpt>
      <trkpt lat="50.47783" lon="3.00209">
        <ele>26.09</ele>
        <time>2017-07-16T09:04:11Z</time>
      </trkpt>
      <trkpt lat="50.47775" lon="3.00217">
        <ele>25.61</ele>
        <time>2017-07-16T09:04:20Z</time>
      </trkpt>
      <trkpt lat="50.47764" lon="3.0021">
        <ele>25.61</ele>
        <time>2017-07-16T09:04:29Z</time>
      </trkpt>
      <trkpt lat="50.47754" lon="3.00201">
        <ele>25.13</ele>
        <time>2017-07-16T09:04:37Z</time>
      </trkpt>
      <trkpt lat="50.47744" lon="3.00193">
        <ele>25.61</ele>
        <time>2017-07-16T09:04:45Z</time>
      </trkpt>
      <trkpt lat="50.47738" lon="3.00182">
        <ele>25.61</ele>
        <time>2017-07-16T09:04:53Z</time>
      </trkpt>
      <trkpt lat="50.47732" lon="3.0017">
        <ele>25.61</ele>
        <time>2017-07-16T09:05:01Z</time>
      </trkpt>
      <trkpt lat="50.47724" lon="3.00159">
        <ele>25.13</ele>
        <time>2017-07-16T09:05:09Z</time>
      </trkpt>
      <trkpt lat="50.47716" lon="3.00149">
        <ele>25.61</ele>
        <time>2017-07-16T09:05:17Z</time>
      </trkpt>
      <trkpt lat="50.47709" lon="3.00144">
        <ele>25.13</ele>
        <time>2017-07-16T09:05:25Z</time>
      </trkpt>
      <trkpt lat="50.47702" lon="3.00153">
        <ele>25.61</ele>
        <time>2017-07-16T09:05:38Z</time>
      </trkpt>
      <trkpt lat="50.47695" lon="3.00166">
        <ele>25.13</ele>
        <time>2017-07-16T09:05:47Z</time>
      </trkpt>
      <trkpt lat="50.47688" lon="3.00178">
        <ele>25.13</ele>
        <time>2017-07-16T09:05:55Z</time>
      </trkpt>
      <trkpt lat="50.47682" lon="3.0019">
        <ele>24.65</ele>
        <time>2017-07-16T09:06:04Z</time>
      </trkpt>
      <trkpt lat="50.47675" lon="3.00196">
        <ele>25.13</ele>
        <time>2017-07-16T09:06:16Z</time>
      </trkpt>
      <trkpt lat="50.4767" lon="3.00209">
        <ele>25.13</ele>
        <time>2017-07-16T09:06:23Z</time>
      </trkpt>
      <trkpt lat="50.47661" lon="3.00215">
        <ele>24.65</ele>
        <time>2017-07-16T09:06:31Z</time>
      </trkpt>
      <trkpt lat="50.4765" lon="3.00214">
        <ele>25.13</ele>
        <time>2017-07-16T09:06:39Z</time>
      </trkpt>
      <trkpt lat="50.4764" lon="3.00208">
        <ele>25.13</ele>
        <time>2017-07-16T09:06:47Z</time>
      </trkpt>
      <trkpt lat="50.47632" lon="3.00197">
        <ele>25.13</ele>
        <time>2017-07-16T09:06:54Z</time>
      </trkpt>
      <trkpt lat="50.47624" lon="3.00187">
        <ele>24.17</ele>
        <time>2017-07-16T09:07:02Z</time>
      </trkpt>
      <trkpt lat="50.47616" lon="3.00177">
        <ele>24.65</ele>
        <time>2017-07-16T09:07:10Z</time>
      </trkpt>
      <trkpt lat="50.47609" lon="3.00166">
        <ele>24.65</ele>
        <time>2017-07-16T09:07:18Z</time>
      </trkpt>
      <trkpt lat="50.47601" lon="3.00157">
        <ele>24.65</ele>
        <time>2017-07-16T09:07:26Z</time>
      </trkpt>
      <trkpt lat="50.47594" lon="3.00146">
        <ele>24.17</ele>
        <time>2017-07-16T09:07:34Z</time>
      </trkpt>
      <trkpt lat="50.47586" lon="3.00138">
        <ele>24.17</ele>
        <time>2017-07-16T09:07:42Z</time>
      </trkpt>
      <trkpt lat="50.47578" lon="3.0013">
        <ele>24.17</ele>
        <time>2017-07-16T09:08:01Z</time>
      </trkpt>
      <trkpt lat="50.4757" lon="3.0012">
        <ele>24.17</ele>
        <time>2017-07-16T09:08:09Z</time>
      </trkpt>
      <trkpt lat="50.47564" lon="3.00106">
        <ele>24.65</ele>
        <time>2017-07-16T09:08:22Z</time>
      </trkpt>
      <trkpt lat="50.47554" lon="3.00098">
        <ele>23.69</ele>
        <time>2017-07-16T09:08:31Z</time>
      </trkpt>
      <trkpt lat="50.47548" lon="3.00087">
        <ele>24.17</ele>
        <time>2017-07-16T09:08:40Z</time>
      </trkpt>
      <trkpt lat="50.4754" lon="3.00076">
        <ele>24.17</ele>
        <time>2017-07-16T09:08:49Z</time>
      </trkpt>
      <trkpt lat="50.4753" lon="3.00073">
        <ele>24.17</ele>
        <time>2017-07-16T09:08:58Z</time>
      </trkpt>
      <trkpt lat="50.4752" lon="3.00074">
        <ele>24.17</ele>
        <time>2017-07-16T09:09:07Z</time>
      </trkpt>
      <trkpt lat="50.47514" lon="3.00085">
        <ele>23.69</ele>
        <time>2017-07-16T09:09:16Z</time>
      </trkpt>
      <trkpt lat="50.47507" lon="3.00095">
        <ele>23.21</ele>
        <time>2017-07-16T09:09:25Z</time>
      </trkpt>
      <trkpt lat="50.47499" lon="3.00108">
        <ele>23.21</ele>
        <time>2017-07-16T09:09:33Z</time>
      </trkpt>
      <trkpt lat="50.47492" lon="3.0012">
        <ele>23.21</ele>
        <time>2017-07-16T09:09:41Z</time>
      </trkpt>
      <trkpt lat="50.47485" lon="3.00131">
        <ele>24.17</ele>
        <time>2017-07-16T09:10:06Z</time>
      </trkpt>
      <trkpt lat="50.47478" lon="3.00128">
        <ele>23.69</ele>
        <time>2017-07-16T09:11:29Z</time>
      </trkpt>
      <trkpt lat="50.47475" lon="3.00114">
        <ele>23.69</ele>
        <time>2017-07-16T09:11:38Z</time>
      </trkpt>
      <trkpt lat="50.47469" lon="3.00107">
        <ele>24.17</ele>
        <time>2017-07-16T09:11:52Z</time>
      </trkpt>
      <trkpt lat="50.47466" lon="3.00102">
        <ele>24.17</ele>
        <time>2017-07-16T09:12:52Z</time>
      </trkpt>
      <trkpt lat="50.47459" lon="3.00094">
        <ele>24.17</ele>
        <time>2017-07-16T09:13:27Z</time>
      </trkpt>
      <trkpt lat="50.47451" lon="3.00092">
        <ele>23.69</ele>
        <time>2017-07-16T09:13:39Z</time>
      </trkpt>
      <trkpt lat="50.47444" lon="3.00102">
        <ele>24.17</ele>
        <time>2017-07-16T09:13:50Z</time>
      </trkpt>
      <trkpt lat="50.47435" lon="3.00102">
        <ele>24.17</ele>
        <time>2017-07-16T09:14:00Z</time>
      </trkpt>
      <trkpt lat="50.47426" lon="3.00103">
        <ele>24.17</ele>
        <time>2017-07-16T09:14:21Z</time>
      </trkpt>
      <trkpt lat="50.47424" lon="3.00114">
        <ele>23.69</ele>
        <time>2017-07-16T09:14:40Z</time>
      </trkpt>
      <trkpt lat="50.47421" lon="3.00127">
        <ele>24.17</ele>
        <time>2017-07-16T09:14:51Z</time>
      </trkpt>
      <trkpt lat="50.47416" lon="3.00141">
        <ele>24.17</ele>
        <time>2017-07-16T09:14:59Z</time>
      </trkpt>
      <trkpt lat="50.4741" lon="3.00154">
        <ele>24.17</ele>
        <time>2017-07-16T09:15:08Z</time>
      </trkpt>
      <trkpt lat="50.47406" lon="3.00166">
        <ele>24.17</ele>
        <time>2017-07-16T09:15:14Z</time>
      </trkpt>
      <trkpt lat="50.47402" lon="3.0018">
        <ele>24.17</ele>
        <time>2017-07-16T09:15:22Z</time>
      </trkpt>
      <trkpt lat="50.47396" lon="3.00193">
        <ele>23.69</ele>
        <time>2017-07-16T09:15:33Z</time>
      </trkpt>
      <trkpt lat="50.47391" lon="3.00207">
        <ele>24.17</ele>
        <time>2017-07-16T09:15:41Z</time>
      </trkpt>
      <trkpt lat="50.47386" lon="3.00221">
        <ele>23.69</ele>
        <time>2017-07-16T09:15:50Z</time>
      </trkpt>
      <trkpt lat="50.47379" lon="3.00232">
        <ele>23.69</ele>
        <time>2017-07-16T09:15:58Z</time>
      </trkpt>
      <trkpt lat="50.47371" lon="3.00241">
        <ele>23.69</ele>
        <time>2017-07-16T09:16:09Z</time>
      </trkpt>
      <trkpt lat="50.47365" lon="3.00253">
        <ele>24.17</ele>
        <time>2017-07-16T09:16:17Z</time>
      </trkpt>
      <trkpt lat="50.47357" lon="3.00264">
        <ele>24.17</ele>
        <time>2017-07-16T09:16:25Z</time>
      </trkpt>
      <trkpt lat="50.47348" lon="3.00273">
        <ele>24.17</ele>
        <time>2017-07-16T09:16:35Z</time>
      </trkpt>
      <trkpt lat="50.47337" lon="3.00281">
        <ele>23.69</ele>
        <time>2017-07-16T09:16:45Z</time>
      </trkpt>
      <trkpt lat="50.47327" lon="3.00286">
        <ele>23.69</ele>
        <time>2017-07-16T09:16:54Z</time>
      </trkpt>
      <trkpt lat="50.47316" lon="3.00287">
        <ele>23.69</ele>
        <time>2017-07-16T09:17:30Z</time>
      </trkpt>
      <trkpt lat="50.47307" lon="3.00291">
        <ele>23.69</ele>
        <time>2017-07-16T09:17:38Z</time>
      </trkpt>
      <trkpt lat="50.47297" lon="3.0029">
        <ele>24.17</ele>
        <time>2017-07-16T09:17:47Z</time>
      </trkpt>
      <trkpt lat="50.47287" lon="3.00286">
        <ele>24.17</ele>
        <time>2017-07-16T09:17:56Z</time>
      </trkpt>
      <trkpt lat="50.47278" lon="3.00282">
        <ele>23.69</ele>
        <time>2017-07-16T09:18:05Z</time>
      </trkpt>
      <trkpt lat="50.47269" lon="3.00276">
        <ele>24.17</ele>
        <time>2017-07-16T09:18:13Z</time>
      </trkpt>
      <trkpt lat="50.47258" lon="3.00273">
        <ele>24.65</ele>
        <time>2017-07-16T09:18:20Z</time>
      </trkpt>
      <trkpt lat="50.47247" lon="3.0027">
        <ele>24.65</ele>
        <time>2017-07-16T09:18:28Z</time>
      </trkpt>
      <trkpt lat="50.47236" lon="3.00266">
        <ele>24.65</ele>
        <time>2017-07-16T09:18:36Z</time>
      </trkpt>
      <trkpt lat="50.47227" lon="3.00261">
        <ele>24.65</ele>
        <time>2017-07-16T09:18:45Z</time>
      </trkpt>
      <trkpt lat="50.47217" lon="3.00257">
        <ele>24.65</ele>
        <time>2017-07-16T09:18:54Z</time>
      </trkpt>
      <trkpt lat="50.47206" lon="3.00254">
        <ele>24.65</ele>
        <time>2017-07-16T09:19:02Z</time>
      </trkpt>
      <trkpt lat="50.47197" lon="3.00251">
        <ele>24.65</ele>
        <time>2017-07-16T09:19:10Z</time>
      </trkpt>
      <trkpt lat="50.47187" lon="3.00247">
        <ele>24.65</ele>
        <time>2017-07-16T09:19:17Z</time>
      </trkpt>
      <trkpt lat="50.47178" lon="3.00244">
        <ele>24.65</ele>
        <time>2017-07-16T09:19:24Z</time>
      </trkpt>
      <trkpt lat="50.47167" lon="3.00241">
        <ele>24.65</ele>
        <time>2017-07-16T09:19:34Z</time>
      </trkpt>
      <trkpt lat="50.47157" lon="3.00237">
        <ele>24.65</ele>
        <time>2017-07-16T09:19:42Z</time>
      </trkpt>
      <trkpt lat="50.47148" lon="3.00234">
        <ele>24.65</ele>
        <time>2017-07-16T09:19:49Z</time>
      </trkpt>
      <trkpt lat="50.4714" lon="3.00231">
        <ele>25.13</ele>
        <time>2017-07-16T09:20:12Z</time>
      </trkpt>
      <trkpt lat="50.47129" lon="3.00229">
        <ele>25.13</ele>
        <time>2017-07-16T09:20:21Z</time>
      </trkpt>
      <trkpt lat="50.4712" lon="3.00223">
        <ele>25.13</ele>
        <time>2017-07-16T09:20:31Z</time>
      </trkpt>
      <trkpt lat="50.47111" lon="3.00215">
        <ele>25.13</ele>
        <time>2017-07-16T09:20:40Z</time>
      </trkpt>
      <trkpt lat="50.471" lon="3.00212">
        <ele>25.13</ele>
        <time>2017-07-16T09:20:48Z</time>
      </trkpt>
      <trkpt lat="50.47089" lon="3.00209">
        <ele>25.13</ele>
        <time>2017-07-16T09:20:56Z</time>
      </trkpt>
      <trkpt lat="50.47077" lon="3.00207">
        <ele>25.61</ele>
        <time>2017-07-16T09:21:04Z</time>
      </trkpt>
      <trkpt lat="50.47065" lon="3.00203">
        <ele>25.13</ele>
        <time>2017-07-16T09:21:13Z</time>
      </trkpt>
      <trkpt lat="50.47055" lon="3.00195">
        <ele>25.13</ele>
        <time>2017-07-16T09:21:21Z</time>
      </trkpt>
      <trkpt lat="50.47046" lon="3.00187">
        <ele>25.61</ele>
        <time>2017-07-16T09:21:29Z</time>
      </trkpt>
      <trkpt lat="50.47038" lon="3.00181">
        <ele>25.61</ele>
        <time>2017-07-16T09:21:36Z</time>
      </trkpt>
      <trkpt lat="50.47029" lon="3.00172">
        <ele>25.13</ele>
        <time>2017-07-16T09:21:45Z</time>
      </trkpt>
      <trkpt lat="50.47021" lon="3.00162">
        <ele>25.61</ele>
        <time>2017-07-16T09:21:53Z</time>
      </trkpt>
      <trkpt lat="50.47011" lon="3.00157">
        <ele>25.61</ele>
        <time>2017-07-16T09:22:00Z</time>
      </trkpt>
      <trkpt lat="50.47001" lon="3.00155">
        <ele>26.09</ele>
        <time>2017-07-16T09:22:08Z</time>
      </trkpt>
      <trkpt lat="50.46991" lon="3.00155">
        <ele>25.61</ele>
        <time>2017-07-16T09:22:16Z</time>
      </trkpt>
      <trkpt lat="50.46982" lon="3.00156">
        <ele>25.61</ele>
        <time>2017-07-16T09:22:24Z</time>
      </trkpt>
      <trkpt lat="50.46969" lon="3.00158">
        <ele>25.61</ele>
        <time>2017-07-16T09:22:38Z</time>
      </trkpt>
      <trkpt lat="50.46959" lon="3.0016">
        <ele>26.09</ele>
        <time>2017-07-16T09:22:45Z</time>
      </trkpt>
      <trkpt lat="50.46946" lon="3.00163">
        <ele>26.09</ele>
        <time>2017-07-16T09:22:56Z</time>
      </trkpt>
      <trkpt lat="50.46934" lon="3.00165">
        <ele>25.61</ele>
        <time>2017-07-16T09:23:07Z</time>
      </trkpt>
      <trkpt lat="50.46922" lon="3.00166">
        <ele>26.09</ele>
        <time>2017-07-16T09:23:18Z</time>
      </trkpt>
      <trkpt lat="50.4691" lon="3.00168">
        <ele>26.09</ele>
        <time>2017-07-16T09:23:27Z</time>
      </trkpt>
      <trkpt lat="50.469" lon="3.0017">
        <ele>26.09</ele>
        <time>2017-07-16T09:23:34Z</time>
      </trkpt>
      <trkpt lat="50.4689" lon="3.00172">
        <ele>26.09</ele>
        <time>2017-07-16T09:23:42Z</time>
      </trkpt>
      <trkpt lat="50.46879" lon="3.00174">
        <ele>26.09</ele>
        <time>2017-07-16T09:23:56Z</time>
      </trkpt>
      <trkpt lat="50.46869" lon="3.00177">
        <ele>26.09</ele>
        <time>2017-07-16T09:24:06Z</time>
      </trkpt>
      <trkpt lat="50.46857" lon="3.00175">
        <ele>24.17</ele>
        <time>2017-07-16T09:24:16Z</time>
      </trkpt>
      <trkpt lat="50.46852" lon="3.00163">
        <ele>23.69</ele>
        <time>2017-07-16T09:24:36Z</time>
      </trkpt>
      <trkpt lat="50.46848" lon="3.00147">
        <ele>23.69</ele>
        <time>2017-07-16T09:25:33Z</time>
      </trkpt>
      <trkpt lat="50.46845" lon="3.00131">
        <ele>23.21</ele>
        <time>2017-07-16T09:25:44Z</time>
      </trkpt>
      <trkpt lat="50.46843" lon="3.00116">
        <ele>23.21</ele>
        <time>2017-07-16T09:25:52Z</time>
      </trkpt>
      <trkpt lat="50.46843" lon="3.00101">
        <ele>23.21</ele>
        <time>2017-07-16T09:25:59Z</time>
      </trkpt>
      <trkpt lat="50.4684" lon="3.00085">
        <ele>23.21</ele>
        <time>2017-07-16T09:26:07Z</time>
      </trkpt>
      <trkpt lat="50.46838" lon="3.00069">
        <ele>22.73</ele>
        <time>2017-07-16T09:26:15Z</time>
      </trkpt>
      <trkpt lat="50.46839" lon="3.00052">
        <ele>22.73</ele>
        <time>2017-07-16T09:26:25Z</time>
      </trkpt>
      <trkpt lat="50.46843" lon="3.0004">
        <ele>22.25</ele>
        <time>2017-07-16T09:26:34Z</time>
      </trkpt>
      <trkpt lat="50.46851" lon="3.00032">
        <ele>22.73</ele>
        <time>2017-07-16T09:26:41Z</time>
      </trkpt>
      <trkpt lat="50.46848" lon="3.00018">
        <ele>22.73</ele>
        <time>2017-07-16T09:26:50Z</time>
      </trkpt>
      <trkpt lat="50.46847" lon="2.99997">
        <ele>22.73</ele>
        <time>2017-07-16T09:27:03Z</time>
      </trkpt>
      <trkpt lat="50.46851" lon="2.99982">
        <ele>22.25</ele>
        <time>2017-07-16T09:27:12Z</time>
      </trkpt>
      <trkpt lat="50.46853" lon="2.99968">
        <ele>21.77</ele>
        <time>2017-07-16T09:27:19Z</time>
      </trkpt>
      <trkpt lat="50.46857" lon="2.99952">
        <ele>22.25</ele>
        <time>2017-07-16T09:27:28Z</time>
      </trkpt>
      <trkpt lat="50.4686" lon="2.99937">
        <ele>22.25</ele>
        <time>2017-07-16T09:27:35Z</time>
      </trkpt>
      <trkpt lat="50.46864" lon="2.99922">
        <ele>22.25</ele>
        <time>2017-07-16T09:27:42Z</time>
      </trkpt>
      <trkpt lat="50.46866" lon="2.99908">
        <ele>22.25</ele>
        <time>2017-07-16T09:27:49Z</time>
      </trkpt>
      <trkpt lat="50.46869" lon="2.99892">
        <ele>22.73</ele>
        <time>2017-07-16T09:27:58Z</time>
      </trkpt>
      <trkpt lat="50.4687" lon="2.99877">
        <ele>22.25</ele>
        <time>2017-07-16T09:28:05Z</time>
      </trkpt>
      <trkpt lat="50.4687" lon="2.99862">
        <ele>22.25</ele>
        <time>2017-07-16T09:28:13Z</time>
      </trkpt>
      <trkpt lat="50.46869" lon="2.99846">
        <ele>22.25</ele>
        <time>2017-07-16T09:28:21Z</time>
      </trkpt>
      <trkpt lat="50.4687" lon="2.99828">
        <ele>21.77</ele>
        <time>2017-07-16T09:28:28Z</time>
      </trkpt>
      <trkpt lat="50.46869" lon="2.99812">
        <ele>22.73</ele>
        <time>2017-07-16T09:28:36Z</time>
      </trkpt>
      <trkpt lat="50.46865" lon="2.99797">
        <ele>22.25</ele>
        <time>2017-07-16T09:28:44Z</time>
      </trkpt>
      <trkpt lat="50.46862" lon="2.99783">
        <ele>22.73</ele>
        <time>2017-07-16T09:28:51Z</time>
      </trkpt>
      <trkpt lat="50.46857" lon="2.99767">
        <ele>22.73</ele>
        <time>2017-07-16T09:28:59Z</time>
      </trkpt>
      <trkpt lat="50.46856" lon="2.99753">
        <ele>22.73</ele>
        <time>2017-07-16T09:29:06Z</time>
      </trkpt>
      <trkpt lat="50.4685" lon="2.9974">
        <ele>22.73</ele>
        <time>2017-07-16T09:29:14Z</time>
      </trkpt>
      <trkpt lat="50.46844" lon="2.99727">
        <ele>22.73</ele>
        <time>2017-07-16T09:29:25Z</time>
      </trkpt>
      <trkpt lat="50.46844" lon="2.9971">
        <ele>22.73</ele>
        <time>2017-07-16T09:29:32Z</time>
      </trkpt>
      <trkpt lat="50.46841" lon="2.99694">
        <ele>23.21</ele>
        <time>2017-07-16T09:29:41Z</time>
      </trkpt>
      <trkpt lat="50.4684" lon="2.99678">
        <ele>23.21</ele>
        <time>2017-07-16T09:29:49Z</time>
      </trkpt>
      <trkpt lat="50.46845" lon="2.99663">
        <ele>22.73</ele>
        <time>2017-07-16T09:29:57Z</time>
      </trkpt>
      <trkpt lat="50.46848" lon="2.99648">
        <ele>22.73</ele>
        <time>2017-07-16T09:30:06Z</time>
      </trkpt>
      <trkpt lat="50.46854" lon="2.99636">
        <ele>22.73</ele>
        <time>2017-07-16T09:30:14Z</time>
      </trkpt>
      <trkpt lat="50.46858" lon="2.99622">
        <ele>22.25</ele>
        <time>2017-07-16T09:30:23Z</time>
      </trkpt>
      <trkpt lat="50.46863" lon="2.99609">
        <ele>22.73</ele>
        <time>2017-07-16T09:30:30Z</time>
      </trkpt>
      <trkpt lat="50.46863" lon="2.99588">
        <ele>22.73</ele>
        <time>2017-07-16T09:30:43Z</time>
      </trkpt>
      <trkpt lat="50.46864" lon="2.99567">
        <ele>22.73</ele>
        <time>2017-07-16T09:30:51Z</time>
      </trkpt>
      <trkpt lat="50.46866" lon="2.99551">
        <ele>22.73</ele>
        <time>2017-07-16T09:30:59Z</time>
      </trkpt>
      <trkpt lat="50.46868" lon="2.99534">
        <ele>22.73</ele>
        <time>2017-07-16T09:31:07Z</time>
      </trkpt>
      <trkpt lat="50.46872" lon="2.99518">
        <ele>22.73</ele>
        <time>2017-07-16T09:31:16Z</time>
      </trkpt>
      <trkpt lat="50.46871" lon="2.99505">
        <ele>23.21</ele>
        <time>2017-07-16T09:31:27Z</time>
      </trkpt>
      <trkpt lat="50.46866" lon="2.99492">
        <ele>22.73</ele>
        <time>2017-07-16T09:31:36Z</time>
      </trkpt>
      <trkpt lat="50.46875" lon="2.99478">
        <ele>22.73</ele>
        <time>2017-07-16T09:31:55Z</time>
      </trkpt>
      <trkpt lat="50.4688" lon="2.99463">
        <ele>23.69</ele>
        <time>2017-07-16T09:32:02Z</time>
      </trkpt>
      <trkpt lat="50.46882" lon="2.99448">
        <ele>22.73</ele>
        <time>2017-07-16T09:32:10Z</time>
      </trkpt>
      <trkpt lat="50.46884" lon="2.99431">
        <ele>22.73</ele>
        <time>2017-07-16T09:32:18Z</time>
      </trkpt>
      <trkpt lat="50.46887" lon="2.99416">
        <ele>22.73</ele>
        <time>2017-07-16T09:32:26Z</time>
      </trkpt>
      <trkpt lat="50.46887" lon="2.99399">
        <ele>23.21</ele>
        <time>2017-07-16T09:32:34Z</time>
      </trkpt>
      <trkpt lat="50.46888" lon="2.99382">
        <ele>22.73</ele>
        <time>2017-07-16T09:32:43Z</time>
      </trkpt>
      <trkpt lat="50.46891" lon="2.99366">
        <ele>22.25</ele>
        <time>2017-07-16T09:32:51Z</time>
      </trkpt>
      <trkpt lat="50.46892" lon="2.99347">
        <ele>22.73</ele>
        <time>2017-07-16T09:33:02Z</time>
      </trkpt>
      <trkpt lat="50.46893" lon="2.99331">
        <ele>22.25</ele>
        <time>2017-07-16T09:33:11Z</time>
      </trkpt>
      <trkpt lat="50.46892" lon="2.99315">
        <ele>22.73</ele>
        <time>2017-07-16T09:33:18Z</time>
      </trkpt>
      <trkpt lat="50.46888" lon="2.99298">
        <ele>22.25</ele>
        <time>2017-07-16T09:33:25Z</time>
      </trkpt>
      <trkpt lat="50.46884" lon="2.99279">
        <ele>22.73</ele>
        <time>2017-07-16T09:33:34Z</time>
      </trkpt>
      <trkpt lat="50.46878" lon="2.99263">
        <ele>22.73</ele>
        <time>2017-07-16T09:33:43Z</time>
      </trkpt>
      <trkpt lat="50.46873" lon="2.99249">
        <ele>23.21</ele>
        <time>2017-07-16T09:33:51Z</time>
      </trkpt>
      <trkpt lat="50.46865" lon="2.99239">
        <ele>23.21</ele>
        <time>2017-07-16T09:33:58Z</time>
      </trkpt>
      <trkpt lat="50.46857" lon="2.99227">
        <ele>23.21</ele>
        <time>2017-07-16T09:34:06Z</time>
      </trkpt>
      <trkpt lat="50.4685" lon="2.99214">
        <ele>23.21</ele>
        <time>2017-07-16T09:34:14Z</time>
      </trkpt>
      <trkpt lat="50.46843" lon="2.99203">
        <ele>23.21</ele>
        <time>2017-07-16T09:34:22Z</time>
      </trkpt>
      <trkpt lat="50.46834" lon="2.9919">
        <ele>23.69</ele>
        <time>2017-07-16T09:34:31Z</time>
      </trkpt>
      <trkpt lat="50.46834" lon="2.99173">
        <ele>23.69</ele>
        <time>2017-07-16T09:34:41Z</time>
      </trkpt>
      <trkpt lat="50.46831" lon="2.99156">
        <ele>23.69</ele>
        <time>2017-07-16T09:34:51Z</time>
      </trkpt>
      <trkpt lat="50.46826" lon="2.99141">
        <ele>23.69</ele>
        <time>2017-07-16T09:35:04Z</time>
      </trkpt>
      <trkpt lat="50.46823" lon="2.99127">
        <ele>23.69</ele>
        <time>2017-07-16T09:36:17Z</time>
      </trkpt>
      <trkpt lat="50.4682" lon="2.99113">
        <ele>23.69</ele>
        <time>2017-07-16T09:36:29Z</time>
      </trkpt>
      <trkpt lat="50.46815" lon="2.991">
        <ele>23.69</ele>
        <time>2017-07-16T09:36:41Z</time>
      </trkpt>
      <trkpt lat="50.46808" lon="2.99089">
        <ele>23.69</ele>
        <time>2017-07-16T09:36:51Z</time>
      </trkpt>
      <trkpt lat="50.46803" lon="2.99078">
        <ele>23.21</ele>
        <time>2017-07-16T09:37:09Z</time>
      </trkpt>
      <trkpt lat="50.46797" lon="2.99063">
        <ele>23.69</ele>
        <time>2017-07-16T09:37:20Z</time>
      </trkpt>
      <trkpt lat="50.46805" lon="2.9907">
        <ele>23.69</ele>
        <time>2017-07-16T09:37:38Z</time>
      </trkpt>
      <trkpt lat="50.46813" lon="2.99073">
        <ele>23.69</ele>
        <time>2017-07-16T09:37:51Z</time>
      </trkpt>
      <trkpt lat="50.46815" lon="2.99063">
        <ele>23.69</ele>
        <time>2017-07-16T09:38:14Z</time>
      </trkpt>
      <trkpt lat="50.46822" lon="2.99051">
        <ele>24.17</ele>
        <time>2017-07-16T09:38:27Z</time>
      </trkpt>
      <trkpt lat="50.4683" lon="2.99042">
        <ele>23.69</ele>
        <time>2017-07-16T09:38:35Z</time>
      </trkpt>
      <trkpt lat="50.46834" lon="2.99029">
        <ele>23.21</ele>
        <time>2017-07-16T09:38:50Z</time>
      </trkpt>
      <trkpt lat="50.46833" lon="2.99013">
        <ele>23.21</ele>
        <time>2017-07-16T09:38:59Z</time>
      </trkpt>
      <trkpt lat="50.46827" lon="2.98997">
        <ele>23.21</ele>
        <time>2017-07-16T09:39:07Z</time>
      </trkpt>
      <trkpt lat="50.46823" lon="2.9898">
        <ele>22.73</ele>
        <time>2017-07-16T09:39:15Z</time>
      </trkpt>
      <trkpt lat="50.46821" lon="2.98965">
        <ele>22.73</ele>
        <time>2017-07-16T09:39:22Z</time>
      </trkpt>
      <trkpt lat="50.46816" lon="2.98952">
        <ele>23.21</ele>
        <time>2017-07-16T09:39:29Z</time>
      </trkpt>
      <trkpt lat="50.46811" lon="2.98936">
        <ele>22.73</ele>
        <time>2017-07-16T09:39:37Z</time>
      </trkpt>
      <trkpt lat="50.46808" lon="2.98919">
        <ele>22.73</ele>
        <time>2017-07-16T09:39:46Z</time>
      </trkpt>
      <trkpt lat="50.46803" lon="2.98903">
        <ele>23.21</ele>
        <time>2017-07-16T09:39:54Z</time>
      </trkpt>
      <trkpt lat="50.46797" lon="2.98888">
        <ele>22.73</ele>
        <time>2017-07-16T09:40:01Z</time>
      </trkpt>
      <trkpt lat="50.46787" lon="2.98874">
        <ele>22.73</ele>
        <time>2017-07-16T09:40:15Z</time>
      </trkpt>
      <trkpt lat="50.4678" lon="2.98862">
        <ele>23.21</ele>
        <time>2017-07-16T09:40:24Z</time>
      </trkpt>
      <trkpt lat="50.46775" lon="2.98851">
        <ele>23.21</ele>
        <time>2017-07-16T09:40:53Z</time>
      </trkpt>
      <trkpt lat="50.46773" lon="2.98848">
        <ele>23.69</ele>
        <time>2017-07-16T09:43:44Z</time>
      </trkpt>
      <trkpt lat="50.46772" lon="2.98829">
        <ele>23.69</ele>
        <time>2017-07-16T09:43:58Z</time>
      </trkpt>
      <trkpt lat="50.4677" lon="2.98812">
        <ele>23.69</ele>
        <time>2017-07-16T09:44:10Z</time>
      </trkpt>
      <trkpt lat="50.46766" lon="2.98795">
        <ele>23.69</ele>
        <time>2017-07-16T09:44:19Z</time>
      </trkpt>
      <trkpt lat="50.46762" lon="2.98779">
        <ele>24.17</ele>
        <time>2017-07-16T09:44:34Z</time>
      </trkpt>
      <trkpt lat="50.46759" lon="2.98761">
        <ele>24.17</ele>
        <time>2017-07-16T09:44:45Z</time>
      </trkpt>
      <trkpt lat="50.46753" lon="2.98729">
        <ele>24.17</ele>
        <time>2017-07-16T09:44:57Z</time>
      </trkpt>
      <trkpt lat="50.46749" lon="2.98708">
        <ele>24.17</ele>
        <time>2017-07-16T09:45:11Z</time>
      </trkpt>
      <trkpt lat="50.4675" lon="2.98691">
        <ele>23.69</ele>
        <time>2017-07-16T09:45:21Z</time>
      </trkpt>
      <trkpt lat="50.46753" lon="2.98671">
        <ele>24.17</ele>
        <time>2017-07-16T09:45:33Z</time>
      </trkpt>
      <trkpt lat="50.4675" lon="2.98651">
        <ele>23.69</ele>
        <time>2017-07-16T09:45:41Z</time>
      </trkpt>
      <trkpt lat="50.4675" lon="2.98633">
        <ele>23.69</ele>
        <time>2017-07-16T09:45:50Z</time>
      </trkpt>
      <trkpt lat="50.46751" lon="2.98617">
        <ele>23.21</ele>
        <time>2017-07-16T09:45:57Z</time>
      </trkpt>
      <trkpt lat="50.46751" lon="2.98598">
        <ele>23.21</ele>
        <time>2017-07-16T09:46:06Z</time>
      </trkpt>
      <trkpt lat="50.46754" lon="2.9858">
        <ele>23.21</ele>
        <time>2017-07-16T09:46:13Z</time>
      </trkpt>
      <trkpt lat="50.46751" lon="2.98558">
        <ele>23.21</ele>
        <time>2017-07-16T09:46:21Z</time>
      </trkpt>
      <trkpt lat="50.46749" lon="2.9854">
        <ele>23.21</ele>
        <time>2017-07-16T09:46:30Z</time>
      </trkpt>
      <trkpt lat="50.46744" lon="2.98528">
        <ele>22.73</ele>
        <time>2017-07-16T09:47:08Z</time>
      </trkpt>
      <trkpt lat="50.46736" lon="2.98521">
        <ele>23.69</ele>
        <time>2017-07-16T09:47:20Z</time>
      </trkpt>
      <trkpt lat="50.46721" lon="2.9852">
        <ele>24.17</ele>
        <time>2017-07-16T09:47:37Z</time>
      </trkpt>
      <trkpt lat="50.46712" lon="2.98508">
        <ele>23.69</ele>
        <time>2017-07-16T09:47:50Z</time>
      </trkpt>
      <trkpt lat="50.46705" lon="2.98496">
        <ele>23.69</ele>
        <time>2017-07-16T09:47:58Z</time>
      </trkpt>
      <trkpt lat="50.46697" lon="2.98481">
        <ele>23.69</ele>
        <time>2017-07-16T09:48:10Z</time>
      </trkpt>
      <trkpt lat="50.46687" lon="2.98464">
        <ele>23.21</ele>
        <time>2017-07-16T09:48:18Z</time>
      </trkpt>
      <trkpt lat="50.46675" lon="2.98436">
        <ele>23.21</ele>
        <time>2017-07-16T09:48:31Z</time>
      </trkpt>
      <trkpt lat="50.4667" lon="2.98419">
        <ele>23.21</ele>
        <time>2017-07-16T09:48:42Z</time>
      </trkpt>
      <trkpt lat="50.46663" lon="2.98404">
        <ele>23.21</ele>
        <time>2017-07-16T09:48:54Z</time>
      </trkpt>
      <trkpt lat="50.46649" lon="2.9839">
        <ele>23.21</ele>
        <time>2017-07-16T09:49:07Z</time>
      </trkpt>
      <trkpt lat="50.46642" lon="2.9838">
        <ele>22.73</ele>
        <time>2017-07-16T09:49:19Z</time>
      </trkpt>
      <trkpt lat="50.46634" lon="2.98365">
        <ele>23.21</ele>
        <time>2017-07-16T09:49:30Z</time>
      </trkpt>
      <trkpt lat="50.46625" lon="2.98348">
        <ele>22.73</ele>
        <time>2017-07-16T09:49:50Z</time>
      </trkpt>
      <trkpt lat="50.46606" lon="2.98325">
        <ele>21.29</ele>
        <time>2017-07-16T09:50:11Z</time>
      </trkpt>
      <trkpt lat="50.46597" lon="2.98326">
        <ele>21.29</ele>
        <time>2017-07-16T09:50:35Z</time>
      </trkpt>
      <trkpt lat="50.46585" lon="2.9833">
        <ele>21.77</ele>
        <time>2017-07-16T09:50:57Z</time>
      </trkpt>
      <trkpt lat="50.46578" lon="2.98351">
        <ele>21.77</ele>
        <time>2017-07-16T09:51:05Z</time>
      </trkpt>
      <trkpt lat="50.46566" lon="2.98374">
        <ele>22.25</ele>
        <time>2017-07-16T09:51:14Z</time>
      </trkpt>
      <trkpt lat="50.46552" lon="2.98398">
        <ele>21.77</ele>
        <time>2017-07-16T09:51:27Z</time>
      </trkpt>
      <trkpt lat="50.46541" lon="2.98425">
        <ele>22.25</ele>
        <time>2017-07-16T09:51:40Z</time>
      </trkpt>
      <trkpt lat="50.46531" lon="2.98445">
        <ele>21.77</ele>
        <time>2017-07-16T09:51:48Z</time>
      </trkpt>
      <trkpt lat="50.46526" lon="2.9846">
        <ele>22.25</ele>
        <time>2017-07-16T09:51:55Z</time>
      </trkpt>
      <trkpt lat="50.46521" lon="2.98472">
        <ele>22.25</ele>
        <time>2017-07-16T09:52:02Z</time>
      </trkpt>
      <trkpt lat="50.46515" lon="2.98485">
        <ele>22.25</ele>
        <time>2017-07-16T09:52:09Z</time>
      </trkpt>
      <trkpt lat="50.4651" lon="2.98501">
        <ele>22.25</ele>
        <time>2017-07-16T09:52:18Z</time>
      </trkpt>
      <trkpt lat="50.46504" lon="2.98515">
        <ele>22.25</ele>
        <time>2017-07-16T09:52:29Z</time>
      </trkpt>
      <trkpt lat="50.46495" lon="2.98527">
        <ele>22.25</ele>
        <time>2017-07-16T09:52:39Z</time>
      </trkpt>
      <trkpt lat="50.4649" lon="2.98543">
        <ele>22.25</ele>
        <time>2017-07-16T09:52:46Z</time>
      </trkpt>
      <trkpt lat="50.46488" lon="2.98563">
        <ele>22.25</ele>
        <time>2017-07-16T09:52:55Z</time>
      </trkpt>
      <trkpt lat="50.46485" lon="2.98579">
        <ele>22.25</ele>
        <time>2017-07-16T09:53:02Z</time>
      </trkpt>
      <trkpt lat="50.46474" lon="2.98583">
        <ele>22.25</ele>
        <time>2017-07-16T09:53:11Z</time>
      </trkpt>
      <trkpt lat="50.46464" lon="2.98587">
        <ele>21.77</ele>
        <time>2017-07-16T09:53:17Z</time>
      </trkpt>
      <trkpt lat="50.46453" lon="2.98594">
        <ele>21.77</ele>
        <time>2017-07-16T09:53:25Z</time>
      </trkpt>
      <trkpt lat="50.46444" lon="2.98607">
        <ele>22.25</ele>
        <time>2017-07-16T09:53:34Z</time>
      </trkpt>
      <trkpt lat="50.46435" lon="2.98626">
        <ele>23.21</ele>
        <time>2017-07-16T09:53:48Z</time>
      </trkpt>
      <trkpt lat="50.46426" lon="2.98647">
        <ele>22.73</ele>
        <time>2017-07-16T09:53:59Z</time>
      </trkpt>
      <trkpt lat="50.46419" lon="2.98661">
        <ele>23.21</ele>
        <time>2017-07-16T09:54:07Z</time>
      </trkpt>
      <trkpt lat="50.46409" lon="2.98677">
        <ele>23.21</ele>
        <time>2017-07-16T09:54:17Z</time>
      </trkpt>
      <trkpt lat="50.464" lon="2.98687">
        <ele>23.21</ele>
        <time>2017-07-16T09:54:25Z</time>
      </trkpt>
      <trkpt lat="50.46392" lon="2.98697">
        <ele>23.21</ele>
        <time>2017-07-16T09:54:33Z</time>
      </trkpt>
      <trkpt lat="50.46385" lon="2.98707">
        <ele>23.21</ele>
        <time>2017-07-16T09:54:40Z</time>
      </trkpt>
      <trkpt lat="50.46379" lon="2.98721">
        <ele>23.69</ele>
        <time>2017-07-16T09:54:55Z</time>
      </trkpt>
      <trkpt lat="50.4637" lon="2.98746">
        <ele>23.69</ele>
        <time>2017-07-16T09:55:10Z</time>
      </trkpt>
      <trkpt lat="50.46367" lon="2.98745">
        <ele>24.17</ele>
        <time>2017-07-16T09:55:52Z</time>
      </trkpt>
      <trkpt lat="50.46359" lon="2.98734">
        <ele>23.69</ele>
        <time>2017-07-16T09:56:02Z</time>
      </trkpt>
      <trkpt lat="50.4635" lon="2.98724">
        <ele>23.21</ele>
        <time>2017-07-16T09:56:12Z</time>
      </trkpt>
      <trkpt lat="50.46339" lon="2.98713">
        <ele>23.21</ele>
        <time>2017-07-16T09:56:24Z</time>
      </trkpt>
      <trkpt lat="50.46329" lon="2.987">
        <ele>22.25</ele>
        <time>2017-07-16T09:56:35Z</time>
      </trkpt>
      <trkpt lat="50.46317" lon="2.98686">
        <ele>22.73</ele>
        <time>2017-07-16T09:56:46Z</time>
      </trkpt>
      <trkpt lat="50.46299" lon="2.98671">
        <ele>22.73</ele>
        <time>2017-07-16T09:57:00Z</time>
      </trkpt>
      <trkpt lat="50.46287" lon="2.98656">
        <ele>22.25</ele>
        <time>2017-07-16T09:57:12Z</time>
      </trkpt>
      <trkpt lat="50.46275" lon="2.98643">
        <ele>21.77</ele>
        <time>2017-07-16T09:57:25Z</time>
      </trkpt>
      <trkpt lat="50.46264" lon="2.98628">
        <ele>21.29</ele>
        <time>2017-07-16T09:57:40Z</time>
      </trkpt>
      <trkpt lat="50.46249" lon="2.98607">
        <ele>20.32</ele>
        <time>2017-07-16T09:57:59Z</time>
      </trkpt>
      <trkpt lat="50.46228" lon="2.98585">
        <ele>20.32</ele>
        <time>2017-07-16T09:58:12Z</time>
      </trkpt>
      <trkpt lat="50.46218" lon="2.98567">
        <ele>20.32</ele>
        <time>2017-07-16T09:58:23Z</time>
      </trkpt>
      <trkpt lat="50.46208" lon="2.98551">
        <ele>19.84</ele>
        <time>2017-07-16T09:58:33Z</time>
      </trkpt>
      <trkpt lat="50.46199" lon="2.98533">
        <ele>19.36</ele>
        <time>2017-07-16T09:58:44Z</time>
      </trkpt>
      <trkpt lat="50.46188" lon="2.98522">
        <ele>19.84</ele>
        <time>2017-07-16T09:58:54Z</time>
      </trkpt>
      <trkpt lat="50.46175" lon="2.98507">
        <ele>17.92</ele>
        <time>2017-07-16T09:59:05Z</time>
      </trkpt>
      <trkpt lat="50.46156" lon="2.98488">
        <ele>19.84</ele>
        <time>2017-07-16T09:59:25Z</time>
      </trkpt>
      <trkpt lat="50.46143" lon="2.98485">
        <ele>20.81</ele>
        <time>2017-07-16T09:59:46Z</time>
      </trkpt>
      <trkpt lat="50.46124" lon="2.9849">
        <ele>21.29</ele>
        <time>2017-07-16T09:59:59Z</time>
      </trkpt>
      <trkpt lat="50.46114" lon="2.98505">
        <ele>21.29</ele>
        <time>2017-07-16T10:00:07Z</time>
      </trkpt>
      <trkpt lat="50.46107" lon="2.98521">
        <ele>21.77</ele>
        <time>2017-07-16T10:00:18Z</time>
      </trkpt>
      <trkpt lat="50.46105" lon="2.9854">
        <ele>21.77</ele>
        <time>2017-07-16T10:00:28Z</time>
      </trkpt>
      <trkpt lat="50.46115" lon="2.98549">
        <ele>21.29</ele>
        <time>2017-07-16T10:00:38Z</time>
      </trkpt>
      <trkpt lat="50.46122" lon="2.9856">
        <ele>21.77</ele>
        <time>2017-07-16T10:00:48Z</time>
      </trkpt>
      <trkpt lat="50.46121" lon="2.98575">
        <ele>22.25</ele>
        <time>2017-07-16T10:00:56Z</time>
      </trkpt>
      <trkpt lat="50.46125" lon="2.9858">
        <ele>22.25</ele>
        <time>2017-07-16T10:01:13Z</time>
      </trkpt>
      <trkpt lat="50.46133" lon="2.98585">
        <ele>22.25</ele>
        <time>2017-07-16T10:02:00Z</time>
      </trkpt>
      <trkpt lat="50.46143" lon="2.98592">
        <ele>22.25</ele>
        <time>2017-07-16T10:02:10Z</time>
      </trkpt>
      <trkpt lat="50.46152" lon="2.98599">
        <ele>22.25</ele>
        <time>2017-07-16T10:02:19Z</time>
      </trkpt>
      <trkpt lat="50.46161" lon="2.98606">
        <ele>22.73</ele>
        <time>2017-07-16T10:02:28Z</time>
      </trkpt>
      <trkpt lat="50.46171" lon="2.98613">
        <ele>22.25</ele>
        <time>2017-07-16T10:02:37Z</time>
      </trkpt>
      <trkpt lat="50.46173" lon="2.98629">
        <ele>22.25</ele>
        <time>2017-07-16T10:02:47Z</time>
      </trkpt>
      <trkpt lat="50.46173" lon="2.98648">
        <ele>21.77</ele>
        <time>2017-07-16T10:02:57Z</time>
      </trkpt>
      <trkpt lat="50.46177" lon="2.9867">
        <ele>22.25</ele>
        <time>2017-07-16T10:03:15Z</time>
      </trkpt>
      <trkpt lat="50.46179" lon="2.9868">
        <ele>22.25</ele>
        <time>2017-07-16T10:03:40Z</time>
      </trkpt>
      <trkpt lat="50.46172" lon="2.98694">
        <ele>22.25</ele>
        <time>2017-07-16T10:04:18Z</time>
      </trkpt>
      <trkpt lat="50.46167" lon="2.98711">
        <ele>22.73</ele>
        <time>2017-07-16T10:04:30Z</time>
      </trkpt>
      <trkpt lat="50.46161" lon="2.98728">
        <ele>22.73</ele>
        <time>2017-07-16T10:04:46Z</time>
      </trkpt>
      <trkpt lat="50.46158" lon="2.98749">
        <ele>22.25</ele>
        <time>2017-07-16T10:04:59Z</time>
      </trkpt>
      <trkpt lat="50.46158" lon="2.98764">
        <ele>21.77</ele>
        <time>2017-07-16T10:05:11Z</time>
      </trkpt>
      <trkpt lat="50.46152" lon="2.9879">
        <ele>22.25</ele>
        <time>2017-07-16T10:05:53Z</time>
      </trkpt>
      <trkpt lat="50.46152" lon="2.98791">
        <ele>20.81</ele>
        <time>2017-07-16T10:07:54Z</time>
      </trkpt>
      <trkpt lat="50.46149" lon="2.98793">
        <ele>27.05</ele>
        <time>2017-07-16T10:31:59Z</time>
      </trkpt>
      <trkpt lat="50.4615" lon="2.98795">
        <ele>79.45</ele>
        <time>2017-07-16T10:34:01Z</time>
      </trkpt>
      <trkpt lat="50.46154" lon="2.98791">
        <ele>-47.93</ele>
        <time>2017-07-16T10:34:06Z</time>
      </trkpt>
      <trkpt lat="50.4614" lon="2.98815">
        <ele>25.13</ele>
        <time>2017-07-16T10:34:58Z</time>
      </trkpt>
      <trkpt lat="50.46129" lon="2.98826">
        <ele>30.42</ele>
        <time>2017-07-16T10:35:10Z</time>
      </trkpt>
      <trkpt lat="50.46125" lon="2.98826">
        <ele>34.74</ele>
        <time>2017-07-16T10:35:41Z</time>
      </trkpt>
      <trkpt lat="50.46127" lon="2.98805">
        <ele>33.78</ele>
        <time>2017-07-16T10:35:52Z</time>
      </trkpt>
      <trkpt lat="50.46128" lon="2.98783">
        <ele>33.78</ele>
        <time>2017-07-16T10:36:06Z</time>
      </trkpt>
      <trkpt lat="50.46129" lon="2.98763">
        <ele>34.26</ele>
        <time>2017-07-16T10:36:19Z</time>
      </trkpt>
      <trkpt lat="50.46121" lon="2.98753">
        <ele>34.26</ele>
        <time>2017-07-16T10:36:29Z</time>
      </trkpt>
      <trkpt lat="50.46109" lon="2.98752">
        <ele>34.26</ele>
        <time>2017-07-16T10:36:45Z</time>
      </trkpt>
      <trkpt lat="50.46105" lon="2.98743">
        <ele>34.26</ele>
        <time>2017-07-16T10:37:05Z</time>
      </trkpt>
      <trkpt lat="50.46105" lon="2.98738">
        <ele>33.78</ele>
        <time>2017-07-16T10:38:26Z</time>
      </trkpt>
      <trkpt lat="50.46106" lon="2.9875">
        <ele>34.26</ele>
        <time>2017-07-16T10:38:48Z</time>
      </trkpt>
      <trkpt lat="50.46112" lon="2.98753">
        <ele>33.78</ele>
        <time>2017-07-16T10:39:08Z</time>
      </trkpt>
      <trkpt lat="50.46126" lon="2.98762">
        <ele>33.78</ele>
        <time>2017-07-16T10:39:17Z</time>
      </trkpt>
      <trkpt lat="50.46129" lon="2.98774">
        <ele>33.3</ele>
        <time>2017-07-16T10:39:25Z</time>
      </trkpt>
      <trkpt lat="50.4613" lon="2.98781">
        <ele>33.3</ele>
        <time>2017-07-16T10:39:44Z</time>
      </trkpt>
      <trkpt lat="50.46128" lon="2.98796">
        <ele>32.82</ele>
        <time>2017-07-16T10:39:52Z</time>
      </trkpt>
      <trkpt lat="50.46127" lon="2.98811">
        <ele>32.82</ele>
        <time>2017-07-16T10:40:01Z</time>
      </trkpt>
      <trkpt lat="50.46124" lon="2.98828">
        <ele>33.3</ele>
        <time>2017-07-16T10:40:13Z</time>
      </trkpt>
      <trkpt lat="50.4612" lon="2.98851">
        <ele>32.82</ele>
        <time>2017-07-16T10:40:31Z</time>
      </trkpt>
      <trkpt lat="50.46115" lon="2.98868">
        <ele>32.82</ele>
        <time>2017-07-16T10:40:44Z</time>
      </trkpt>
      <trkpt lat="50.46112" lon="2.98885">
        <ele>32.82</ele>
        <time>2017-07-16T10:40:53Z</time>
      </trkpt>
      <trkpt lat="50.46104" lon="2.98885">
        <ele>31.86</ele>
        <time>2017-07-16T10:41:04Z</time>
      </trkpt>
      <trkpt lat="50.46095" lon="2.9888">
        <ele>31.86</ele>
        <time>2017-07-16T10:41:12Z</time>
      </trkpt>
      <trkpt lat="50.46085" lon="2.98875">
        <ele>31.86</ele>
        <time>2017-07-16T10:41:20Z</time>
      </trkpt>
      <trkpt lat="50.46075" lon="2.9887">
        <ele>31.86</ele>
        <time>2017-07-16T10:41:33Z</time>
      </trkpt>
      <trkpt lat="50.46065" lon="2.98866">
        <ele>31.86</ele>
        <time>2017-07-16T10:41:41Z</time>
      </trkpt>
      <trkpt lat="50.46055" lon="2.98861">
        <ele>31.38</ele>
        <time>2017-07-16T10:41:51Z</time>
      </trkpt>
      <trkpt lat="50.46048" lon="2.98857">
        <ele>31.86</ele>
        <time>2017-07-16T10:42:04Z</time>
      </trkpt>
      <trkpt lat="50.46037" lon="2.98852">
        <ele>31.38</ele>
        <time>2017-07-16T10:42:14Z</time>
      </trkpt>
      <trkpt lat="50.46027" lon="2.98846">
        <ele>31.38</ele>
        <time>2017-07-16T10:42:22Z</time>
      </trkpt>
      <trkpt lat="50.46016" lon="2.98841">
        <ele>31.38</ele>
        <time>2017-07-16T10:42:31Z</time>
      </trkpt>
      <trkpt lat="50.46007" lon="2.98837">
        <ele>31.38</ele>
        <time>2017-07-16T10:42:39Z</time>
      </trkpt>
      <trkpt lat="50.45997" lon="2.98834">
        <ele>31.38</ele>
        <time>2017-07-16T10:42:48Z</time>
      </trkpt>
      <trkpt lat="50.45987" lon="2.98829">
        <ele>31.86</ele>
        <time>2017-07-16T10:42:57Z</time>
      </trkpt>
      <trkpt lat="50.45978" lon="2.98823">
        <ele>31.38</ele>
        <time>2017-07-16T10:43:06Z</time>
      </trkpt>
      <trkpt lat="50.45967" lon="2.98821">
        <ele>31.38</ele>
        <time>2017-07-16T10:43:15Z</time>
      </trkpt>
      <trkpt lat="50.45957" lon="2.98816">
        <ele>31.38</ele>
        <time>2017-07-16T10:43:24Z</time>
      </trkpt>
      <trkpt lat="50.45948" lon="2.98811">
        <ele>30.9</ele>
        <time>2017-07-16T10:43:33Z</time>
      </trkpt>
      <trkpt lat="50.45939" lon="2.98807">
        <ele>30.9</ele>
        <time>2017-07-16T10:43:42Z</time>
      </trkpt>
      <trkpt lat="50.4593" lon="2.98801">
        <ele>30.9</ele>
        <time>2017-07-16T10:43:50Z</time>
      </trkpt>
      <trkpt lat="50.45921" lon="2.98796">
        <ele>30.9</ele>
        <time>2017-07-16T10:44:00Z</time>
      </trkpt>
      <trkpt lat="50.45916" lon="2.98782">
        <ele>30.9</ele>
        <time>2017-07-16T10:44:12Z</time>
      </trkpt>
      <trkpt lat="50.4592" lon="2.98768">
        <ele>31.86</ele>
        <time>2017-07-16T10:44:20Z</time>
      </trkpt>
      <trkpt lat="50.45923" lon="2.98753">
        <ele>32.34</ele>
        <time>2017-07-16T10:44:28Z</time>
      </trkpt>
      <trkpt lat="50.45927" lon="2.98739">
        <ele>32.34</ele>
        <time>2017-07-16T10:44:35Z</time>
      </trkpt>
      <trkpt lat="50.45927" lon="2.98719">
        <ele>31.86</ele>
        <time>2017-07-16T10:44:42Z</time>
      </trkpt>
      <trkpt lat="50.4593" lon="2.98705">
        <ele>31.86</ele>
        <time>2017-07-16T10:44:50Z</time>
      </trkpt>
      <trkpt lat="50.45929" lon="2.9869">
        <ele>32.34</ele>
        <time>2017-07-16T10:44:59Z</time>
      </trkpt>
      <trkpt lat="50.45921" lon="2.98688">
        <ele>31.38</ele>
        <time>2017-07-16T10:45:08Z</time>
      </trkpt>
      <trkpt lat="50.45912" lon="2.98684">
        <ele>31.38</ele>
        <time>2017-07-16T10:45:17Z</time>
      </trkpt>
      <trkpt lat="50.45903" lon="2.9868">
        <ele>31.38</ele>
        <time>2017-07-16T10:45:26Z</time>
      </trkpt>
      <trkpt lat="50.45893" lon="2.98678">
        <ele>31.86</ele>
        <time>2017-07-16T10:45:35Z</time>
      </trkpt>
      <trkpt lat="50.45883" lon="2.98674">
        <ele>31.38</ele>
        <time>2017-07-16T10:45:43Z</time>
      </trkpt>
      <trkpt lat="50.45872" lon="2.9867">
        <ele>31.38</ele>
        <time>2017-07-16T10:45:52Z</time>
      </trkpt>
      <trkpt lat="50.45861" lon="2.98666">
        <ele>30.9</ele>
        <time>2017-07-16T10:46:01Z</time>
      </trkpt>
      <trkpt lat="50.45851" lon="2.9866">
        <ele>30.9</ele>
        <time>2017-07-16T10:46:09Z</time>
      </trkpt>
      <trkpt lat="50.45842" lon="2.98654">
        <ele>30.9</ele>
        <time>2017-07-16T10:46:18Z</time>
      </trkpt>
      <trkpt lat="50.45832" lon="2.98649">
        <ele>30.9</ele>
        <time>2017-07-16T10:46:27Z</time>
      </trkpt>
      <trkpt lat="50.45821" lon="2.98645">
        <ele>30.9</ele>
        <time>2017-07-16T10:46:36Z</time>
      </trkpt>
      <trkpt lat="50.45811" lon="2.9864">
        <ele>30.42</ele>
        <time>2017-07-16T10:46:44Z</time>
      </trkpt>
      <trkpt lat="50.458" lon="2.98635">
        <ele>30.42</ele>
        <time>2017-07-16T10:46:53Z</time>
      </trkpt>
      <trkpt lat="50.45789" lon="2.9863">
        <ele>30.42</ele>
        <time>2017-07-16T10:47:07Z</time>
      </trkpt>
      <trkpt lat="50.4578" lon="2.98625">
        <ele>30.42</ele>
        <time>2017-07-16T10:47:15Z</time>
      </trkpt>
      <trkpt lat="50.45768" lon="2.98619">
        <ele>30.42</ele>
        <time>2017-07-16T10:47:24Z</time>
      </trkpt>
      <trkpt lat="50.45758" lon="2.98614">
        <ele>30.42</ele>
        <time>2017-07-16T10:47:32Z</time>
      </trkpt>
      <trkpt lat="50.45748" lon="2.98608">
        <ele>30.42</ele>
        <time>2017-07-16T10:47:40Z</time>
      </trkpt>
      <trkpt lat="50.45738" lon="2.98606">
        <ele>30.42</ele>
        <time>2017-07-16T10:47:48Z</time>
      </trkpt>
      <trkpt lat="50.4573" lon="2.98601">
        <ele>29.94</ele>
        <time>2017-07-16T10:47:55Z</time>
      </trkpt>
      <trkpt lat="50.45721" lon="2.98596">
        <ele>29.94</ele>
        <time>2017-07-16T10:48:04Z</time>
      </trkpt>
      <trkpt lat="50.45711" lon="2.98599">
        <ele>29.46</ele>
        <time>2017-07-16T10:48:12Z</time>
      </trkpt>
      <trkpt lat="50.45702" lon="2.98591">
        <ele>28.5</ele>
        <time>2017-07-16T10:48:18Z</time>
      </trkpt>
      <trkpt lat="50.45695" lon="2.98597">
        <ele>28.02</ele>
        <time>2017-07-16T10:48:26Z</time>
      </trkpt>
      <trkpt lat="50.45693" lon="2.98613">
        <ele>28.98</ele>
        <time>2017-07-16T10:48:35Z</time>
      </trkpt>
      <trkpt lat="50.45684" lon="2.98625">
        <ele>28.98</ele>
        <time>2017-07-16T10:48:45Z</time>
      </trkpt>
      <trkpt lat="50.45674" lon="2.98632">
        <ele>28.5</ele>
        <time>2017-07-16T10:48:54Z</time>
      </trkpt>
      <trkpt lat="50.45663" lon="2.98635">
        <ele>28.5</ele>
        <time>2017-07-16T10:49:03Z</time>
      </trkpt>
      <trkpt lat="50.45652" lon="2.9864">
        <ele>28.5</ele>
        <time>2017-07-16T10:49:16Z</time>
      </trkpt>
      <trkpt lat="50.45642" lon="2.98645">
        <ele>28.5</ele>
        <time>2017-07-16T10:49:23Z</time>
      </trkpt>
      <trkpt lat="50.45632" lon="2.98654">
        <ele>27.53</ele>
        <time>2017-07-16T10:49:34Z</time>
      </trkpt>
      <trkpt lat="50.45622" lon="2.98664">
        <ele>24.65</ele>
        <time>2017-07-16T10:49:43Z</time>
      </trkpt>
      <trkpt lat="50.45609" lon="2.98678">
        <ele>27.05</ele>
        <time>2017-07-16T10:49:55Z</time>
      </trkpt>
      <trkpt lat="50.45598" lon="2.9869">
        <ele>28.02</ele>
        <time>2017-07-16T10:50:04Z</time>
      </trkpt>
      <trkpt lat="50.45585" lon="2.98706">
        <ele>28.5</ele>
        <time>2017-07-16T10:50:12Z</time>
      </trkpt>
      <trkpt lat="50.45574" lon="2.98721">
        <ele>28.98</ele>
        <time>2017-07-16T10:50:22Z</time>
      </trkpt>
      <trkpt lat="50.4557" lon="2.98735">
        <ele>28.98</ele>
        <time>2017-07-16T10:50:29Z</time>
      </trkpt>
      <trkpt lat="50.4557" lon="2.98749">
        <ele>28.98</ele>
        <time>2017-07-16T10:50:38Z</time>
      </trkpt>
      <trkpt lat="50.45571" lon="2.98758">
        <ele>28.5</ele>
        <time>2017-07-16T10:51:04Z</time>
      </trkpt>
      <trkpt lat="50.45567" lon="2.98767">
        <ele>29.94</ele>
        <time>2017-07-16T10:55:41Z</time>
      </trkpt>
      <trkpt lat="50.4556" lon="2.98781">
        <ele>31.38</ele>
        <time>2017-07-16T10:55:52Z</time>
      </trkpt>
      <trkpt lat="50.45564" lon="2.98798">
        <ele>30.42</ele>
        <time>2017-07-16T10:56:02Z</time>
      </trkpt>
      <trkpt lat="50.45567" lon="2.98815">
        <ele>29.94</ele>
        <time>2017-07-16T10:56:15Z</time>
      </trkpt>
      <trkpt lat="50.45575" lon="2.98831">
        <ele>29.46</ele>
        <time>2017-07-16T10:56:23Z</time>
      </trkpt>
      <trkpt lat="50.45581" lon="2.9885">
        <ele>29.46</ele>
        <time>2017-07-16T10:56:33Z</time>
      </trkpt>
      <trkpt lat="50.45581" lon="2.98873">
        <ele>29.94</ele>
        <time>2017-07-16T10:56:45Z</time>
      </trkpt>
      <trkpt lat="50.45587" lon="2.98887">
        <ele>29.46</ele>
        <time>2017-07-16T10:57:02Z</time>
      </trkpt>
      <trkpt lat="50.45596" lon="2.98899">
        <ele>28.5</ele>
        <time>2017-07-16T10:57:12Z</time>
      </trkpt>
      <trkpt lat="50.45603" lon="2.98913">
        <ele>27.53</ele>
        <time>2017-07-16T10:57:21Z</time>
      </trkpt>
      <trkpt lat="50.45612" lon="2.98931">
        <ele>28.02</ele>
        <time>2017-07-16T10:57:30Z</time>
      </trkpt>
      <trkpt lat="50.45619" lon="2.98946">
        <ele>28.98</ele>
        <time>2017-07-16T10:57:40Z</time>
      </trkpt>
      <trkpt lat="50.45627" lon="2.9896">
        <ele>28.98</ele>
        <time>2017-07-16T10:57:50Z</time>
      </trkpt>
      <trkpt lat="50.45634" lon="2.98974">
        <ele>28.98</ele>
        <time>2017-07-16T10:58:04Z</time>
      </trkpt>
      <trkpt lat="50.45639" lon="2.98989">
        <ele>28.98</ele>
        <time>2017-07-16T10:58:12Z</time>
      </trkpt>
      <trkpt lat="50.45637" lon="2.99005">
        <ele>29.46</ele>
        <time>2017-07-16T10:58:20Z</time>
      </trkpt>
      <trkpt lat="50.45629" lon="2.99013">
        <ele>29.46</ele>
        <time>2017-07-16T10:58:29Z</time>
      </trkpt>
      <trkpt lat="50.45622" lon="2.99028">
        <ele>30.42</ele>
        <time>2017-07-16T10:58:38Z</time>
      </trkpt>
      <trkpt lat="50.45623" lon="2.99048">
        <ele>31.38</ele>
        <time>2017-07-16T10:58:50Z</time>
      </trkpt>
      <trkpt lat="50.45624" lon="2.99067">
        <ele>31.86</ele>
        <time>2017-07-16T10:58:58Z</time>
      </trkpt>
      <trkpt lat="50.45623" lon="2.99086">
        <ele>32.34</ele>
        <time>2017-07-16T10:59:07Z</time>
      </trkpt>
      <trkpt lat="50.45624" lon="2.99106">
        <ele>32.34</ele>
        <time>2017-07-16T10:59:17Z</time>
      </trkpt>
      <trkpt lat="50.45623" lon="2.99126">
        <ele>32.34</ele>
        <time>2017-07-16T10:59:27Z</time>
      </trkpt>
      <trkpt lat="50.45623" lon="2.99146">
        <ele>31.38</ele>
        <time>2017-07-16T10:59:37Z</time>
      </trkpt>
      <trkpt lat="50.45621" lon="2.99166">
        <ele>30.42</ele>
        <time>2017-07-16T10:59:46Z</time>
      </trkpt>
      <trkpt lat="50.45624" lon="2.99188">
        <ele>30.42</ele>
        <time>2017-07-16T10:59:56Z</time>
      </trkpt>
      <trkpt lat="50.45626" lon="2.99207">
        <ele>30.42</ele>
        <time>2017-07-16T11:00:05Z</time>
      </trkpt>
      <trkpt lat="50.45626" lon="2.99224">
        <ele>30.42</ele>
        <time>2017-07-16T11:00:13Z</time>
      </trkpt>
      <trkpt lat="50.45627" lon="2.99241">
        <ele>30.42</ele>
        <time>2017-07-16T11:00:21Z</time>
      </trkpt>
      <trkpt lat="50.45628" lon="2.99255">
        <ele>29.94</ele>
        <time>2017-07-16T11:00:28Z</time>
      </trkpt>
      <trkpt lat="50.45631" lon="2.99269">
        <ele>30.42</ele>
        <time>2017-07-16T11:00:36Z</time>
      </trkpt>
      <trkpt lat="50.45637" lon="2.99281">
        <ele>29.94</ele>
        <time>2017-07-16T11:00:44Z</time>
      </trkpt>
      <trkpt lat="50.45642" lon="2.99298">
        <ele>29.46</ele>
        <time>2017-07-16T11:00:58Z</time>
      </trkpt>
      <trkpt lat="50.45652" lon="2.9931">
        <ele>29.94</ele>
        <time>2017-07-16T11:01:07Z</time>
      </trkpt>
      <trkpt lat="50.45661" lon="2.99325">
        <ele>29.94</ele>
        <time>2017-07-16T11:01:20Z</time>
      </trkpt>
      <trkpt lat="50.45671" lon="2.9934">
        <ele>29.94</ele>
        <time>2017-07-16T11:01:29Z</time>
      </trkpt>
      <trkpt lat="50.45674" lon="2.99356">
        <ele>29.94</ele>
        <time>2017-07-16T11:01:38Z</time>
      </trkpt>
      <trkpt lat="50.45685" lon="2.99371">
        <ele>29.94</ele>
        <time>2017-07-16T11:01:49Z</time>
      </trkpt>
      <trkpt lat="50.45695" lon="2.99384">
        <ele>30.42</ele>
        <time>2017-07-16T11:01:59Z</time>
      </trkpt>
      <trkpt lat="50.45704" lon="2.99397">
        <ele>29.94</ele>
        <time>2017-07-16T11:02:10Z</time>
      </trkpt>
      <trkpt lat="50.45716" lon="2.99412">
        <ele>30.42</ele>
        <time>2017-07-16T11:02:23Z</time>
      </trkpt>
      <trkpt lat="50.45723" lon="2.99428">
        <ele>30.42</ele>
        <time>2017-07-16T11:02:32Z</time>
      </trkpt>
      <trkpt lat="50.45733" lon="2.99443">
        <ele>30.42</ele>
        <time>2017-07-16T11:02:43Z</time>
      </trkpt>
      <trkpt lat="50.45745" lon="2.9946">
        <ele>30.42</ele>
        <time>2017-07-16T11:02:55Z</time>
      </trkpt>
      <trkpt lat="50.45753" lon="2.99478">
        <ele>30.42</ele>
        <time>2017-07-16T11:03:05Z</time>
      </trkpt>
      <trkpt lat="50.45763" lon="2.99491">
        <ele>29.94</ele>
        <time>2017-07-16T11:03:15Z</time>
      </trkpt>
      <trkpt lat="50.45773" lon="2.99504">
        <ele>29.94</ele>
        <time>2017-07-16T11:03:24Z</time>
      </trkpt>
      <trkpt lat="50.4578" lon="2.99519">
        <ele>29.94</ele>
        <time>2017-07-16T11:03:32Z</time>
      </trkpt>
      <trkpt lat="50.45785" lon="2.99533">
        <ele>30.42</ele>
        <time>2017-07-16T11:03:40Z</time>
      </trkpt>
      <trkpt lat="50.45789" lon="2.99548">
        <ele>30.42</ele>
        <time>2017-07-16T11:03:48Z</time>
      </trkpt>
      <trkpt lat="50.45784" lon="2.99556">
        <ele>30.42</ele>
        <time>2017-07-16T11:03:58Z</time>
      </trkpt>
      <trkpt lat="50.45776" lon="2.99554">
        <ele>30.9</ele>
        <time>2017-07-16T11:04:15Z</time>
      </trkpt>
      <trkpt lat="50.45765" lon="2.99551">
        <ele>30.42</ele>
        <time>2017-07-16T11:04:24Z</time>
      </trkpt>
      <trkpt lat="50.45755" lon="2.99549">
        <ele>29.94</ele>
        <time>2017-07-16T11:04:32Z</time>
      </trkpt>
      <trkpt lat="50.45744" lon="2.99549">
        <ele>30.42</ele>
        <time>2017-07-16T11:04:40Z</time>
      </trkpt>
      <trkpt lat="50.45733" lon="2.99551">
        <ele>30.42</ele>
        <time>2017-07-16T11:04:47Z</time>
      </trkpt>
      <trkpt lat="50.45723" lon="2.99551">
        <ele>29.94</ele>
        <time>2017-07-16T11:04:55Z</time>
      </trkpt>
      <trkpt lat="50.45712" lon="2.99549">
        <ele>30.42</ele>
        <time>2017-07-16T11:05:05Z</time>
      </trkpt>
      <trkpt lat="50.45701" lon="2.99551">
        <ele>29.94</ele>
        <time>2017-07-16T11:05:19Z</time>
      </trkpt>
      <trkpt lat="50.45689" lon="2.99552">
        <ele>30.42</ele>
        <time>2017-07-16T11:05:28Z</time>
      </trkpt>
      <trkpt lat="50.45677" lon="2.99554">
        <ele>29.94</ele>
        <time>2017-07-16T11:05:38Z</time>
      </trkpt>
      <trkpt lat="50.45664" lon="2.99552">
        <ele>29.94</ele>
        <time>2017-07-16T11:05:48Z</time>
      </trkpt>
      <trkpt lat="50.45653" lon="2.99552">
        <ele>30.42</ele>
        <time>2017-07-16T11:05:56Z</time>
      </trkpt>
      <trkpt lat="50.45643" lon="2.99551">
        <ele>30.42</ele>
        <time>2017-07-16T11:06:03Z</time>
      </trkpt>
      <trkpt lat="50.45633" lon="2.9955">
        <ele>30.42</ele>
        <time>2017-07-16T11:06:11Z</time>
      </trkpt>
      <trkpt lat="50.45621" lon="2.99552">
        <ele>30.42</ele>
        <time>2017-07-16T11:06:20Z</time>
      </trkpt>
      <trkpt lat="50.4561" lon="2.99553">
        <ele>30.9</ele>
        <time>2017-07-16T11:06:28Z</time>
      </trkpt>
      <trkpt lat="50.456" lon="2.99552">
        <ele>30.9</ele>
        <time>2017-07-16T11:06:36Z</time>
      </trkpt>
      <trkpt lat="50.45589" lon="2.99552">
        <ele>31.38</ele>
        <time>2017-07-16T11:06:44Z</time>
      </trkpt>
      <trkpt lat="50.45579" lon="2.99548">
        <ele>31.38</ele>
        <time>2017-07-16T11:06:52Z</time>
      </trkpt>
      <trkpt lat="50.4557" lon="2.99541">
        <ele>31.38</ele>
        <time>2017-07-16T11:07:00Z</time>
      </trkpt>
      <trkpt lat="50.45561" lon="2.9953">
        <ele>31.86</ele>
        <time>2017-07-16T11:07:09Z</time>
      </trkpt>
      <trkpt lat="50.45554" lon="2.99518">
        <ele>32.34</ele>
        <time>2017-07-16T11:07:18Z</time>
      </trkpt>
      <trkpt lat="50.45547" lon="2.99507">
        <ele>32.34</ele>
        <time>2017-07-16T11:07:26Z</time>
      </trkpt>
      <trkpt lat="50.45539" lon="2.99496">
        <ele>32.34</ele>
        <time>2017-07-16T11:07:33Z</time>
      </trkpt>
      <trkpt lat="50.45533" lon="2.99483">
        <ele>32.82</ele>
        <time>2017-07-16T11:07:41Z</time>
      </trkpt>
      <trkpt lat="50.45528" lon="2.99469">
        <ele>32.82</ele>
        <time>2017-07-16T11:07:49Z</time>
      </trkpt>
      <trkpt lat="50.45523" lon="2.99455">
        <ele>33.3</ele>
        <time>2017-07-16T11:07:57Z</time>
      </trkpt>
      <trkpt lat="50.45521" lon="2.99438">
        <ele>33.3</ele>
        <time>2017-07-16T11:08:05Z</time>
      </trkpt>
      <trkpt lat="50.45519" lon="2.99423">
        <ele>33.78</ele>
        <time>2017-07-16T11:08:13Z</time>
      </trkpt>
      <trkpt lat="50.45519" lon="2.99407">
        <ele>33.3</ele>
        <time>2017-07-16T11:08:21Z</time>
      </trkpt>
      <trkpt lat="50.45517" lon="2.99389">
        <ele>33.3</ele>
        <time>2017-07-16T11:08:30Z</time>
      </trkpt>
      <trkpt lat="50.45517" lon="2.99373">
        <ele>33.78</ele>
        <time>2017-07-16T11:08:37Z</time>
      </trkpt>
      <trkpt lat="50.45517" lon="2.99358">
        <ele>34.26</ele>
        <time>2017-07-16T11:08:45Z</time>
      </trkpt>
      <trkpt lat="50.45519" lon="2.99344">
        <ele>34.74</ele>
        <time>2017-07-16T11:08:52Z</time>
      </trkpt>
      <trkpt lat="50.45517" lon="2.99329">
        <ele>35.23</ele>
        <time>2017-07-16T11:09:00Z</time>
      </trkpt>
      <trkpt lat="50.45511" lon="2.99319">
        <ele>34.74</ele>
        <time>2017-07-16T11:09:07Z</time>
      </trkpt>
      <trkpt lat="50.45505" lon="2.9931">
        <ele>34.74</ele>
        <time>2017-07-16T11:09:15Z</time>
      </trkpt>
      <trkpt lat="50.4551" lon="2.99298">
        <ele>34.26</ele>
        <time>2017-07-16T11:09:26Z</time>
      </trkpt>
      <trkpt lat="50.45511" lon="2.9929">
        <ele>34.26</ele>
        <time>2017-07-16T11:09:50Z</time>
      </trkpt>
      <trkpt lat="50.45509" lon="2.99304">
        <ele>35.23</ele>
        <time>2017-07-16T11:09:58Z</time>
      </trkpt>
      <trkpt lat="50.45502" lon="2.99306">
        <ele>35.23</ele>
        <time>2017-07-16T11:10:19Z</time>
      </trkpt>
      <trkpt lat="50.45494" lon="2.99299">
        <ele>35.23</ele>
        <time>2017-07-16T11:10:27Z</time>
      </trkpt>
      <trkpt lat="50.45486" lon="2.99288">
        <ele>35.23</ele>
        <time>2017-07-16T11:10:36Z</time>
      </trkpt>
      <trkpt lat="50.45478" lon="2.9928">
        <ele>35.23</ele>
        <time>2017-07-16T11:10:43Z</time>
      </trkpt>
      <trkpt lat="50.4547" lon="2.99285">
        <ele>35.23</ele>
        <time>2017-07-16T11:10:51Z</time>
      </trkpt>
      <trkpt lat="50.45465" lon="2.993">
        <ele>35.23</ele>
        <time>2017-07-16T11:11:00Z</time>
      </trkpt>
      <trkpt lat="50.45455" lon="2.99306">
        <ele>36.19</ele>
        <time>2017-07-16T11:11:12Z</time>
      </trkpt>
      <trkpt lat="50.45439" lon="2.9932">
        <ele>36.19</ele>
        <time>2017-07-16T11:11:34Z</time>
      </trkpt>
      <trkpt lat="50.45426" lon="2.9933">
        <ele>36.67</ele>
        <time>2017-07-16T11:11:43Z</time>
      </trkpt>
      <trkpt lat="50.45414" lon="2.99334">
        <ele>36.19</ele>
        <time>2017-07-16T11:11:50Z</time>
      </trkpt>
      <trkpt lat="50.45404" lon="2.99335">
        <ele>36.19</ele>
        <time>2017-07-16T11:11:58Z</time>
      </trkpt>
      <trkpt lat="50.45394" lon="2.99335">
        <ele>36.19</ele>
        <time>2017-07-16T11:12:06Z</time>
      </trkpt>
      <trkpt lat="50.45384" lon="2.99331">
        <ele>37.63</ele>
        <time>2017-07-16T11:12:14Z</time>
      </trkpt>
      <trkpt lat="50.45376" lon="2.9932">
        <ele>38.11</ele>
        <time>2017-07-16T11:12:23Z</time>
      </trkpt>
      <trkpt lat="50.45372" lon="2.99306">
        <ele>39.07</ele>
        <time>2017-07-16T11:12:32Z</time>
      </trkpt>
      <trkpt lat="50.45369" lon="2.99289">
        <ele>40.03</ele>
        <time>2017-07-16T11:12:41Z</time>
      </trkpt>
      <trkpt lat="50.45374" lon="2.99274">
        <ele>40.51</ele>
        <time>2017-07-16T11:12:49Z</time>
      </trkpt>
      <trkpt lat="50.45382" lon="2.99264">
        <ele>40.03</ele>
        <time>2017-07-16T11:12:57Z</time>
      </trkpt>
      <trkpt lat="50.45389" lon="2.99253">
        <ele>39.55</ele>
        <time>2017-07-16T11:13:05Z</time>
      </trkpt>
      <trkpt lat="50.45397" lon="2.99245">
        <ele>39.55</ele>
        <time>2017-07-16T11:13:12Z</time>
      </trkpt>
      <trkpt lat="50.45403" lon="2.99234">
        <ele>39.55</ele>
        <time>2017-07-16T11:13:20Z</time>
      </trkpt>
      <trkpt lat="50.45408" lon="2.9922">
        <ele>39.07</ele>
        <time>2017-07-16T11:13:28Z</time>
      </trkpt>
      <trkpt lat="50.45413" lon="2.99207">
        <ele>40.03</ele>
        <time>2017-07-16T11:13:36Z</time>
      </trkpt>
      <trkpt lat="50.45416" lon="2.99191">
        <ele>39.55</ele>
        <time>2017-07-16T11:13:44Z</time>
      </trkpt>
      <trkpt lat="50.45417" lon="2.99176">
        <ele>39.55</ele>
        <time>2017-07-16T11:13:52Z</time>
      </trkpt>
      <trkpt lat="50.45421" lon="2.9916">
        <ele>39.55</ele>
        <time>2017-07-16T11:13:59Z</time>
      </trkpt>
      <trkpt lat="50.45424" lon="2.99146">
        <ele>39.07</ele>
        <time>2017-07-16T11:14:07Z</time>
      </trkpt>
      <trkpt lat="50.45429" lon="2.99131">
        <ele>39.07</ele>
        <time>2017-07-16T11:14:14Z</time>
      </trkpt>
      <trkpt lat="50.45435" lon="2.99116">
        <ele>37.15</ele>
        <time>2017-07-16T11:14:22Z</time>
      </trkpt>
      <trkpt lat="50.45441" lon="2.99104">
        <ele>36.67</ele>
        <time>2017-07-16T11:14:28Z</time>
      </trkpt>
      <trkpt lat="50.45446" lon="2.9909">
        <ele>36.19</ele>
        <time>2017-07-16T11:14:36Z</time>
      </trkpt>
      <trkpt lat="50.45454" lon="2.99079">
        <ele>36.19</ele>
        <time>2017-07-16T11:14:43Z</time>
      </trkpt>
      <trkpt lat="50.45459" lon="2.99066">
        <ele>35.71</ele>
        <time>2017-07-16T11:14:50Z</time>
      </trkpt>
      <trkpt lat="50.45465" lon="2.99053">
        <ele>35.23</ele>
        <time>2017-07-16T11:14:58Z</time>
      </trkpt>
      <trkpt lat="50.45471" lon="2.99041">
        <ele>35.71</ele>
        <time>2017-07-16T11:15:06Z</time>
      </trkpt>
      <trkpt lat="50.45477" lon="2.99029">
        <ele>35.71</ele>
        <time>2017-07-16T11:15:15Z</time>
      </trkpt>
      <trkpt lat="50.45481" lon="2.99013">
        <ele>36.19</ele>
        <time>2017-07-16T11:15:24Z</time>
      </trkpt>
      <trkpt lat="50.4548" lon="2.98997">
        <ele>35.71</ele>
        <time>2017-07-16T11:15:33Z</time>
      </trkpt>
      <trkpt lat="50.4548" lon="2.98982">
        <ele>35.71</ele>
        <time>2017-07-16T11:15:43Z</time>
      </trkpt>
      <trkpt lat="50.45476" lon="2.98973">
        <ele>34.74</ele>
        <time>2017-07-16T11:16:05Z</time>
      </trkpt>
      <trkpt lat="50.45483" lon="2.98958">
        <ele>35.71</ele>
        <time>2017-07-16T11:16:14Z</time>
      </trkpt>
      <trkpt lat="50.45488" lon="2.98943">
        <ele>35.23</ele>
        <time>2017-07-16T11:16:22Z</time>
      </trkpt>
      <trkpt lat="50.45493" lon="2.98929">
        <ele>36.19</ele>
        <time>2017-07-16T11:16:30Z</time>
      </trkpt>
      <trkpt lat="50.45496" lon="2.98915">
        <ele>35.71</ele>
        <time>2017-07-16T11:16:37Z</time>
      </trkpt>
      <trkpt lat="50.45502" lon="2.98902">
        <ele>35.71</ele>
        <time>2017-07-16T11:16:44Z</time>
      </trkpt>
      <trkpt lat="50.45507" lon="2.98888">
        <ele>35.23</ele>
        <time>2017-07-16T11:16:52Z</time>
      </trkpt>
      <trkpt lat="50.45514" lon="2.98875">
        <ele>35.23</ele>
        <time>2017-07-16T11:17:00Z</time>
      </trkpt>
      <trkpt lat="50.45518" lon="2.9886">
        <ele>34.74</ele>
        <time>2017-07-16T11:17:08Z</time>
      </trkpt>
      <trkpt lat="50.45521" lon="2.98846">
        <ele>34.26</ele>
        <time>2017-07-16T11:17:15Z</time>
      </trkpt>
      <trkpt lat="50.45524" lon="2.98832">
        <ele>33.78</ele>
        <time>2017-07-16T11:17:23Z</time>
      </trkpt>
      <trkpt lat="50.45525" lon="2.98817">
        <ele>32.34</ele>
        <time>2017-07-16T11:17:31Z</time>
      </trkpt>
      <trkpt lat="50.45528" lon="2.98801">
        <ele>31.86</ele>
        <time>2017-07-16T11:17:39Z</time>
      </trkpt>
      <trkpt lat="50.4553" lon="2.98784">
        <ele>30.42</ele>
        <time>2017-07-16T11:17:48Z</time>
      </trkpt>
      <trkpt lat="50.45525" lon="2.9877">
        <ele>29.94</ele>
        <time>2017-07-16T11:17:57Z</time>
      </trkpt>
      <trkpt lat="50.4552" lon="2.98758">
        <ele>29.94</ele>
        <time>2017-07-16T11:18:05Z</time>
      </trkpt>
      <trkpt lat="50.45516" lon="2.98741">
        <ele>30.9</ele>
        <time>2017-07-16T11:18:13Z</time>
      </trkpt>
      <trkpt lat="50.45513" lon="2.98724">
        <ele>30.42</ele>
        <time>2017-07-16T11:18:22Z</time>
      </trkpt>
      <trkpt lat="50.45509" lon="2.98707">
        <ele>30.42</ele>
        <time>2017-07-16T11:18:31Z</time>
      </trkpt>
      <trkpt lat="50.455" lon="2.98701">
        <ele>30.9</ele>
        <time>2017-07-16T11:18:39Z</time>
      </trkpt>
      <trkpt lat="50.45489" lon="2.987">
        <ele>31.86</ele>
        <time>2017-07-16T11:18:48Z</time>
      </trkpt>
      <trkpt lat="50.45479" lon="2.98699">
        <ele>32.82</ele>
        <time>2017-07-16T11:18:57Z</time>
      </trkpt>
      <trkpt lat="50.45468" lon="2.98698">
        <ele>34.26</ele>
        <time>2017-07-16T11:19:06Z</time>
      </trkpt>
      <trkpt lat="50.45458" lon="2.98695">
        <ele>34.26</ele>
        <time>2017-07-16T11:19:16Z</time>
      </trkpt>
      <trkpt lat="50.45457" lon="2.98706">
        <ele>35.23</ele>
        <time>2017-07-16T11:19:25Z</time>
      </trkpt>
      <trkpt lat="50.45458" lon="2.98722">
        <ele>34.74</ele>
        <time>2017-07-16T11:19:33Z</time>
      </trkpt>
      <trkpt lat="50.4546" lon="2.98737">
        <ele>34.74</ele>
        <time>2017-07-16T11:19:40Z</time>
      </trkpt>
      <trkpt lat="50.4546" lon="2.98752">
        <ele>35.23</ele>
        <time>2017-07-16T11:19:48Z</time>
      </trkpt>
      <trkpt lat="50.45459" lon="2.98768">
        <ele>35.23</ele>
        <time>2017-07-16T11:19:56Z</time>
      </trkpt>
      <trkpt lat="50.45457" lon="2.98785">
        <ele>35.23</ele>
        <time>2017-07-16T11:20:04Z</time>
      </trkpt>
      <trkpt lat="50.45452" lon="2.98798">
        <ele>34.74</ele>
        <time>2017-07-16T11:20:10Z</time>
      </trkpt>
      <trkpt lat="50.45449" lon="2.98812">
        <ele>34.74</ele>
        <time>2017-07-16T11:20:17Z</time>
      </trkpt>
      <trkpt lat="50.45446" lon="2.98826">
        <ele>35.23</ele>
        <time>2017-07-16T11:20:25Z</time>
      </trkpt>
      <trkpt lat="50.45442" lon="2.9884">
        <ele>35.71</ele>
        <time>2017-07-16T11:20:32Z</time>
      </trkpt>
      <trkpt lat="50.45437" lon="2.98852">
        <ele>35.71</ele>
        <time>2017-07-16T11:20:39Z</time>
      </trkpt>
      <trkpt lat="50.45435" lon="2.98866">
        <ele>35.23</ele>
        <time>2017-07-16T11:20:47Z</time>
      </trkpt>
      <trkpt lat="50.4543" lon="2.9888">
        <ele>35.71</ele>
        <time>2017-07-16T11:20:55Z</time>
      </trkpt>
      <trkpt lat="50.45427" lon="2.98895">
        <ele>35.71</ele>
        <time>2017-07-16T11:21:06Z</time>
      </trkpt>
      <trkpt lat="50.45422" lon="2.98908">
        <ele>35.71</ele>
        <time>2017-07-16T11:21:12Z</time>
      </trkpt>
      <trkpt lat="50.45419" lon="2.98921">
        <ele>35.71</ele>
        <time>2017-07-16T11:21:19Z</time>
      </trkpt>
      <trkpt lat="50.45414" lon="2.98935">
        <ele>35.71</ele>
        <time>2017-07-16T11:21:27Z</time>
      </trkpt>
      <trkpt lat="50.45409" lon="2.98948">
        <ele>35.71</ele>
        <time>2017-07-16T11:21:34Z</time>
      </trkpt>
      <trkpt lat="50.45403" lon="2.98961">
        <ele>35.71</ele>
        <time>2017-07-16T11:21:42Z</time>
      </trkpt>
      <trkpt lat="50.45398" lon="2.98974">
        <ele>36.67</ele>
        <time>2017-07-16T11:21:50Z</time>
      </trkpt>
      <trkpt lat="50.45393" lon="2.98987">
        <ele>36.67</ele>
        <time>2017-07-16T11:21:57Z</time>
      </trkpt>
      <trkpt lat="50.4539" lon="2.99001">
        <ele>37.15</ele>
        <time>2017-07-16T11:22:04Z</time>
      </trkpt>
      <trkpt lat="50.45387" lon="2.99015">
        <ele>37.63</ele>
        <time>2017-07-16T11:22:12Z</time>
      </trkpt>
      <trkpt lat="50.45384" lon="2.99028">
        <ele>37.63</ele>
        <time>2017-07-16T11:22:20Z</time>
      </trkpt>
      <trkpt lat="50.4538" lon="2.99042">
        <ele>38.11</ele>
        <time>2017-07-16T11:22:27Z</time>
      </trkpt>
      <trkpt lat="50.45378" lon="2.99056">
        <ele>38.59</ele>
        <time>2017-07-16T11:22:35Z</time>
      </trkpt>
      <trkpt lat="50.45373" lon="2.99071">
        <ele>39.55</ele>
        <time>2017-07-16T11:22:43Z</time>
      </trkpt>
      <trkpt lat="50.4537" lon="2.99086">
        <ele>40.03</ele>
        <time>2017-07-16T11:22:51Z</time>
      </trkpt>
      <trkpt lat="50.45365" lon="2.99101">
        <ele>40.03</ele>
        <time>2017-07-16T11:22:59Z</time>
      </trkpt>
      <trkpt lat="50.45361" lon="2.99116">
        <ele>40.51</ele>
        <time>2017-07-16T11:23:07Z</time>
      </trkpt>
      <trkpt lat="50.45358" lon="2.99128">
        <ele>41.47</ele>
        <time>2017-07-16T11:23:14Z</time>
      </trkpt>
      <trkpt lat="50.45355" lon="2.99142">
        <ele>41.47</ele>
        <time>2017-07-16T11:23:21Z</time>
      </trkpt>
      <trkpt lat="50.4535" lon="2.99154">
        <ele>41.47</ele>
        <time>2017-07-16T11:23:28Z</time>
      </trkpt>
      <trkpt lat="50.45346" lon="2.99169">
        <ele>41.47</ele>
        <time>2017-07-16T11:23:36Z</time>
      </trkpt>
      <trkpt lat="50.45342" lon="2.99183">
        <ele>42.44</ele>
        <time>2017-07-16T11:23:44Z</time>
      </trkpt>
      <trkpt lat="50.45337" lon="2.99196">
        <ele>42.44</ele>
        <time>2017-07-16T11:23:51Z</time>
      </trkpt>
      <trkpt lat="50.45331" lon="2.99208">
        <ele>42.44</ele>
        <time>2017-07-16T11:23:59Z</time>
      </trkpt>
      <trkpt lat="50.45325" lon="2.99221">
        <ele>42.92</ele>
        <time>2017-07-16T11:24:07Z</time>
      </trkpt>
      <trkpt lat="50.45318" lon="2.99233">
        <ele>43.4</ele>
        <time>2017-07-16T11:24:15Z</time>
      </trkpt>
      <trkpt lat="50.45311" lon="2.99243">
        <ele>42.92</ele>
        <time>2017-07-16T11:24:22Z</time>
      </trkpt>
      <trkpt lat="50.45303" lon="2.99252">
        <ele>43.88</ele>
        <time>2017-07-16T11:24:29Z</time>
      </trkpt>
      <trkpt lat="50.45295" lon="2.99259">
        <ele>43.4</ele>
        <time>2017-07-16T11:24:37Z</time>
      </trkpt>
      <trkpt lat="50.45286" lon="2.99267">
        <ele>44.36</ele>
        <time>2017-07-16T11:24:44Z</time>
      </trkpt>
      <trkpt lat="50.45278" lon="2.99272">
        <ele>44.84</ele>
        <time>2017-07-16T11:24:51Z</time>
      </trkpt>
      <trkpt lat="50.45269" lon="2.99279">
        <ele>45.32</ele>
        <time>2017-07-16T11:24:59Z</time>
      </trkpt>
      <trkpt lat="50.45259" lon="2.99286">
        <ele>45.32</ele>
        <time>2017-07-16T11:25:08Z</time>
      </trkpt>
      <trkpt lat="50.45252" lon="2.99288">
        <ele>45.8</ele>
        <time>2017-07-16T11:25:32Z</time>
      </trkpt>
      <trkpt lat="50.45243" lon="2.99296">
        <ele>45.8</ele>
        <time>2017-07-16T11:25:41Z</time>
      </trkpt>
      <trkpt lat="50.45236" lon="2.99305">
        <ele>45.8</ele>
        <time>2017-07-16T11:25:49Z</time>
      </trkpt>
      <trkpt lat="50.45228" lon="2.99314">
        <ele>46.76</ele>
        <time>2017-07-16T11:25:58Z</time>
      </trkpt>
      <trkpt lat="50.4522" lon="2.99325">
        <ele>46.76</ele>
        <time>2017-07-16T11:26:06Z</time>
      </trkpt>
      <trkpt lat="50.45213" lon="2.99336">
        <ele>46.76</ele>
        <time>2017-07-16T11:26:14Z</time>
      </trkpt>
      <trkpt lat="50.45204" lon="2.99346">
        <ele>47.24</ele>
        <time>2017-07-16T11:26:25Z</time>
      </trkpt>
      <trkpt lat="50.45196" lon="2.99356">
        <ele>47.24</ele>
        <time>2017-07-16T11:26:32Z</time>
      </trkpt>
      <trkpt lat="50.45187" lon="2.99366">
        <ele>47.72</ele>
        <time>2017-07-16T11:26:40Z</time>
      </trkpt>
      <trkpt lat="50.4518" lon="2.99376">
        <ele>48.2</ele>
        <time>2017-07-16T11:26:48Z</time>
      </trkpt>
      <trkpt lat="50.45171" lon="2.99387">
        <ele>48.68</ele>
        <time>2017-07-16T11:26:57Z</time>
      </trkpt>
      <trkpt lat="50.45163" lon="2.99396">
        <ele>48.68</ele>
        <time>2017-07-16T11:27:04Z</time>
      </trkpt>
      <trkpt lat="50.45154" lon="2.99402">
        <ele>49.16</ele>
        <time>2017-07-16T11:27:11Z</time>
      </trkpt>
      <trkpt lat="50.45144" lon="2.99407">
        <ele>48.68</ele>
        <time>2017-07-16T11:27:19Z</time>
      </trkpt>
      <trkpt lat="50.45135" lon="2.99413">
        <ele>49.65</ele>
        <time>2017-07-16T11:27:27Z</time>
      </trkpt>
      <trkpt lat="50.45126" lon="2.99418">
        <ele>50.13</ele>
        <time>2017-07-16T11:27:35Z</time>
      </trkpt>
      <trkpt lat="50.45116" lon="2.9942">
        <ele>50.13</ele>
        <time>2017-07-16T11:27:41Z</time>
      </trkpt>
      <trkpt lat="50.45107" lon="2.99424">
        <ele>50.13</ele>
        <time>2017-07-16T11:27:50Z</time>
      </trkpt>
      <trkpt lat="50.45097" lon="2.99425">
        <ele>51.09</ele>
        <time>2017-07-16T11:27:57Z</time>
      </trkpt>
      <trkpt lat="50.45088" lon="2.99424">
        <ele>50.61</ele>
        <time>2017-07-16T11:28:04Z</time>
      </trkpt>
      <trkpt lat="50.45077" lon="2.99424">
        <ele>50.61</ele>
        <time>2017-07-16T11:28:12Z</time>
      </trkpt>
      <trkpt lat="50.45068" lon="2.99419">
        <ele>50.61</ele>
        <time>2017-07-16T11:28:19Z</time>
      </trkpt>
      <trkpt lat="50.45057" lon="2.99415">
        <ele>51.09</ele>
        <time>2017-07-16T11:28:27Z</time>
      </trkpt>
      <trkpt lat="50.45049" lon="2.99409">
        <ele>51.09</ele>
        <time>2017-07-16T11:28:34Z</time>
      </trkpt>
      <trkpt lat="50.4504" lon="2.99408">
        <ele>52.05</ele>
        <time>2017-07-16T11:28:41Z</time>
      </trkpt>
      <trkpt lat="50.45031" lon="2.99404">
        <ele>52.05</ele>
        <time>2017-07-16T11:28:49Z</time>
      </trkpt>
      <trkpt lat="50.45022" lon="2.99397">
        <ele>51.57</ele>
        <time>2017-07-16T11:28:57Z</time>
      </trkpt>
      <trkpt lat="50.45012" lon="2.99392">
        <ele>51.57</ele>
        <time>2017-07-16T11:29:05Z</time>
      </trkpt>
      <trkpt lat="50.45004" lon="2.99387">
        <ele>51.57</ele>
        <time>2017-07-16T11:29:12Z</time>
      </trkpt>
      <trkpt lat="50.44995" lon="2.99382">
        <ele>51.57</ele>
        <time>2017-07-16T11:29:20Z</time>
      </trkpt>
      <trkpt lat="50.44986" lon="2.99376">
        <ele>52.05</ele>
        <time>2017-07-16T11:29:28Z</time>
      </trkpt>
      <trkpt lat="50.44977" lon="2.99372">
        <ele>51.57</ele>
        <time>2017-07-16T11:29:36Z</time>
      </trkpt>
      <trkpt lat="50.44975" lon="2.99371">
        <ele>52.05</ele>
        <time>2017-07-16T11:31:32Z</time>
      </trkpt>
      <trkpt lat="50.44972" lon="2.99361">
        <ele>51.09</ele>
        <time>2017-07-16T11:31:52Z</time>
      </trkpt>
      <trkpt lat="50.44966" lon="2.9935">
        <ele>52.05</ele>
        <time>2017-07-16T11:32:00Z</time>
      </trkpt>
      <trkpt lat="50.44958" lon="2.99341">
        <ele>52.53</ele>
        <time>2017-07-16T11:32:09Z</time>
      </trkpt>
      <trkpt lat="50.44952" lon="2.99331">
        <ele>52.53</ele>
        <time>2017-07-16T11:32:17Z</time>
      </trkpt>
      <trkpt lat="50.44945" lon="2.9932">
        <ele>52.05</ele>
        <time>2017-07-16T11:32:25Z</time>
      </trkpt>
      <trkpt lat="50.4494" lon="2.99308">
        <ele>51.57</ele>
        <time>2017-07-16T11:32:32Z</time>
      </trkpt>
      <trkpt lat="50.44933" lon="2.99296">
        <ele>52.05</ele>
        <time>2017-07-16T11:32:39Z</time>
      </trkpt>
      <trkpt lat="50.44927" lon="2.99285">
        <ele>50.61</ele>
        <time>2017-07-16T11:32:46Z</time>
      </trkpt>
      <trkpt lat="50.44921" lon="2.99272">
        <ele>50.13</ele>
        <time>2017-07-16T11:32:53Z</time>
      </trkpt>
      <trkpt lat="50.44915" lon="2.99262">
        <ele>50.13</ele>
        <time>2017-07-16T11:33:00Z</time>
      </trkpt>
      <trkpt lat="50.4491" lon="2.9925">
        <ele>49.16</ele>
        <time>2017-07-16T11:33:07Z</time>
      </trkpt>
      <trkpt lat="50.44903" lon="2.99238">
        <ele>47.72</ele>
        <time>2017-07-16T11:33:15Z</time>
      </trkpt>
      <trkpt lat="50.44897" lon="2.99228">
        <ele>47.24</ele>
        <time>2017-07-16T11:33:22Z</time>
      </trkpt>
      <trkpt lat="50.4489" lon="2.99216">
        <ele>46.76</ele>
        <time>2017-07-16T11:33:29Z</time>
      </trkpt>
      <trkpt lat="50.44883" lon="2.99207">
        <ele>45.8</ele>
        <time>2017-07-16T11:33:36Z</time>
      </trkpt>
      <trkpt lat="50.44876" lon="2.99198">
        <ele>45.32</ele>
        <time>2017-07-16T11:33:43Z</time>
      </trkpt>
      <trkpt lat="50.44867" lon="2.9919">
        <ele>43.88</ele>
        <time>2017-07-16T11:33:51Z</time>
      </trkpt>
      <trkpt lat="50.44858" lon="2.99185">
        <ele>42.92</ele>
        <time>2017-07-16T11:33:58Z</time>
      </trkpt>
      <trkpt lat="50.44851" lon="2.99176">
        <ele>41.47</ele>
        <time>2017-07-16T11:34:05Z</time>
      </trkpt>
      <trkpt lat="50.44845" lon="2.99163">
        <ele>40.51</ele>
        <time>2017-07-16T11:34:12Z</time>
      </trkpt>
      <trkpt lat="50.44844" lon="2.99146">
        <ele>39.55</ele>
        <time>2017-07-16T11:34:20Z</time>
      </trkpt>
      <trkpt lat="50.44845" lon="2.9913">
        <ele>40.03</ele>
        <time>2017-07-16T11:34:27Z</time>
      </trkpt>
      <trkpt lat="50.44848" lon="2.99114">
        <ele>40.03</ele>
        <time>2017-07-16T11:34:35Z</time>
      </trkpt>
      <trkpt lat="50.44852" lon="2.99099">
        <ele>39.55</ele>
        <time>2017-07-16T11:34:43Z</time>
      </trkpt>
      <trkpt lat="50.44857" lon="2.99083">
        <ele>39.55</ele>
        <time>2017-07-16T11:34:51Z</time>
      </trkpt>
      <trkpt lat="50.44863" lon="2.9907">
        <ele>39.07</ele>
        <time>2017-07-16T11:34:59Z</time>
      </trkpt>
      <trkpt lat="50.44868" lon="2.99055">
        <ele>39.07</ele>
        <time>2017-07-16T11:35:07Z</time>
      </trkpt>
      <trkpt lat="50.44873" lon="2.99041">
        <ele>39.07</ele>
        <time>2017-07-16T11:35:14Z</time>
      </trkpt>
      <trkpt lat="50.44877" lon="2.99027">
        <ele>38.59</ele>
        <time>2017-07-16T11:35:22Z</time>
      </trkpt>
      <trkpt lat="50.44881" lon="2.99011">
        <ele>38.59</ele>
        <time>2017-07-16T11:35:30Z</time>
      </trkpt>
      <trkpt lat="50.44884" lon="2.98998">
        <ele>39.55</ele>
        <time>2017-07-16T11:35:41Z</time>
      </trkpt>
      <trkpt lat="50.44892" lon="2.98989">
        <ele>39.07</ele>
        <time>2017-07-16T11:35:55Z</time>
      </trkpt>
      <trkpt lat="50.44899" lon="2.98976">
        <ele>39.07</ele>
        <time>2017-07-16T11:36:25Z</time>
      </trkpt>
      <trkpt lat="50.44906" lon="2.98965">
        <ele>39.07</ele>
        <time>2017-07-16T11:36:33Z</time>
      </trkpt>
      <trkpt lat="50.44911" lon="2.98952">
        <ele>39.07</ele>
        <time>2017-07-16T11:36:43Z</time>
      </trkpt>
      <trkpt lat="50.44917" lon="2.98939">
        <ele>39.07</ele>
        <time>2017-07-16T11:36:51Z</time>
      </trkpt>
      <trkpt lat="50.44924" lon="2.98926">
        <ele>38.59</ele>
        <time>2017-07-16T11:36:59Z</time>
      </trkpt>
      <trkpt lat="50.4493" lon="2.98913">
        <ele>39.07</ele>
        <time>2017-07-16T11:37:07Z</time>
      </trkpt>
      <trkpt lat="50.44936" lon="2.98901">
        <ele>38.59</ele>
        <time>2017-07-16T11:37:14Z</time>
      </trkpt>
      <trkpt lat="50.44943" lon="2.98886">
        <ele>38.59</ele>
        <time>2017-07-16T11:37:22Z</time>
      </trkpt>
      <trkpt lat="50.4495" lon="2.98876">
        <ele>38.59</ele>
        <time>2017-07-16T11:37:30Z</time>
      </trkpt>
      <trkpt lat="50.44955" lon="2.98863">
        <ele>38.59</ele>
        <time>2017-07-16T11:37:37Z</time>
      </trkpt>
      <trkpt lat="50.44963" lon="2.98852">
        <ele>38.59</ele>
        <time>2017-07-16T11:37:45Z</time>
      </trkpt>
      <trkpt lat="50.44969" lon="2.98839">
        <ele>37.63</ele>
        <time>2017-07-16T11:37:52Z</time>
      </trkpt>
      <trkpt lat="50.44976" lon="2.98828">
        <ele>37.63</ele>
        <time>2017-07-16T11:38:00Z</time>
      </trkpt>
      <trkpt lat="50.44983" lon="2.98817">
        <ele>38.11</ele>
        <time>2017-07-16T11:38:07Z</time>
      </trkpt>
      <trkpt lat="50.4499" lon="2.98805">
        <ele>37.63</ele>
        <time>2017-07-16T11:38:15Z</time>
      </trkpt>
      <trkpt lat="50.44998" lon="2.98795">
        <ele>37.63</ele>
        <time>2017-07-16T11:38:23Z</time>
      </trkpt>
      <trkpt lat="50.45005" lon="2.98784">
        <ele>37.63</ele>
        <time>2017-07-16T11:38:31Z</time>
      </trkpt>
      <trkpt lat="50.45013" lon="2.98773">
        <ele>37.15</ele>
        <time>2017-07-16T11:38:39Z</time>
      </trkpt>
      <trkpt lat="50.45019" lon="2.9876">
        <ele>37.63</ele>
        <time>2017-07-16T11:38:48Z</time>
      </trkpt>
      <trkpt lat="50.45027" lon="2.98751">
        <ele>37.63</ele>
        <time>2017-07-16T11:38:57Z</time>
      </trkpt>
      <trkpt lat="50.45034" lon="2.98741">
        <ele>37.63</ele>
        <time>2017-07-16T11:39:06Z</time>
      </trkpt>
      <trkpt lat="50.45042" lon="2.98731">
        <ele>37.15</ele>
        <time>2017-07-16T11:39:14Z</time>
      </trkpt>
      <trkpt lat="50.4505" lon="2.9872">
        <ele>37.63</ele>
        <time>2017-07-16T11:39:22Z</time>
      </trkpt>
      <trkpt lat="50.45059" lon="2.98712">
        <ele>37.63</ele>
        <time>2017-07-16T11:39:31Z</time>
      </trkpt>
      <trkpt lat="50.45067" lon="2.98703">
        <ele>37.63</ele>
        <time>2017-07-16T11:39:39Z</time>
      </trkpt>
      <trkpt lat="50.45075" lon="2.98693">
        <ele>37.63</ele>
        <time>2017-07-16T11:39:47Z</time>
      </trkpt>
      <trkpt lat="50.45083" lon="2.98686">
        <ele>38.11</ele>
        <time>2017-07-16T11:39:55Z</time>
      </trkpt>
      <trkpt lat="50.45093" lon="2.98677">
        <ele>38.11</ele>
        <time>2017-07-16T11:40:04Z</time>
      </trkpt>
      <trkpt lat="50.45102" lon="2.98671">
        <ele>38.59</ele>
        <time>2017-07-16T11:40:13Z</time>
      </trkpt>
      <trkpt lat="50.45111" lon="2.98662">
        <ele>38.59</ele>
        <time>2017-07-16T11:40:21Z</time>
      </trkpt>
      <trkpt lat="50.45119" lon="2.98653">
        <ele>38.59</ele>
        <time>2017-07-16T11:40:29Z</time>
      </trkpt>
      <trkpt lat="50.45126" lon="2.98643">
        <ele>38.59</ele>
        <time>2017-07-16T11:40:37Z</time>
      </trkpt>
      <trkpt lat="50.45134" lon="2.98631">
        <ele>39.07</ele>
        <time>2017-07-16T11:40:46Z</time>
      </trkpt>
      <trkpt lat="50.45141" lon="2.98619">
        <ele>39.07</ele>
        <time>2017-07-16T11:40:55Z</time>
      </trkpt>
      <trkpt lat="50.45146" lon="2.98607">
        <ele>39.55</ele>
        <time>2017-07-16T11:41:22Z</time>
      </trkpt>
      <trkpt lat="50.45152" lon="2.98597">
        <ele>39.07</ele>
        <time>2017-07-16T11:42:04Z</time>
      </trkpt>
      <trkpt lat="50.45157" lon="2.98585">
        <ele>40.03</ele>
        <time>2017-07-16T11:42:12Z</time>
      </trkpt>
      <trkpt lat="50.45163" lon="2.98575">
        <ele>40.03</ele>
        <time>2017-07-16T11:42:20Z</time>
      </trkpt>
      <trkpt lat="50.4517" lon="2.98563">
        <ele>40.03</ele>
        <time>2017-07-16T11:42:28Z</time>
      </trkpt>
      <trkpt lat="50.45175" lon="2.98548">
        <ele>40.51</ele>
        <time>2017-07-16T11:42:36Z</time>
      </trkpt>
      <trkpt lat="50.45181" lon="2.98534">
        <ele>40.51</ele>
        <time>2017-07-16T11:42:44Z</time>
      </trkpt>
      <trkpt lat="50.45186" lon="2.98521">
        <ele>40.99</ele>
        <time>2017-07-16T11:42:52Z</time>
      </trkpt>
      <trkpt lat="50.45192" lon="2.98506">
        <ele>40.03</ele>
        <time>2017-07-16T11:43:01Z</time>
      </trkpt>
      <trkpt lat="50.45197" lon="2.9849">
        <ele>40.51</ele>
        <time>2017-07-16T11:43:10Z</time>
      </trkpt>
      <trkpt lat="50.45202" lon="2.98476">
        <ele>40.03</ele>
        <time>2017-07-16T11:43:18Z</time>
      </trkpt>
      <trkpt lat="50.45207" lon="2.98464">
        <ele>40.51</ele>
        <time>2017-07-16T11:43:26Z</time>
      </trkpt>
      <trkpt lat="50.45213" lon="2.98449">
        <ele>40.03</ele>
        <time>2017-07-16T11:43:34Z</time>
      </trkpt>
      <trkpt lat="50.45219" lon="2.98437">
        <ele>40.03</ele>
        <time>2017-07-16T11:43:42Z</time>
      </trkpt>
      <trkpt lat="50.45226" lon="2.98426">
        <ele>39.55</ele>
        <time>2017-07-16T11:43:50Z</time>
      </trkpt>
      <trkpt lat="50.45233" lon="2.98414">
        <ele>39.55</ele>
        <time>2017-07-16T11:43:58Z</time>
      </trkpt>
      <trkpt lat="50.4524" lon="2.98405">
        <ele>39.55</ele>
        <time>2017-07-16T11:44:05Z</time>
      </trkpt>
      <trkpt lat="50.45249" lon="2.98397">
        <ele>38.59</ele>
        <time>2017-07-16T11:44:13Z</time>
      </trkpt>
      <trkpt lat="50.45256" lon="2.98391">
        <ele>38.59</ele>
        <time>2017-07-16T11:44:20Z</time>
      </trkpt>
      <trkpt lat="50.45265" lon="2.98384">
        <ele>38.59</ele>
        <time>2017-07-16T11:44:27Z</time>
      </trkpt>
      <trkpt lat="50.45274" lon="2.9838">
        <ele>38.59</ele>
        <time>2017-07-16T11:44:34Z</time>
      </trkpt>
      <trkpt lat="50.45284" lon="2.98378">
        <ele>38.59</ele>
        <time>2017-07-16T11:44:42Z</time>
      </trkpt>
      <trkpt lat="50.45294" lon="2.98375">
        <ele>38.59</ele>
        <time>2017-07-16T11:44:50Z</time>
      </trkpt>
      <trkpt lat="50.45304" lon="2.98376">
        <ele>38.59</ele>
        <time>2017-07-16T11:44:58Z</time>
      </trkpt>
      <trkpt lat="50.45314" lon="2.9838">
        <ele>37.63</ele>
        <time>2017-07-16T11:45:06Z</time>
      </trkpt>
      <trkpt lat="50.45324" lon="2.98381">
        <ele>38.59</ele>
        <time>2017-07-16T11:45:14Z</time>
      </trkpt>
      <trkpt lat="50.45334" lon="2.98383">
        <ele>38.11</ele>
        <time>2017-07-16T11:45:22Z</time>
      </trkpt>
      <trkpt lat="50.45343" lon="2.98386">
        <ele>37.63</ele>
        <time>2017-07-16T11:45:30Z</time>
      </trkpt>
      <trkpt lat="50.45353" lon="2.98389">
        <ele>37.63</ele>
        <time>2017-07-16T11:45:38Z</time>
      </trkpt>
      <trkpt lat="50.45362" lon="2.98395">
        <ele>37.63</ele>
        <time>2017-07-16T11:45:46Z</time>
      </trkpt>
      <trkpt lat="50.45372" lon="2.98397">
        <ele>37.63</ele>
        <time>2017-07-16T11:45:54Z</time>
      </trkpt>
      <trkpt lat="50.45382" lon="2.98399">
        <ele>37.63</ele>
        <time>2017-07-16T11:46:02Z</time>
      </trkpt>
      <trkpt lat="50.45391" lon="2.984">
        <ele>37.63</ele>
        <time>2017-07-16T11:46:10Z</time>
      </trkpt>
      <trkpt lat="50.454" lon="2.98401">
        <ele>38.11</ele>
        <time>2017-07-16T11:46:18Z</time>
      </trkpt>
      <trkpt lat="50.4541" lon="2.98403">
        <ele>38.59</ele>
        <time>2017-07-16T11:46:28Z</time>
      </trkpt>
      <trkpt lat="50.4542" lon="2.98402">
        <ele>38.59</ele>
        <time>2017-07-16T11:46:36Z</time>
      </trkpt>
      <trkpt lat="50.45428" lon="2.98397">
        <ele>39.07</ele>
        <time>2017-07-16T11:46:44Z</time>
      </trkpt>
      <trkpt lat="50.45438" lon="2.98393">
        <ele>38.11</ele>
        <time>2017-07-16T11:46:53Z</time>
      </trkpt>
      <trkpt lat="50.45447" lon="2.98388">
        <ele>37.63</ele>
        <time>2017-07-16T11:47:01Z</time>
      </trkpt>
      <trkpt lat="50.45456" lon="2.98383">
        <ele>37.63</ele>
        <time>2017-07-16T11:47:09Z</time>
      </trkpt>
      <trkpt lat="50.45467" lon="2.98383">
        <ele>36.67</ele>
        <time>2017-07-16T11:47:18Z</time>
      </trkpt>
      <trkpt lat="50.45477" lon="2.98382">
        <ele>35.23</ele>
        <time>2017-07-16T11:47:27Z</time>
      </trkpt>
      <trkpt lat="50.45488" lon="2.98385">
        <ele>35.23</ele>
        <time>2017-07-16T11:47:37Z</time>
      </trkpt>
      <trkpt lat="50.455" lon="2.9839">
        <ele>33.78</ele>
        <time>2017-07-16T11:47:52Z</time>
      </trkpt>
      <trkpt lat="50.45511" lon="2.98396">
        <ele>33.3</ele>
        <time>2017-07-16T11:48:05Z</time>
      </trkpt>
      <trkpt lat="50.45522" lon="2.98399">
        <ele>32.82</ele>
        <time>2017-07-16T11:48:13Z</time>
      </trkpt>
      <trkpt lat="50.45535" lon="2.98404">
        <ele>32.34</ele>
        <time>2017-07-16T11:48:22Z</time>
      </trkpt>
      <trkpt lat="50.45552" lon="2.98408">
        <ele>31.38</ele>
        <time>2017-07-16T11:48:30Z</time>
      </trkpt>
      <trkpt lat="50.45565" lon="2.98412">
        <ele>30.42</ele>
        <time>2017-07-16T11:48:39Z</time>
      </trkpt>
      <trkpt lat="50.45578" lon="2.98415">
        <ele>29.94</ele>
        <time>2017-07-16T11:48:48Z</time>
      </trkpt>
      <trkpt lat="50.45588" lon="2.9842">
        <ele>29.94</ele>
        <time>2017-07-16T11:49:02Z</time>
      </trkpt>
      <trkpt lat="50.45596" lon="2.98423">
        <ele>28.98</ele>
        <time>2017-07-16T11:49:18Z</time>
      </trkpt>
      <trkpt lat="50.45608" lon="2.98427">
        <ele>28.02</ele>
        <time>2017-07-16T11:49:30Z</time>
      </trkpt>
      <trkpt lat="50.45622" lon="2.98435">
        <ele>27.05</ele>
        <time>2017-07-16T11:49:45Z</time>
      </trkpt>
      <trkpt lat="50.45639" lon="2.98442">
        <ele>26.09</ele>
        <time>2017-07-16T11:50:06Z</time>
      </trkpt>
      <trkpt lat="50.45654" lon="2.98446">
        <ele>25.13</ele>
        <time>2017-07-16T11:50:21Z</time>
      </trkpt>
      <trkpt lat="50.45679" lon="2.98447">
        <ele>25.13</ele>
        <time>2017-07-16T11:51:11Z</time>
      </trkpt>
      <trkpt lat="50.45685" lon="2.98436">
        <ele>24.65</ele>
        <time>2017-07-16T11:51:21Z</time>
      </trkpt>
      <trkpt lat="50.45693" lon="2.98436">
        <ele>23.69</ele>
        <time>2017-07-16T11:51:36Z</time>
      </trkpt>
      <trkpt lat="50.45705" lon="2.98437">
        <ele>22.73</ele>
        <time>2017-07-16T11:51:44Z</time>
      </trkpt>
      <trkpt lat="50.45714" lon="2.98442">
        <ele>24.17</ele>
        <time>2017-07-16T11:51:52Z</time>
      </trkpt>
      <trkpt lat="50.45723" lon="2.98449">
        <ele>24.65</ele>
        <time>2017-07-16T11:52:01Z</time>
      </trkpt>
      <trkpt lat="50.45732" lon="2.98453">
        <ele>24.65</ele>
        <time>2017-07-16T11:52:14Z</time>
      </trkpt>
      <trkpt lat="50.45744" lon="2.98452">
        <ele>25.61</ele>
        <time>2017-07-16T11:52:33Z</time>
      </trkpt>
      <trkpt lat="50.45759" lon="2.98453">
        <ele>26.57</ele>
        <time>2017-07-16T11:52:44Z</time>
      </trkpt>
      <trkpt lat="50.4577" lon="2.98459">
        <ele>27.05</ele>
        <time>2017-07-16T11:52:55Z</time>
      </trkpt>
      <trkpt lat="50.45783" lon="2.98463">
        <ele>28.98</ele>
        <time>2017-07-16T11:53:06Z</time>
      </trkpt>
      <trkpt lat="50.45795" lon="2.98466">
        <ele>29.94</ele>
        <time>2017-07-16T11:53:16Z</time>
      </trkpt>
      <trkpt lat="50.45807" lon="2.98469">
        <ele>31.38</ele>
        <time>2017-07-16T11:53:26Z</time>
      </trkpt>
      <trkpt lat="50.45817" lon="2.98473">
        <ele>32.82</ele>
        <time>2017-07-16T11:53:37Z</time>
      </trkpt>
      <trkpt lat="50.45827" lon="2.98474">
        <ele>33.78</ele>
        <time>2017-07-16T11:53:47Z</time>
      </trkpt>
      <trkpt lat="50.45826" lon="2.98463">
        <ele>34.26</ele>
        <time>2017-07-16T11:53:55Z</time>
      </trkpt>
      <trkpt lat="50.45817" lon="2.98456">
        <ele>33.78</ele>
        <time>2017-07-16T11:54:03Z</time>
      </trkpt>
      <trkpt lat="50.45808" lon="2.98453">
        <ele>33.78</ele>
        <time>2017-07-16T11:54:11Z</time>
      </trkpt>
      <trkpt lat="50.458" lon="2.98448">
        <ele>33.78</ele>
        <time>2017-07-16T11:54:19Z</time>
      </trkpt>
      <trkpt lat="50.45791" lon="2.98442">
        <ele>34.26</ele>
        <time>2017-07-16T11:54:27Z</time>
      </trkpt>
      <trkpt lat="50.45781" lon="2.98437">
        <ele>34.26</ele>
        <time>2017-07-16T11:54:35Z</time>
      </trkpt>
      <trkpt lat="50.45771" lon="2.98431">
        <ele>33.3</ele>
        <time>2017-07-16T11:54:43Z</time>
      </trkpt>
      <trkpt lat="50.45762" lon="2.98423">
        <ele>33.3</ele>
        <time>2017-07-16T11:54:51Z</time>
      </trkpt>
      <trkpt lat="50.45753" lon="2.98417">
        <ele>33.78</ele>
        <time>2017-07-16T11:54:59Z</time>
      </trkpt>
      <trkpt lat="50.45744" lon="2.9841">
        <ele>33.3</ele>
        <time>2017-07-16T11:55:07Z</time>
      </trkpt>
      <trkpt lat="50.45738" lon="2.98398">
        <ele>33.78</ele>
        <time>2017-07-16T11:55:14Z</time>
      </trkpt>
      <trkpt lat="50.45736" lon="2.98383">
        <ele>33.78</ele>
        <time>2017-07-16T11:55:21Z</time>
      </trkpt>
      <trkpt lat="50.45736" lon="2.98368">
        <ele>33.3</ele>
        <time>2017-07-16T11:55:29Z</time>
      </trkpt>
      <trkpt lat="50.45737" lon="2.98352">
        <ele>33.3</ele>
        <time>2017-07-16T11:55:37Z</time>
      </trkpt>
      <trkpt lat="50.45737" lon="2.98336">
        <ele>33.3</ele>
        <time>2017-07-16T11:55:45Z</time>
      </trkpt>
      <trkpt lat="50.45738" lon="2.9832">
        <ele>32.82</ele>
        <time>2017-07-16T11:55:53Z</time>
      </trkpt>
      <trkpt lat="50.4574" lon="2.98305">
        <ele>32.82</ele>
        <time>2017-07-16T11:56:01Z</time>
      </trkpt>
      <trkpt lat="50.45738" lon="2.9829">
        <ele>33.3</ele>
        <time>2017-07-16T11:56:11Z</time>
      </trkpt>
      <trkpt lat="50.45738" lon="2.98273">
        <ele>33.78</ele>
        <time>2017-07-16T11:56:23Z</time>
      </trkpt>
      <trkpt lat="50.45743" lon="2.98259">
        <ele>33.78</ele>
        <time>2017-07-16T11:56:31Z</time>
      </trkpt>
      <trkpt lat="50.45746" lon="2.98242">
        <ele>33.3</ele>
        <time>2017-07-16T11:56:40Z</time>
      </trkpt>
      <trkpt lat="50.45751" lon="2.98227">
        <ele>33.3</ele>
        <time>2017-07-16T11:56:48Z</time>
      </trkpt>
      <trkpt lat="50.45757" lon="2.98213">
        <ele>33.3</ele>
        <time>2017-07-16T11:56:57Z</time>
      </trkpt>
      <trkpt lat="50.45765" lon="2.98204">
        <ele>33.3</ele>
        <time>2017-07-16T11:57:05Z</time>
      </trkpt>
      <trkpt lat="50.45774" lon="2.98197">
        <ele>33.3</ele>
        <time>2017-07-16T11:57:14Z</time>
      </trkpt>
      <trkpt lat="50.45782" lon="2.9819">
        <ele>32.82</ele>
        <time>2017-07-16T11:57:27Z</time>
      </trkpt>
      <trkpt lat="50.45791" lon="2.9818">
        <ele>32.82</ele>
        <time>2017-07-16T11:57:35Z</time>
      </trkpt>
      <trkpt lat="50.45799" lon="2.98169">
        <ele>32.82</ele>
        <time>2017-07-16T11:57:43Z</time>
      </trkpt>
      <trkpt lat="50.45806" lon="2.98159">
        <ele>32.82</ele>
        <time>2017-07-16T11:57:51Z</time>
      </trkpt>
      <trkpt lat="50.45813" lon="2.98145">
        <ele>32.34</ele>
        <time>2017-07-16T11:57:59Z</time>
      </trkpt>
      <trkpt lat="50.4582" lon="2.98133">
        <ele>32.82</ele>
        <time>2017-07-16T11:58:07Z</time>
      </trkpt>
      <trkpt lat="50.45827" lon="2.98123">
        <ele>32.34</ele>
        <time>2017-07-16T11:58:14Z</time>
      </trkpt>
      <trkpt lat="50.45834" lon="2.98111">
        <ele>32.82</ele>
        <time>2017-07-16T11:58:23Z</time>
      </trkpt>
      <trkpt lat="50.4584" lon="2.98097">
        <ele>32.34</ele>
        <time>2017-07-16T11:58:31Z</time>
      </trkpt>
      <trkpt lat="50.45847" lon="2.98085">
        <ele>32.34</ele>
        <time>2017-07-16T11:58:39Z</time>
      </trkpt>
      <trkpt lat="50.45855" lon="2.98075">
        <ele>32.82</ele>
        <time>2017-07-16T11:58:47Z</time>
      </trkpt>
      <trkpt lat="50.45863" lon="2.98064">
        <ele>31.86</ele>
        <time>2017-07-16T11:58:55Z</time>
      </trkpt>
      <trkpt lat="50.45872" lon="2.98057">
        <ele>31.86</ele>
        <time>2017-07-16T11:59:03Z</time>
      </trkpt>
      <trkpt lat="50.45882" lon="2.98052">
        <ele>32.34</ele>
        <time>2017-07-16T11:59:11Z</time>
      </trkpt>
      <trkpt lat="50.45892" lon="2.98048">
        <ele>32.34</ele>
        <time>2017-07-16T11:59:19Z</time>
      </trkpt>
      <trkpt lat="50.45902" lon="2.98046">
        <ele>31.86</ele>
        <time>2017-07-16T11:59:27Z</time>
      </trkpt>
      <trkpt lat="50.45912" lon="2.98048">
        <ele>32.34</ele>
        <time>2017-07-16T11:59:35Z</time>
      </trkpt>
      <trkpt lat="50.45921" lon="2.98055">
        <ele>31.86</ele>
        <time>2017-07-16T11:59:42Z</time>
      </trkpt>
      <trkpt lat="50.4593" lon="2.98064">
        <ele>32.34</ele>
        <time>2017-07-16T11:59:51Z</time>
      </trkpt>
      <trkpt lat="50.45932" lon="2.98079">
        <ele>32.34</ele>
        <time>2017-07-16T11:59:58Z</time>
      </trkpt>
      <trkpt lat="50.45935" lon="2.98093">
        <ele>30.9</ele>
        <time>2017-07-16T12:00:05Z</time>
      </trkpt>
      <trkpt lat="50.45942" lon="2.98105">
        <ele>31.38</ele>
        <time>2017-07-16T12:00:13Z</time>
      </trkpt>
      <trkpt lat="50.45946" lon="2.98117">
        <ele>30.9</ele>
        <time>2017-07-16T12:00:33Z</time>
      </trkpt>
      <trkpt lat="50.45952" lon="2.98131">
        <ele>31.86</ele>
        <time>2017-07-16T12:00:42Z</time>
      </trkpt>
      <trkpt lat="50.45957" lon="2.98146">
        <ele>31.86</ele>
        <time>2017-07-16T12:00:51Z</time>
      </trkpt>
      <trkpt lat="50.45963" lon="2.9816">
        <ele>32.82</ele>
        <time>2017-07-16T12:01:00Z</time>
      </trkpt>
      <trkpt lat="50.45969" lon="2.9817">
        <ele>32.82</ele>
        <time>2017-07-16T12:01:08Z</time>
      </trkpt>
      <trkpt lat="50.45977" lon="2.98182">
        <ele>32.82</ele>
        <time>2017-07-16T12:01:16Z</time>
      </trkpt>
      <trkpt lat="50.45983" lon="2.98196">
        <ele>33.78</ele>
        <time>2017-07-16T12:01:24Z</time>
      </trkpt>
      <trkpt lat="50.45988" lon="2.98209">
        <ele>34.26</ele>
        <time>2017-07-16T12:01:32Z</time>
      </trkpt>
      <trkpt lat="50.45993" lon="2.98222">
        <ele>34.74</ele>
        <time>2017-07-16T12:01:40Z</time>
      </trkpt>
      <trkpt lat="50.45999" lon="2.98234">
        <ele>34.74</ele>
        <time>2017-07-16T12:01:47Z</time>
      </trkpt>
      <trkpt lat="50.46004" lon="2.98246">
        <ele>35.23</ele>
        <time>2017-07-16T12:01:54Z</time>
      </trkpt>
      <trkpt lat="50.46009" lon="2.98259">
        <ele>35.71</ele>
        <time>2017-07-16T12:02:01Z</time>
      </trkpt>
      <trkpt lat="50.46014" lon="2.98271">
        <ele>36.19</ele>
        <time>2017-07-16T12:02:08Z</time>
      </trkpt>
      <trkpt lat="50.4602" lon="2.98282">
        <ele>36.19</ele>
        <time>2017-07-16T12:02:16Z</time>
      </trkpt>
      <trkpt lat="50.46026" lon="2.98292">
        <ele>36.19</ele>
        <time>2017-07-16T12:02:24Z</time>
      </trkpt>
      <trkpt lat="50.46035" lon="2.98298">
        <ele>35.71</ele>
        <time>2017-07-16T12:02:32Z</time>
      </trkpt>
      <trkpt lat="50.46045" lon="2.98306">
        <ele>36.19</ele>
        <time>2017-07-16T12:02:40Z</time>
      </trkpt>
      <trkpt lat="50.46051" lon="2.98317">
        <ele>36.19</ele>
        <time>2017-07-16T12:02:48Z</time>
      </trkpt>
      <trkpt lat="50.46057" lon="2.98329">
        <ele>36.67</ele>
        <time>2017-07-16T12:02:56Z</time>
      </trkpt>
      <trkpt lat="50.46063" lon="2.98343">
        <ele>37.15</ele>
        <time>2017-07-16T12:03:04Z</time>
      </trkpt>
      <trkpt lat="50.46068" lon="2.98359">
        <ele>37.63</ele>
        <time>2017-07-16T12:03:16Z</time>
      </trkpt>
      <trkpt lat="50.46072" lon="2.98374">
        <ele>38.59</ele>
        <time>2017-07-16T12:03:24Z</time>
      </trkpt>
      <trkpt lat="50.46073" lon="2.9839">
        <ele>38.11</ele>
        <time>2017-07-16T12:03:32Z</time>
      </trkpt>
      <trkpt lat="50.46072" lon="2.98405">
        <ele>38.59</ele>
        <time>2017-07-16T12:03:40Z</time>
      </trkpt>
      <trkpt lat="50.46072" lon="2.9842">
        <ele>38.59</ele>
        <time>2017-07-16T12:03:48Z</time>
      </trkpt>
      <trkpt lat="50.46069" lon="2.98436">
        <ele>39.07</ele>
        <time>2017-07-16T12:03:56Z</time>
      </trkpt>
      <trkpt lat="50.46067" lon="2.98451">
        <ele>39.07</ele>
        <time>2017-07-16T12:04:04Z</time>
      </trkpt>
      <trkpt lat="50.46065" lon="2.98466">
        <ele>39.55</ele>
        <time>2017-07-16T12:04:12Z</time>
      </trkpt>
      <trkpt lat="50.4606" lon="2.98481">
        <ele>40.51</ele>
        <time>2017-07-16T12:04:21Z</time>
      </trkpt>
      <trkpt lat="50.46054" lon="2.98493">
        <ele>40.99</ele>
        <time>2017-07-16T12:04:39Z</time>
      </trkpt>
      <trkpt lat="50.46044" lon="2.98498">
        <ele>40.99</ele>
        <time>2017-07-16T12:04:48Z</time>
      </trkpt>
      <trkpt lat="50.46033" lon="2.98501">
        <ele>41.47</ele>
        <time>2017-07-16T12:04:57Z</time>
      </trkpt>
      <trkpt lat="50.46023" lon="2.98504">
        <ele>42.44</ele>
        <time>2017-07-16T12:05:05Z</time>
      </trkpt>
      <trkpt lat="50.46013" lon="2.98505">
        <ele>42.44</ele>
        <time>2017-07-16T12:05:13Z</time>
      </trkpt>
      <trkpt lat="50.46006" lon="2.98505">
        <ele>42.92</ele>
        <time>2017-07-16T12:05:43Z</time>
      </trkpt>
      <trkpt lat="50.45995" lon="2.98502">
        <ele>43.88</ele>
        <time>2017-07-16T12:05:51Z</time>
      </trkpt>
      <trkpt lat="50.45986" lon="2.98495">
        <ele>43.88</ele>
        <time>2017-07-16T12:06:15Z</time>
      </trkpt>
      <trkpt lat="50.45981" lon="2.98489">
        <ele>43.88</ele>
        <time>2017-07-16T12:06:41Z</time>
      </trkpt>
      <trkpt lat="50.45973" lon="2.9848">
        <ele>44.36</ele>
        <time>2017-07-16T12:06:49Z</time>
      </trkpt>
      <trkpt lat="50.45966" lon="2.98468">
        <ele>45.32</ele>
        <time>2017-07-16T12:07:00Z</time>
      </trkpt>
      <trkpt lat="50.45961" lon="2.98454">
        <ele>45.32</ele>
        <time>2017-07-16T12:07:09Z</time>
      </trkpt>
      <trkpt lat="50.45957" lon="2.98442">
        <ele>46.28</ele>
        <time>2017-07-16T12:07:19Z</time>
      </trkpt>
      <trkpt lat="50.45958" lon="2.9843">
        <ele>45.32</ele>
        <time>2017-07-16T12:08:10Z</time>
      </trkpt>
      <trkpt lat="50.45958" lon="2.98415">
        <ele>45.8</ele>
        <time>2017-07-16T12:08:18Z</time>
      </trkpt>
      <trkpt lat="50.45961" lon="2.98399">
        <ele>46.76</ele>
        <time>2017-07-16T12:08:27Z</time>
      </trkpt>
      <trkpt lat="50.45964" lon="2.98392">
        <ele>46.28</ele>
        <time>2017-07-16T12:08:49Z</time>
      </trkpt>
      <trkpt lat="50.45969" lon="2.98381">
        <ele>46.76</ele>
        <time>2017-07-16T12:08:57Z</time>
      </trkpt>
      <trkpt lat="50.45974" lon="2.98376">
        <ele>47.24</ele>
        <time>2017-07-16T12:09:20Z</time>
      </trkpt>
      <trkpt lat="50.45983" lon="2.98366">
        <ele>47.72</ele>
        <time>2017-07-16T12:09:27Z</time>
      </trkpt>
      <trkpt lat="50.45991" lon="2.98358">
        <ele>48.2</ele>
        <time>2017-07-16T12:09:35Z</time>
      </trkpt>
      <trkpt lat="50.46001" lon="2.98352">
        <ele>48.68</ele>
        <time>2017-07-16T12:09:43Z</time>
      </trkpt>
      <trkpt lat="50.46008" lon="2.98348">
        <ele>49.65</ele>
        <time>2017-07-16T12:09:56Z</time>
      </trkpt>
      <trkpt lat="50.46014" lon="2.98357">
        <ele>50.61</ele>
        <time>2017-07-16T12:10:04Z</time>
      </trkpt>
      <trkpt lat="50.46009" lon="2.98366">
        <ele>53.97</ele>
        <time>2017-07-16T12:10:20Z</time>
      </trkpt>
      <trkpt lat="50.46005" lon="2.98376">
        <ele>56.37</ele>
        <time>2017-07-16T12:10:45Z</time>
      </trkpt>
      <trkpt lat="50.46001" lon="2.98388">
        <ele>59.74</ele>
        <time>2017-07-16T12:11:06Z</time>
      </trkpt>
      <trkpt lat="50.45999" lon="2.98401">
        <ele>61.18</ele>
        <time>2017-07-16T12:11:20Z</time>
      </trkpt>
      <trkpt lat="50.45999" lon="2.98408">
        <ele>63.58</ele>
        <time>2017-07-16T12:11:42Z</time>
      </trkpt>
      <trkpt lat="50.46001" lon="2.98425">
        <ele>65.51</ele>
        <time>2017-07-16T12:11:56Z</time>
      </trkpt>
      <trkpt lat="50.46006" lon="2.98433">
        <ele>67.43</ele>
        <time>2017-07-16T12:12:19Z</time>
      </trkpt>
      <trkpt lat="50.46004" lon="2.98424">
        <ele>67.43</ele>
        <time>2017-07-16T12:14:01Z</time>
      </trkpt>
      <trkpt lat="50.46009" lon="2.98411">
        <ele>66.95</ele>
        <time>2017-07-16T12:14:12Z</time>
      </trkpt>
      <trkpt lat="50.46009" lon="2.98417">
        <ele>66.47</ele>
        <time>2017-07-16T12:15:03Z</time>
      </trkpt>
      <trkpt lat="50.46016" lon="2.98428">
        <ele>65.99</ele>
        <time>2017-07-16T12:15:14Z</time>
      </trkpt>
      <trkpt lat="50.46013" lon="2.9843">
        <ele>66.95</ele>
        <time>2017-07-16T12:15:47Z</time>
      </trkpt>
      <trkpt lat="50.46009" lon="2.9843">
        <ele>66.95</ele>
        <time>2017-07-16T12:16:14Z</time>
      </trkpt>
      <trkpt lat="50.46001" lon="2.98421">
        <ele>65.03</ele>
        <time>2017-07-16T12:16:30Z</time>
      </trkpt>
      <trkpt lat="50.45997" lon="2.98408">
        <ele>63.58</ele>
        <time>2017-07-16T12:16:44Z</time>
      </trkpt>
      <trkpt lat="50.45998" lon="2.98395">
        <ele>60.22</ele>
        <time>2017-07-16T12:16:57Z</time>
      </trkpt>
      <trkpt lat="50.46" lon="2.98385">
        <ele>57.34</ele>
        <time>2017-07-16T12:17:11Z</time>
      </trkpt>
      <trkpt lat="50.46005" lon="2.9837">
        <ele>54.93</ele>
        <time>2017-07-16T12:17:25Z</time>
      </trkpt>
      <trkpt lat="50.46008" lon="2.98362">
        <ele>52.53</ele>
        <time>2017-07-16T12:17:41Z</time>
      </trkpt>
      <trkpt lat="50.46012" lon="2.98354">
        <ele>49.65</ele>
        <time>2017-07-16T12:18:00Z</time>
      </trkpt>
      <trkpt lat="50.46014" lon="2.9835">
        <ele>49.65</ele>
        <time>2017-07-16T12:18:42Z</time>
      </trkpt>
      <trkpt lat="50.46008" lon="2.98342">
        <ele>49.16</ele>
        <time>2017-07-16T12:18:55Z</time>
      </trkpt>
      <trkpt lat="50.45999" lon="2.98345">
        <ele>49.16</ele>
        <time>2017-07-16T12:19:05Z</time>
      </trkpt>
      <trkpt lat="50.45991" lon="2.98349">
        <ele>48.68</ele>
        <time>2017-07-16T12:19:14Z</time>
      </trkpt>
      <trkpt lat="50.45984" lon="2.98357">
        <ele>48.2</ele>
        <time>2017-07-16T12:19:23Z</time>
      </trkpt>
      <trkpt lat="50.45977" lon="2.98368">
        <ele>47.72</ele>
        <time>2017-07-16T12:19:31Z</time>
      </trkpt>
      <trkpt lat="50.45972" lon="2.9838">
        <ele>46.28</ele>
        <time>2017-07-16T12:19:39Z</time>
      </trkpt>
      <trkpt lat="50.45966" lon="2.98393">
        <ele>46.28</ele>
        <time>2017-07-16T12:19:50Z</time>
      </trkpt>
      <trkpt lat="50.45962" lon="2.98407">
        <ele>46.28</ele>
        <time>2017-07-16T12:19:59Z</time>
      </trkpt>
      <trkpt lat="50.4596" lon="2.98424">
        <ele>45.32</ele>
        <time>2017-07-16T12:20:08Z</time>
      </trkpt>
      <trkpt lat="50.45962" lon="2.98438">
        <ele>45.8</ele>
        <time>2017-07-16T12:20:22Z</time>
      </trkpt>
      <trkpt lat="50.45961" lon="2.98453">
        <ele>44.84</ele>
        <time>2017-07-16T12:20:31Z</time>
      </trkpt>
      <trkpt lat="50.45966" lon="2.98468">
        <ele>43.88</ele>
        <time>2017-07-16T12:20:39Z</time>
      </trkpt>
      <trkpt lat="50.45974" lon="2.98482">
        <ele>43.88</ele>
        <time>2017-07-16T12:20:48Z</time>
      </trkpt>
      <trkpt lat="50.4598" lon="2.98494">
        <ele>43.4</ele>
        <time>2017-07-16T12:20:56Z</time>
      </trkpt>
      <trkpt lat="50.4599" lon="2.98501">
        <ele>43.4</ele>
        <time>2017-07-16T12:21:05Z</time>
      </trkpt>
      <trkpt lat="50.46" lon="2.98505">
        <ele>43.4</ele>
        <time>2017-07-16T12:21:14Z</time>
      </trkpt>
      <trkpt lat="50.4601" lon="2.98505">
        <ele>41.95</ele>
        <time>2017-07-16T12:21:22Z</time>
      </trkpt>
      <trkpt lat="50.46021" lon="2.98504">
        <ele>41.47</ele>
        <time>2017-07-16T12:21:44Z</time>
      </trkpt>
      <trkpt lat="50.46032" lon="2.98501">
        <ele>40.99</ele>
        <time>2017-07-16T12:21:52Z</time>
      </trkpt>
      <trkpt lat="50.46042" lon="2.98497">
        <ele>40.51</ele>
        <time>2017-07-16T12:21:59Z</time>
      </trkpt>
      <trkpt lat="50.46051" lon="2.9849">
        <ele>40.03</ele>
        <time>2017-07-16T12:22:06Z</time>
      </trkpt>
      <trkpt lat="50.46056" lon="2.98477">
        <ele>39.55</ele>
        <time>2017-07-16T12:22:14Z</time>
      </trkpt>
      <trkpt lat="50.4606" lon="2.98464">
        <ele>39.55</ele>
        <time>2017-07-16T12:22:21Z</time>
      </trkpt>
      <trkpt lat="50.46065" lon="2.98451">
        <ele>39.07</ele>
        <time>2017-07-16T12:22:28Z</time>
      </trkpt>
      <trkpt lat="50.46069" lon="2.98437">
        <ele>38.59</ele>
        <time>2017-07-16T12:22:37Z</time>
      </trkpt>
      <trkpt lat="50.46071" lon="2.98421">
        <ele>38.11</ele>
        <time>2017-07-16T12:22:46Z</time>
      </trkpt>
      <trkpt lat="50.4607" lon="2.98403">
        <ele>38.11</ele>
        <time>2017-07-16T12:22:55Z</time>
      </trkpt>
      <trkpt lat="50.46067" lon="2.98386">
        <ele>38.11</ele>
        <time>2017-07-16T12:23:03Z</time>
      </trkpt>
      <trkpt lat="50.46069" lon="2.98368">
        <ele>37.63</ele>
        <time>2017-07-16T12:23:12Z</time>
      </trkpt>
      <trkpt lat="50.46075" lon="2.98355">
        <ele>36.67</ele>
        <time>2017-07-16T12:23:21Z</time>
      </trkpt>
      <trkpt lat="50.46083" lon="2.98346">
        <ele>35.23</ele>
        <time>2017-07-16T12:23:31Z</time>
      </trkpt>
      <trkpt lat="50.46088" lon="2.98331">
        <ele>33.3</ele>
        <time>2017-07-16T12:23:41Z</time>
      </trkpt>
      <trkpt lat="50.46092" lon="2.98311">
        <ele>29.94</ele>
        <time>2017-07-16T12:23:58Z</time>
      </trkpt>
      <trkpt lat="50.46103" lon="2.98306">
        <ele>27.05</ele>
        <time>2017-07-16T12:24:13Z</time>
      </trkpt>
      <trkpt lat="50.46111" lon="2.98319">
        <ele>25.13</ele>
        <time>2017-07-16T12:24:24Z</time>
      </trkpt>
      <trkpt lat="50.46112" lon="2.98336">
        <ele>24.65</ele>
        <time>2017-07-16T12:24:33Z</time>
      </trkpt>
      <trkpt lat="50.4611" lon="2.98352">
        <ele>24.65</ele>
        <time>2017-07-16T12:24:44Z</time>
      </trkpt>
      <trkpt lat="50.4611" lon="2.98367">
        <ele>24.17</ele>
        <time>2017-07-16T12:25:05Z</time>
      </trkpt>
      <trkpt lat="50.4611" lon="2.98387">
        <ele>24.65</ele>
        <time>2017-07-16T12:25:14Z</time>
      </trkpt>
      <trkpt lat="50.46115" lon="2.98403">
        <ele>24.17</ele>
        <time>2017-07-16T12:25:35Z</time>
      </trkpt>
      <trkpt lat="50.4612" lon="2.9842">
        <ele>24.65</ele>
        <time>2017-07-16T12:25:45Z</time>
      </trkpt>
      <trkpt lat="50.46134" lon="2.98437">
        <ele>24.17</ele>
        <time>2017-07-16T12:25:53Z</time>
      </trkpt>
      <trkpt lat="50.46148" lon="2.98444">
        <ele>23.69</ele>
        <time>2017-07-16T12:26:02Z</time>
      </trkpt>
      <trkpt lat="50.46163" lon="2.98442">
        <ele>23.69</ele>
        <time>2017-07-16T12:26:13Z</time>
      </trkpt>
      <trkpt lat="50.46174" lon="2.98436">
        <ele>23.69</ele>
        <time>2017-07-16T12:26:27Z</time>
      </trkpt>
      <trkpt lat="50.46189" lon="2.98421">
        <ele>23.21</ele>
        <time>2017-07-16T12:26:38Z</time>
      </trkpt>
      <trkpt lat="50.462" lon="2.98407">
        <ele>23.69</ele>
        <time>2017-07-16T12:26:51Z</time>
      </trkpt>
      <trkpt lat="50.46205" lon="2.98383">
        <ele>23.69</ele>
        <time>2017-07-16T12:27:01Z</time>
      </trkpt>
      <trkpt lat="50.46211" lon="2.98366">
        <ele>24.17</ele>
        <time>2017-07-16T12:27:11Z</time>
      </trkpt>
      <trkpt lat="50.46221" lon="2.98353">
        <ele>24.17</ele>
        <time>2017-07-16T12:27:33Z</time>
      </trkpt>
      <trkpt lat="50.46229" lon="2.98338">
        <ele>24.65</ele>
        <time>2017-07-16T12:27:44Z</time>
      </trkpt>
      <trkpt lat="50.46235" lon="2.98316">
        <ele>25.13</ele>
        <time>2017-07-16T12:27:56Z</time>
      </trkpt>
      <trkpt lat="50.46233" lon="2.98298">
        <ele>24.65</ele>
        <time>2017-07-16T12:28:11Z</time>
      </trkpt>
      <trkpt lat="50.4622" lon="2.98291">
        <ele>24.65</ele>
        <time>2017-07-16T12:28:25Z</time>
      </trkpt>
      <trkpt lat="50.46209" lon="2.98282">
        <ele>24.65</ele>
        <time>2017-07-16T12:28:40Z</time>
      </trkpt>
      <trkpt lat="50.46194" lon="2.98274">
        <ele>23.21</ele>
        <time>2017-07-16T12:29:21Z</time>
      </trkpt>
      <trkpt lat="50.46202" lon="2.98267">
        <ele>25.13</ele>
        <time>2017-07-16T12:29:36Z</time>
      </trkpt>
      <trkpt lat="50.46209" lon="2.98254">
        <ele>25.13</ele>
        <time>2017-07-16T12:29:45Z</time>
      </trkpt>
      <trkpt lat="50.46216" lon="2.98237">
        <ele>23.69</ele>
        <time>2017-07-16T12:29:55Z</time>
      </trkpt>
      <trkpt lat="50.4622" lon="2.98218">
        <ele>24.17</ele>
        <time>2017-07-16T12:30:13Z</time>
      </trkpt>
      <trkpt lat="50.46224" lon="2.98184">
        <ele>24.17</ele>
        <time>2017-07-16T12:30:24Z</time>
      </trkpt>
      <trkpt lat="50.46234" lon="2.98162">
        <ele>24.65</ele>
        <time>2017-07-16T12:30:35Z</time>
      </trkpt>
      <trkpt lat="50.46239" lon="2.98144">
        <ele>24.65</ele>
        <time>2017-07-16T12:30:52Z</time>
      </trkpt>
      <trkpt lat="50.46248" lon="2.98128">
        <ele>24.17</ele>
        <time>2017-07-16T12:31:01Z</time>
      </trkpt>
      <trkpt lat="50.46248" lon="2.98109">
        <ele>23.69</ele>
        <time>2017-07-16T12:31:14Z</time>
      </trkpt>
      <trkpt lat="50.46238" lon="2.98095">
        <ele>23.21</ele>
        <time>2017-07-16T12:31:22Z</time>
      </trkpt>
      <trkpt lat="50.46224" lon="2.98083">
        <ele>23.69</ele>
        <time>2017-07-16T12:31:35Z</time>
      </trkpt>
      <trkpt lat="50.46213" lon="2.98071">
        <ele>23.69</ele>
        <time>2017-07-16T12:31:51Z</time>
      </trkpt>
      <trkpt lat="50.46202" lon="2.98061">
        <ele>23.69</ele>
        <time>2017-07-16T12:32:03Z</time>
      </trkpt>
      <trkpt lat="50.46185" lon="2.98049">
        <ele>23.69</ele>
        <time>2017-07-16T12:32:13Z</time>
      </trkpt>
      <trkpt lat="50.46166" lon="2.98041">
        <ele>24.17</ele>
        <time>2017-07-16T12:32:26Z</time>
      </trkpt>
      <trkpt lat="50.46152" lon="2.98031">
        <ele>23.21</ele>
        <time>2017-07-16T12:32:36Z</time>
      </trkpt>
      <trkpt lat="50.46147" lon="2.98017">
        <ele>23.69</ele>
        <time>2017-07-16T12:32:46Z</time>
      </trkpt>
      <trkpt lat="50.46149" lon="2.97994">
        <ele>24.17</ele>
        <time>2017-07-16T12:32:59Z</time>
      </trkpt>
      <trkpt lat="50.46161" lon="2.97976">
        <ele>24.17</ele>
        <time>2017-07-16T12:33:10Z</time>
      </trkpt>
      <trkpt lat="50.46166" lon="2.97952">
        <ele>23.69</ele>
        <time>2017-07-16T12:33:27Z</time>
      </trkpt>
      <trkpt lat="50.46156" lon="2.97939">
        <ele>23.69</ele>
        <time>2017-07-16T12:33:37Z</time>
      </trkpt>
      <trkpt lat="50.46146" lon="2.97928">
        <ele>23.21</ele>
        <time>2017-07-16T12:33:45Z</time>
      </trkpt>
      <trkpt lat="50.46131" lon="2.97909">
        <ele>23.69</ele>
        <time>2017-07-16T12:33:57Z</time>
      </trkpt>
      <trkpt lat="50.46124" lon="2.97891">
        <ele>23.69</ele>
        <time>2017-07-16T12:34:09Z</time>
      </trkpt>
      <trkpt lat="50.46119" lon="2.97867">
        <ele>23.21</ele>
        <time>2017-07-16T12:34:22Z</time>
      </trkpt>
      <trkpt lat="50.46118" lon="2.97841">
        <ele>23.69</ele>
        <time>2017-07-16T12:34:38Z</time>
      </trkpt>
      <trkpt lat="50.46114" lon="2.97809">
        <ele>23.69</ele>
        <time>2017-07-16T12:34:52Z</time>
      </trkpt>
      <trkpt lat="50.46116" lon="2.97786">
        <ele>23.21</ele>
        <time>2017-07-16T12:35:04Z</time>
      </trkpt>
      <trkpt lat="50.46115" lon="2.97761">
        <ele>23.21</ele>
        <time>2017-07-16T12:35:41Z</time>
      </trkpt>
      <trkpt lat="50.46117" lon="2.97738">
        <ele>23.69</ele>
        <time>2017-07-16T12:35:51Z</time>
      </trkpt>
      <trkpt lat="50.46121" lon="2.97714">
        <ele>23.69</ele>
        <time>2017-07-16T12:36:02Z</time>
      </trkpt>
      <trkpt lat="50.46123" lon="2.9769">
        <ele>24.17</ele>
        <time>2017-07-16T12:36:13Z</time>
      </trkpt>
      <trkpt lat="50.4613" lon="2.97671">
        <ele>24.17</ele>
        <time>2017-07-16T12:36:27Z</time>
      </trkpt>
      <trkpt lat="50.46135" lon="2.97647">
        <ele>23.69</ele>
        <time>2017-07-16T12:36:39Z</time>
      </trkpt>
      <trkpt lat="50.46142" lon="2.97629">
        <ele>23.69</ele>
        <time>2017-07-16T12:36:50Z</time>
      </trkpt>
      <trkpt lat="50.46145" lon="2.97614">
        <ele>23.21</ele>
        <time>2017-07-16T12:37:11Z</time>
      </trkpt>
      <trkpt lat="50.46152" lon="2.976">
        <ele>24.17</ele>
        <time>2017-07-16T12:37:21Z</time>
      </trkpt>
      <trkpt lat="50.46158" lon="2.97585">
        <ele>24.17</ele>
        <time>2017-07-16T12:37:31Z</time>
      </trkpt>
      <trkpt lat="50.46166" lon="2.9758">
        <ele>24.17</ele>
        <time>2017-07-16T12:37:41Z</time>
      </trkpt>
      <trkpt lat="50.46179" lon="2.9758">
        <ele>23.69</ele>
        <time>2017-07-16T12:37:54Z</time>
      </trkpt>
      <trkpt lat="50.4619" lon="2.97583">
        <ele>23.69</ele>
        <time>2017-07-16T12:38:06Z</time>
      </trkpt>
      <trkpt lat="50.46206" lon="2.97585">
        <ele>24.17</ele>
        <time>2017-07-16T12:38:15Z</time>
      </trkpt>
      <trkpt lat="50.4622" lon="2.97583">
        <ele>24.17</ele>
        <time>2017-07-16T12:38:23Z</time>
      </trkpt>
      <trkpt lat="50.46234" lon="2.97587">
        <ele>24.17</ele>
        <time>2017-07-16T12:38:32Z</time>
      </trkpt>
      <trkpt lat="50.46245" lon="2.97592">
        <ele>24.17</ele>
        <time>2017-07-16T12:38:42Z</time>
      </trkpt>
      <trkpt lat="50.46255" lon="2.97598">
        <ele>24.17</ele>
        <time>2017-07-16T12:38:53Z</time>
      </trkpt>
      <trkpt lat="50.46266" lon="2.97617">
        <ele>24.17</ele>
        <time>2017-07-16T12:39:05Z</time>
      </trkpt>
      <trkpt lat="50.4628" lon="2.97639">
        <ele>24.17</ele>
        <time>2017-07-16T12:39:16Z</time>
      </trkpt>
      <trkpt lat="50.46291" lon="2.97659">
        <ele>24.17</ele>
        <time>2017-07-16T12:39:30Z</time>
      </trkpt>
      <trkpt lat="50.46297" lon="2.97676">
        <ele>23.69</ele>
        <time>2017-07-16T12:39:44Z</time>
      </trkpt>
      <trkpt lat="50.46304" lon="2.97697">
        <ele>23.69</ele>
        <time>2017-07-16T12:39:54Z</time>
      </trkpt>
      <trkpt lat="50.46305" lon="2.97714">
        <ele>24.17</ele>
        <time>2017-07-16T12:40:05Z</time>
      </trkpt>
      <trkpt lat="50.4631" lon="2.97744">
        <ele>23.69</ele>
        <time>2017-07-16T12:40:17Z</time>
      </trkpt>
      <trkpt lat="50.46317" lon="2.97781">
        <ele>24.17</ele>
        <time>2017-07-16T12:40:30Z</time>
      </trkpt>
      <trkpt lat="50.46319" lon="2.97801">
        <ele>24.17</ele>
        <time>2017-07-16T12:40:40Z</time>
      </trkpt>
      <trkpt lat="50.46323" lon="2.97819">
        <ele>24.17</ele>
        <time>2017-07-16T12:40:53Z</time>
      </trkpt>
      <trkpt lat="50.4633" lon="2.97838">
        <ele>24.17</ele>
        <time>2017-07-16T12:41:07Z</time>
      </trkpt>
      <trkpt lat="50.46338" lon="2.97851">
        <ele>24.65</ele>
        <time>2017-07-16T12:41:31Z</time>
      </trkpt>
      <trkpt lat="50.46347" lon="2.97865">
        <ele>24.17</ele>
        <time>2017-07-16T12:41:42Z</time>
      </trkpt>
      <trkpt lat="50.46357" lon="2.97878">
        <ele>24.65</ele>
        <time>2017-07-16T12:41:57Z</time>
      </trkpt>
      <trkpt lat="50.46367" lon="2.979">
        <ele>24.65</ele>
        <time>2017-07-16T12:42:09Z</time>
      </trkpt>
      <trkpt lat="50.46376" lon="2.97923">
        <ele>25.13</ele>
        <time>2017-07-16T12:42:22Z</time>
      </trkpt>
      <trkpt lat="50.46381" lon="2.97945">
        <ele>25.13</ele>
        <time>2017-07-16T12:42:37Z</time>
      </trkpt>
      <trkpt lat="50.46383" lon="2.97969">
        <ele>25.61</ele>
        <time>2017-07-16T12:42:47Z</time>
      </trkpt>
      <trkpt lat="50.46381" lon="2.9799">
        <ele>25.61</ele>
        <time>2017-07-16T12:42:58Z</time>
      </trkpt>
      <trkpt lat="50.46385" lon="2.98006">
        <ele>25.61</ele>
        <time>2017-07-16T12:43:22Z</time>
      </trkpt>
      <trkpt lat="50.46391" lon="2.98023">
        <ele>25.13</ele>
        <time>2017-07-16T12:43:33Z</time>
      </trkpt>
      <trkpt lat="50.46402" lon="2.98045">
        <ele>25.13</ele>
        <time>2017-07-16T12:43:47Z</time>
      </trkpt>
      <trkpt lat="50.46412" lon="2.98057">
        <ele>25.61</ele>
        <time>2017-07-16T12:43:56Z</time>
      </trkpt>
      <trkpt lat="50.46423" lon="2.98066">
        <ele>26.09</ele>
        <time>2017-07-16T12:44:06Z</time>
      </trkpt>
      <trkpt lat="50.46435" lon="2.98073">
        <ele>25.61</ele>
        <time>2017-07-16T12:44:14Z</time>
      </trkpt>
      <trkpt lat="50.46443" lon="2.98083">
        <ele>26.09</ele>
        <time>2017-07-16T12:44:23Z</time>
      </trkpt>
      <trkpt lat="50.46457" lon="2.98096">
        <ele>26.09</ele>
        <time>2017-07-16T12:44:34Z</time>
      </trkpt>
      <trkpt lat="50.46465" lon="2.98114">
        <ele>26.57</ele>
        <time>2017-07-16T12:44:46Z</time>
      </trkpt>
      <trkpt lat="50.46478" lon="2.98129">
        <ele>26.09</ele>
        <time>2017-07-16T12:44:56Z</time>
      </trkpt>
      <trkpt lat="50.46495" lon="2.98137">
        <ele>26.09</ele>
        <time>2017-07-16T12:45:05Z</time>
      </trkpt>
      <trkpt lat="50.46504" lon="2.9815">
        <ele>26.09</ele>
        <time>2017-07-16T12:45:17Z</time>
      </trkpt>
      <trkpt lat="50.46513" lon="2.98169">
        <ele>26.09</ele>
        <time>2017-07-16T12:45:28Z</time>
      </trkpt>
      <trkpt lat="50.46518" lon="2.98186">
        <ele>25.61</ele>
        <time>2017-07-16T12:45:40Z</time>
      </trkpt>
      <trkpt lat="50.4653" lon="2.98209">
        <ele>26.09</ele>
        <time>2017-07-16T12:45:53Z</time>
      </trkpt>
      <trkpt lat="50.46549" lon="2.98236">
        <ele>26.57</ele>
        <time>2017-07-16T12:46:09Z</time>
      </trkpt>
      <trkpt lat="50.46556" lon="2.98254">
        <ele>26.57</ele>
        <time>2017-07-16T12:46:22Z</time>
      </trkpt>
      <trkpt lat="50.46566" lon="2.98268">
        <ele>26.57</ele>
        <time>2017-07-16T12:46:35Z</time>
      </trkpt>
      <trkpt lat="50.46577" lon="2.98279">
        <ele>26.57</ele>
        <time>2017-07-16T12:46:45Z</time>
      </trkpt>
      <trkpt lat="50.46593" lon="2.98292">
        <ele>26.57</ele>
        <time>2017-07-16T12:46:59Z</time>
      </trkpt>
      <trkpt lat="50.46604" lon="2.98312">
        <ele>26.57</ele>
        <time>2017-07-16T12:47:11Z</time>
      </trkpt>
      <trkpt lat="50.4661" lon="2.98333">
        <ele>26.57</ele>
        <time>2017-07-16T12:47:20Z</time>
      </trkpt>
      <trkpt lat="50.46608" lon="2.98348">
        <ele>26.57</ele>
        <time>2017-07-16T12:47:29Z</time>
      </trkpt>
      <trkpt lat="50.46611" lon="2.9836">
        <ele>26.57</ele>
        <time>2017-07-16T12:47:39Z</time>
      </trkpt>
      <trkpt lat="50.46616" lon="2.98376">
        <ele>27.05</ele>
        <time>2017-07-16T12:47:50Z</time>
      </trkpt>
      <trkpt lat="50.46626" lon="2.98387">
        <ele>27.05</ele>
        <time>2017-07-16T12:48:01Z</time>
      </trkpt>
      <trkpt lat="50.46636" lon="2.984">
        <ele>26.57</ele>
        <time>2017-07-16T12:48:12Z</time>
      </trkpt>
      <trkpt lat="50.46655" lon="2.98419">
        <ele>26.57</ele>
        <time>2017-07-16T12:48:24Z</time>
      </trkpt>
      <trkpt lat="50.46663" lon="2.98437">
        <ele>26.09</ele>
        <time>2017-07-16T12:48:32Z</time>
      </trkpt>
      <trkpt lat="50.4667" lon="2.98451">
        <ele>26.57</ele>
        <time>2017-07-16T12:48:41Z</time>
      </trkpt>
      <trkpt lat="50.46675" lon="2.98466">
        <ele>26.09</ele>
        <time>2017-07-16T12:48:52Z</time>
      </trkpt>
      <trkpt lat="50.46676" lon="2.98482">
        <ele>26.09</ele>
        <time>2017-07-16T12:49:01Z</time>
      </trkpt>
      <trkpt lat="50.46683" lon="2.98495">
        <ele>26.09</ele>
        <time>2017-07-16T12:49:11Z</time>
      </trkpt>
      <trkpt lat="50.46701" lon="2.9851">
        <ele>26.57</ele>
        <time>2017-07-16T12:49:24Z</time>
      </trkpt>
      <trkpt lat="50.46717" lon="2.98515">
        <ele>26.09</ele>
        <time>2017-07-16T12:49:35Z</time>
      </trkpt>
      <trkpt lat="50.46731" lon="2.98518">
        <ele>25.13</ele>
        <time>2017-07-16T12:49:47Z</time>
      </trkpt>
      <trkpt lat="50.46742" lon="2.98518">
        <ele>24.17</ele>
        <time>2017-07-16T12:57:27Z</time>
      </trkpt>
      <trkpt lat="50.46748" lon="2.98532">
        <ele>23.69</ele>
        <time>2017-07-16T12:57:36Z</time>
      </trkpt>
      <trkpt lat="50.46748" lon="2.98548">
        <ele>24.65</ele>
        <time>2017-07-16T12:57:45Z</time>
      </trkpt>
      <trkpt lat="50.4675" lon="2.9856">
        <ele>24.17</ele>
        <time>2017-07-16T12:58:00Z</time>
      </trkpt>
      <trkpt lat="50.46759" lon="2.98556">
        <ele>23.69</ele>
        <time>2017-07-16T12:58:13Z</time>
      </trkpt>
      <trkpt lat="50.46768" lon="2.98555">
        <ele>23.69</ele>
        <time>2017-07-16T12:58:23Z</time>
      </trkpt>
      <trkpt lat="50.46777" lon="2.98563">
        <ele>23.69</ele>
        <time>2017-07-16T12:58:32Z</time>
      </trkpt>
      <trkpt lat="50.46785" lon="2.98569">
        <ele>23.21</ele>
        <time>2017-07-16T12:58:41Z</time>
      </trkpt>
      <trkpt lat="50.46794" lon="2.98575">
        <ele>23.69</ele>
        <time>2017-07-16T12:58:54Z</time>
      </trkpt>
      <trkpt lat="50.46808" lon="2.98586">
        <ele>23.69</ele>
        <time>2017-07-16T12:59:05Z</time>
      </trkpt>
      <trkpt lat="50.46826" lon="2.98593">
        <ele>23.21</ele>
        <time>2017-07-16T12:59:14Z</time>
      </trkpt>
      <trkpt lat="50.46839" lon="2.98594">
        <ele>23.21</ele>
        <time>2017-07-16T12:59:23Z</time>
      </trkpt>
      <trkpt lat="50.46851" lon="2.98604">
        <ele>24.17</ele>
        <time>2017-07-16T12:59:32Z</time>
      </trkpt>
      <trkpt lat="50.46861" lon="2.98612">
        <ele>23.69</ele>
        <time>2017-07-16T12:59:46Z</time>
      </trkpt>
      <trkpt lat="50.46871" lon="2.98618">
        <ele>23.69</ele>
        <time>2017-07-16T12:59:55Z</time>
      </trkpt>
      <trkpt lat="50.46882" lon="2.98626">
        <ele>24.17</ele>
        <time>2017-07-16T13:00:06Z</time>
      </trkpt>
      <trkpt lat="50.46895" lon="2.9863">
        <ele>23.69</ele>
        <time>2017-07-16T13:00:16Z</time>
      </trkpt>
      <trkpt lat="50.46907" lon="2.98635">
        <ele>24.17</ele>
        <time>2017-07-16T13:00:25Z</time>
      </trkpt>
      <trkpt lat="50.46918" lon="2.98638">
        <ele>24.17</ele>
        <time>2017-07-16T13:00:34Z</time>
      </trkpt>
      <trkpt lat="50.46928" lon="2.98644">
        <ele>23.69</ele>
        <time>2017-07-16T13:00:43Z</time>
      </trkpt>
      <trkpt lat="50.46939" lon="2.98649">
        <ele>23.69</ele>
        <time>2017-07-16T13:00:52Z</time>
      </trkpt>
      <trkpt lat="50.46948" lon="2.98656">
        <ele>23.69</ele>
        <time>2017-07-16T13:01:01Z</time>
      </trkpt>
      <trkpt lat="50.46959" lon="2.98661">
        <ele>23.69</ele>
        <time>2017-07-16T13:01:10Z</time>
      </trkpt>
      <trkpt lat="50.4697" lon="2.98665">
        <ele>23.69</ele>
        <time>2017-07-16T13:01:18Z</time>
      </trkpt>
      <trkpt lat="50.4698" lon="2.98668">
        <ele>23.21</ele>
        <time>2017-07-16T13:01:27Z</time>
      </trkpt>
      <trkpt lat="50.46987" lon="2.98654">
        <ele>23.69</ele>
        <time>2017-07-16T13:01:36Z</time>
      </trkpt>
      <trkpt lat="50.4699" lon="2.98655">
        <ele>23.69</ele>
        <time>2017-07-16T13:01:48Z</time>
      </trkpt>
      <trkpt lat="50.46999" lon="2.9866">
        <ele>23.21</ele>
        <time>2017-07-16T13:01:57Z</time>
      </trkpt>
      <trkpt lat="50.4701" lon="2.98667">
        <ele>23.69</ele>
        <time>2017-07-16T13:02:06Z</time>
      </trkpt>
      <trkpt lat="50.47019" lon="2.98675">
        <ele>23.21</ele>
        <time>2017-07-16T13:02:13Z</time>
      </trkpt>
      <trkpt lat="50.47031" lon="2.98678">
        <ele>23.21</ele>
        <time>2017-07-16T13:02:22Z</time>
      </trkpt>
      <trkpt lat="50.47039" lon="2.98691">
        <ele>23.21</ele>
        <time>2017-07-16T13:02:31Z</time>
      </trkpt>
      <trkpt lat="50.4705" lon="2.98694">
        <ele>23.21</ele>
        <time>2017-07-16T13:02:39Z</time>
      </trkpt>
      <trkpt lat="50.4706" lon="2.98702">
        <ele>23.21</ele>
        <time>2017-07-16T13:02:47Z</time>
      </trkpt>
      <trkpt lat="50.47072" lon="2.98707">
        <ele>22.73</ele>
        <time>2017-07-16T13:02:58Z</time>
      </trkpt>
      <trkpt lat="50.47082" lon="2.98714">
        <ele>22.73</ele>
        <time>2017-07-16T13:03:07Z</time>
      </trkpt>
      <trkpt lat="50.47093" lon="2.98719">
        <ele>22.25</ele>
        <time>2017-07-16T13:03:17Z</time>
      </trkpt>
      <trkpt lat="50.47102" lon="2.98733">
        <ele>22.25</ele>
        <time>2017-07-16T13:03:29Z</time>
      </trkpt>
      <trkpt lat="50.47112" lon="2.98737">
        <ele>22.25</ele>
        <time>2017-07-16T13:03:36Z</time>
      </trkpt>
      <trkpt lat="50.47126" lon="2.98742">
        <ele>21.77</ele>
        <time>2017-07-16T13:03:44Z</time>
      </trkpt>
      <trkpt lat="50.47137" lon="2.98748">
        <ele>22.25</ele>
        <time>2017-07-16T13:03:51Z</time>
      </trkpt>
      <trkpt lat="50.47146" lon="2.98756">
        <ele>21.77</ele>
        <time>2017-07-16T13:04:01Z</time>
      </trkpt>
      <trkpt lat="50.47155" lon="2.98764">
        <ele>21.77</ele>
        <time>2017-07-16T13:04:11Z</time>
      </trkpt>
      <trkpt lat="50.47168" lon="2.98771">
        <ele>22.25</ele>
        <time>2017-07-16T13:04:21Z</time>
      </trkpt>
      <trkpt lat="50.47178" lon="2.98778">
        <ele>21.29</ele>
        <time>2017-07-16T13:04:32Z</time>
      </trkpt>
      <trkpt lat="50.47187" lon="2.98784">
        <ele>21.77</ele>
        <time>2017-07-16T13:04:41Z</time>
      </trkpt>
      <trkpt lat="50.47199" lon="2.98789">
        <ele>21.77</ele>
        <time>2017-07-16T13:04:51Z</time>
      </trkpt>
      <trkpt lat="50.47214" lon="2.98795">
        <ele>21.77</ele>
        <time>2017-07-16T13:05:03Z</time>
      </trkpt>
      <trkpt lat="50.47225" lon="2.98804">
        <ele>21.77</ele>
        <time>2017-07-16T13:05:16Z</time>
      </trkpt>
      <trkpt lat="50.47236" lon="2.98805">
        <ele>21.77</ele>
        <time>2017-07-16T13:05:24Z</time>
      </trkpt>
      <trkpt lat="50.47247" lon="2.98809">
        <ele>21.77</ele>
        <time>2017-07-16T13:05:32Z</time>
      </trkpt>
      <trkpt lat="50.47258" lon="2.98814">
        <ele>20.81</ele>
        <time>2017-07-16T13:05:41Z</time>
      </trkpt>
      <trkpt lat="50.47268" lon="2.98819">
        <ele>21.77</ele>
        <time>2017-07-16T13:05:49Z</time>
      </trkpt>
      <trkpt lat="50.47276" lon="2.98826">
        <ele>21.77</ele>
        <time>2017-07-16T13:05:57Z</time>
      </trkpt>
      <trkpt lat="50.47284" lon="2.98834">
        <ele>21.77</ele>
        <time>2017-07-16T13:06:05Z</time>
      </trkpt>
      <trkpt lat="50.47296" lon="2.9884">
        <ele>21.77</ele>
        <time>2017-07-16T13:06:15Z</time>
      </trkpt>
      <trkpt lat="50.47308" lon="2.98844">
        <ele>21.77</ele>
        <time>2017-07-16T13:06:24Z</time>
      </trkpt>
      <trkpt lat="50.47318" lon="2.98848">
        <ele>21.77</ele>
        <time>2017-07-16T13:06:32Z</time>
      </trkpt>
      <trkpt lat="50.47328" lon="2.98853">
        <ele>21.77</ele>
        <time>2017-07-16T13:06:40Z</time>
      </trkpt>
      <trkpt lat="50.47338" lon="2.98858">
        <ele>21.77</ele>
        <time>2017-07-16T13:06:48Z</time>
      </trkpt>
      <trkpt lat="50.47347" lon="2.98865">
        <ele>21.77</ele>
        <time>2017-07-16T13:06:57Z</time>
      </trkpt>
      <trkpt lat="50.47357" lon="2.9887">
        <ele>20.81</ele>
        <time>2017-07-16T13:07:06Z</time>
      </trkpt>
      <trkpt lat="50.47366" lon="2.98876">
        <ele>21.29</ele>
        <time>2017-07-16T13:07:14Z</time>
      </trkpt>
      <trkpt lat="50.47376" lon="2.98881">
        <ele>21.77</ele>
        <time>2017-07-16T13:07:23Z</time>
      </trkpt>
      <trkpt lat="50.47387" lon="2.98885">
        <ele>21.29</ele>
        <time>2017-07-16T13:07:31Z</time>
      </trkpt>
      <trkpt lat="50.47398" lon="2.9889">
        <ele>21.77</ele>
        <time>2017-07-16T13:07:41Z</time>
      </trkpt>
      <trkpt lat="50.47408" lon="2.98896">
        <ele>21.29</ele>
        <time>2017-07-16T13:07:49Z</time>
      </trkpt>
      <trkpt lat="50.47418" lon="2.98902">
        <ele>21.77</ele>
        <time>2017-07-16T13:07:57Z</time>
      </trkpt>
      <trkpt lat="50.47428" lon="2.98906">
        <ele>21.77</ele>
        <time>2017-07-16T13:08:05Z</time>
      </trkpt>
      <trkpt lat="50.47438" lon="2.9891">
        <ele>21.29</ele>
        <time>2017-07-16T13:08:13Z</time>
      </trkpt>
      <trkpt lat="50.47446" lon="2.98913">
        <ele>21.77</ele>
        <time>2017-07-16T13:08:37Z</time>
      </trkpt>
      <trkpt lat="50.47456" lon="2.98916">
        <ele>21.29</ele>
        <time>2017-07-16T13:08:45Z</time>
      </trkpt>
      <trkpt lat="50.47464" lon="2.98924">
        <ele>21.77</ele>
        <time>2017-07-16T13:08:54Z</time>
      </trkpt>
      <trkpt lat="50.47475" lon="2.98933">
        <ele>21.29</ele>
        <time>2017-07-16T13:09:04Z</time>
      </trkpt>
      <trkpt lat="50.47486" lon="2.9894">
        <ele>21.29</ele>
        <time>2017-07-16T13:09:13Z</time>
      </trkpt>
      <trkpt lat="50.47495" lon="2.98947">
        <ele>22.25</ele>
        <time>2017-07-16T13:09:21Z</time>
      </trkpt>
      <trkpt lat="50.47504" lon="2.98955">
        <ele>22.25</ele>
        <time>2017-07-16T13:09:30Z</time>
      </trkpt>
      <trkpt lat="50.47513" lon="2.98962">
        <ele>21.77</ele>
        <time>2017-07-16T13:09:38Z</time>
      </trkpt>
      <trkpt lat="50.47523" lon="2.98968">
        <ele>21.77</ele>
        <time>2017-07-16T13:09:46Z</time>
      </trkpt>
      <trkpt lat="50.47531" lon="2.98974">
        <ele>22.25</ele>
        <time>2017-07-16T13:09:53Z</time>
      </trkpt>
      <trkpt lat="50.47541" lon="2.98981">
        <ele>21.77</ele>
        <time>2017-07-16T13:10:02Z</time>
      </trkpt>
      <trkpt lat="50.47551" lon="2.98986">
        <ele>21.77</ele>
        <time>2017-07-16T13:10:09Z</time>
      </trkpt>
      <trkpt lat="50.47561" lon="2.98993">
        <ele>21.29</ele>
        <time>2017-07-16T13:10:18Z</time>
      </trkpt>
      <trkpt lat="50.4757" lon="2.99">
        <ele>21.29</ele>
        <time>2017-07-16T13:10:26Z</time>
      </trkpt>
      <trkpt lat="50.47577" lon="2.99011">
        <ele>21.29</ele>
        <time>2017-07-16T13:10:35Z</time>
      </trkpt>
      <trkpt lat="50.47583" lon="2.99025">
        <ele>21.77</ele>
        <time>2017-07-16T13:10:44Z</time>
      </trkpt>
      <trkpt lat="50.4759" lon="2.99039">
        <ele>21.77</ele>
        <time>2017-07-16T13:10:53Z</time>
      </trkpt>
      <trkpt lat="50.47596" lon="2.99053">
        <ele>22.25</ele>
        <time>2017-07-16T13:11:02Z</time>
      </trkpt>
      <trkpt lat="50.476" lon="2.99067">
        <ele>22.73</ele>
        <time>2017-07-16T13:11:10Z</time>
      </trkpt>
      <trkpt lat="50.47605" lon="2.99084">
        <ele>22.73</ele>
        <time>2017-07-16T13:11:21Z</time>
      </trkpt>
      <trkpt lat="50.47606" lon="2.99107">
        <ele>22.73</ele>
        <time>2017-07-16T13:11:31Z</time>
      </trkpt>
      <trkpt lat="50.47606" lon="2.99124">
        <ele>22.25</ele>
        <time>2017-07-16T13:11:40Z</time>
      </trkpt>
      <trkpt lat="50.47609" lon="2.99143">
        <ele>22.73</ele>
        <time>2017-07-16T13:11:49Z</time>
      </trkpt>
      <trkpt lat="50.47606" lon="2.9916">
        <ele>22.25</ele>
        <time>2017-07-16T13:11:56Z</time>
      </trkpt>
      <trkpt lat="50.47607" lon="2.99177">
        <ele>22.73</ele>
        <time>2017-07-16T13:12:04Z</time>
      </trkpt>
      <trkpt lat="50.47609" lon="2.99191">
        <ele>22.25</ele>
        <time>2017-07-16T13:12:12Z</time>
      </trkpt>
      <trkpt lat="50.4761" lon="2.99205">
        <ele>22.25</ele>
        <time>2017-07-16T13:12:20Z</time>
      </trkpt>
      <trkpt lat="50.47611" lon="2.99221">
        <ele>22.25</ele>
        <time>2017-07-16T13:12:28Z</time>
      </trkpt>
      <trkpt lat="50.47611" lon="2.99235">
        <ele>22.25</ele>
        <time>2017-07-16T13:12:35Z</time>
      </trkpt>
      <trkpt lat="50.47615" lon="2.9925">
        <ele>22.25</ele>
        <time>2017-07-16T13:12:43Z</time>
      </trkpt>
      <trkpt lat="50.47621" lon="2.99265">
        <ele>22.25</ele>
        <time>2017-07-16T13:12:52Z</time>
      </trkpt>
      <trkpt lat="50.47625" lon="2.99283">
        <ele>22.25</ele>
        <time>2017-07-16T13:13:02Z</time>
      </trkpt>
      <trkpt lat="50.47628" lon="2.993">
        <ele>22.25</ele>
        <time>2017-07-16T13:13:10Z</time>
      </trkpt>
      <trkpt lat="50.47631" lon="2.99317">
        <ele>22.73</ele>
        <time>2017-07-16T13:13:18Z</time>
      </trkpt>
      <trkpt lat="50.47635" lon="2.99332">
        <ele>22.73</ele>
        <time>2017-07-16T13:13:44Z</time>
      </trkpt>
      <trkpt lat="50.47637" lon="2.99348">
        <ele>23.21</ele>
        <time>2017-07-16T13:13:51Z</time>
      </trkpt>
      <trkpt lat="50.47639" lon="2.99365">
        <ele>22.73</ele>
        <time>2017-07-16T13:14:00Z</time>
      </trkpt>
      <trkpt lat="50.47642" lon="2.9938">
        <ele>22.73</ele>
        <time>2017-07-16T13:14:08Z</time>
      </trkpt>
      <trkpt lat="50.47646" lon="2.99395">
        <ele>22.25</ele>
        <time>2017-07-16T13:14:16Z</time>
      </trkpt>
      <trkpt lat="50.47648" lon="2.99411">
        <ele>22.25</ele>
        <time>2017-07-16T13:14:24Z</time>
      </trkpt>
      <trkpt lat="50.47651" lon="2.99428">
        <ele>22.73</ele>
        <time>2017-07-16T13:14:34Z</time>
      </trkpt>
      <trkpt lat="50.47654" lon="2.99443">
        <ele>22.73</ele>
        <time>2017-07-16T13:14:43Z</time>
      </trkpt>
      <trkpt lat="50.47662" lon="2.9945">
        <ele>22.25</ele>
        <time>2017-07-16T13:15:23Z</time>
      </trkpt>
      <trkpt lat="50.47666" lon="2.99464">
        <ele>22.73</ele>
        <time>2017-07-16T13:15:40Z</time>
      </trkpt>
      <trkpt lat="50.47672" lon="2.9948">
        <ele>22.25</ele>
        <time>2017-07-16T13:15:50Z</time>
      </trkpt>
      <trkpt lat="50.47674" lon="2.99499">
        <ele>22.25</ele>
        <time>2017-07-16T13:16:00Z</time>
      </trkpt>
      <trkpt lat="50.47677" lon="2.99514">
        <ele>22.25</ele>
        <time>2017-07-16T13:16:08Z</time>
      </trkpt>
      <trkpt lat="50.47678" lon="2.99533">
        <ele>22.25</ele>
        <time>2017-07-16T13:16:17Z</time>
      </trkpt>
      <trkpt lat="50.47681" lon="2.99554">
        <ele>22.25</ele>
        <time>2017-07-16T13:16:27Z</time>
      </trkpt>
      <trkpt lat="50.47692" lon="2.9957">
        <ele>22.25</ele>
        <time>2017-07-16T13:16:38Z</time>
      </trkpt>
      <trkpt lat="50.47701" lon="2.9958">
        <ele>22.25</ele>
        <time>2017-07-16T13:16:49Z</time>
      </trkpt>
      <trkpt lat="50.47713" lon="2.99577">
        <ele>22.25</ele>
        <time>2017-07-16T13:17:01Z</time>
      </trkpt>
      <trkpt lat="50.47722" lon="2.99587">
        <ele>22.73</ele>
        <time>2017-07-16T13:17:14Z</time>
      </trkpt>
      <trkpt lat="50.47728" lon="2.99605">
        <ele>22.73</ele>
        <time>2017-07-16T13:17:24Z</time>
      </trkpt>
      <trkpt lat="50.47735" lon="2.99621">
        <ele>22.73</ele>
        <time>2017-07-16T13:17:36Z</time>
      </trkpt>
      <trkpt lat="50.47747" lon="2.99641">
        <ele>22.73</ele>
        <time>2017-07-16T13:17:50Z</time>
      </trkpt>
      <trkpt lat="50.47755" lon="2.99655">
        <ele>22.73</ele>
        <time>2017-07-16T13:18:03Z</time>
      </trkpt>
      <trkpt lat="50.47766" lon="2.99674">
        <ele>22.73</ele>
        <time>2017-07-16T13:18:14Z</time>
      </trkpt>
      <trkpt lat="50.47779" lon="2.99685">
        <ele>22.25</ele>
        <time>2017-07-16T13:18:46Z</time>
      </trkpt>
      <trkpt lat="50.47787" lon="2.9969">
        <ele>21.77</ele>
        <time>2017-07-16T13:20:28Z</time>
      </trkpt>
      <trkpt lat="50.47802" lon="2.99703">
        <ele>20.32</ele>
        <time>2017-07-16T13:20:51Z</time>
      </trkpt>
      <trkpt lat="50.47811" lon="2.99734">
        <ele>21.77</ele>
        <time>2017-07-16T13:21:04Z</time>
      </trkpt>
      <trkpt lat="50.47815" lon="2.99758">
        <ele>22.25</ele>
        <time>2017-07-16T13:21:17Z</time>
      </trkpt>
      <trkpt lat="50.4782" lon="2.99775">
        <ele>21.77</ele>
        <time>2017-07-16T13:21:29Z</time>
      </trkpt>
      <trkpt lat="50.47826" lon="2.99787">
        <ele>22.73</ele>
        <time>2017-07-16T13:21:44Z</time>
      </trkpt>
      <trkpt lat="50.47829" lon="2.99796">
        <ele>22.25</ele>
        <time>2017-07-16T13:22:23Z</time>
      </trkpt>
      <trkpt lat="50.47836" lon="2.99812">
        <ele>22.25</ele>
        <time>2017-07-16T13:22:33Z</time>
      </trkpt>
      <trkpt lat="50.47847" lon="2.99829">
        <ele>21.77</ele>
        <time>2017-07-16T13:22:43Z</time>
      </trkpt>
      <trkpt lat="50.47855" lon="2.99843">
        <ele>21.29</ele>
        <time>2017-07-16T13:22:53Z</time>
      </trkpt>
      <trkpt lat="50.47872" lon="2.99851">
        <ele>21.77</ele>
        <time>2017-07-16T13:23:07Z</time>
      </trkpt>
      <trkpt lat="50.47882" lon="2.99845">
        <ele>21.29</ele>
        <time>2017-07-16T13:23:37Z</time>
      </trkpt>
      <trkpt lat="50.47891" lon="2.99834">
        <ele>20.81</ele>
        <time>2017-07-16T13:23:46Z</time>
      </trkpt>
      <trkpt lat="50.47899" lon="2.99823">
        <ele>21.29</ele>
        <time>2017-07-16T13:23:55Z</time>
      </trkpt>
      <trkpt lat="50.47907" lon="2.99815">
        <ele>20.32</ele>
        <time>2017-07-16T13:24:07Z</time>
      </trkpt>
      <trkpt lat="50.47915" lon="2.99806">
        <ele>20.81</ele>
        <time>2017-07-16T13:24:16Z</time>
      </trkpt>
      <trkpt lat="50.47923" lon="2.99796">
        <ele>20.32</ele>
        <time>2017-07-16T13:24:24Z</time>
      </trkpt>
      <trkpt lat="50.47932" lon="2.99789">
        <ele>20.81</ele>
        <time>2017-07-16T13:24:34Z</time>
      </trkpt>
      <trkpt lat="50.47941" lon="2.99782">
        <ele>20.32</ele>
        <time>2017-07-16T13:24:42Z</time>
      </trkpt>
      <trkpt lat="50.47949" lon="2.99774">
        <ele>20.32</ele>
        <time>2017-07-16T13:24:50Z</time>
      </trkpt>
      <trkpt lat="50.47957" lon="2.99768">
        <ele>19.84</ele>
        <time>2017-07-16T13:24:57Z</time>
      </trkpt>
      <trkpt lat="50.47968" lon="2.99764">
        <ele>20.81</ele>
        <time>2017-07-16T13:25:06Z</time>
      </trkpt>
      <trkpt lat="50.47978" lon="2.99761">
        <ele>20.32</ele>
        <time>2017-07-16T13:25:14Z</time>
      </trkpt>
      <trkpt lat="50.47988" lon="2.99758">
        <ele>20.81</ele>
        <time>2017-07-16T13:25:22Z</time>
      </trkpt>
      <trkpt lat="50.47998" lon="2.99755">
        <ele>20.81</ele>
        <time>2017-07-16T13:25:30Z</time>
      </trkpt>
      <trkpt lat="50.48007" lon="2.99752">
        <ele>22.25</ele>
        <time>2017-07-16T13:25:39Z</time>
      </trkpt>
      <trkpt lat="50.48018" lon="2.99751">
        <ele>21.29</ele>
        <time>2017-07-16T13:25:47Z</time>
      </trkpt>
      <trkpt lat="50.48029" lon="2.9975">
        <ele>22.25</ele>
        <time>2017-07-16T13:25:58Z</time>
      </trkpt>
      <trkpt lat="50.48042" lon="2.9975">
        <ele>22.73</ele>
        <time>2017-07-16T13:27:06Z</time>
      </trkpt>
      <trkpt lat="50.48054" lon="2.9975">
        <ele>23.21</ele>
        <time>2017-07-16T13:27:21Z</time>
      </trkpt>
      <trkpt lat="50.48065" lon="2.99752">
        <ele>23.21</ele>
        <time>2017-07-16T13:27:33Z</time>
      </trkpt>
      <trkpt lat="50.48076" lon="2.99757">
        <ele>23.69</ele>
        <time>2017-07-16T13:27:45Z</time>
      </trkpt>
      <trkpt lat="50.48086" lon="2.99764">
        <ele>23.69</ele>
        <time>2017-07-16T13:28:15Z</time>
      </trkpt>
      <trkpt lat="50.48096" lon="2.99767">
        <ele>23.21</ele>
        <time>2017-07-16T13:29:54Z</time>
      </trkpt>
      <trkpt lat="50.48109" lon="2.99768">
        <ele>23.21</ele>
        <time>2017-07-16T13:30:04Z</time>
      </trkpt>
      <trkpt lat="50.48119" lon="2.99772">
        <ele>23.69</ele>
        <time>2017-07-16T13:30:14Z</time>
      </trkpt>
      <trkpt lat="50.48131" lon="2.99779">
        <ele>24.17</ele>
        <time>2017-07-16T13:30:25Z</time>
      </trkpt>
      <trkpt lat="50.48147" lon="2.9979">
        <ele>24.17</ele>
        <time>2017-07-16T13:30:40Z</time>
      </trkpt>
      <trkpt lat="50.48159" lon="2.99802">
        <ele>24.17</ele>
        <time>2017-07-16T13:30:52Z</time>
      </trkpt>
      <trkpt lat="50.48171" lon="2.99809">
        <ele>23.69</ele>
        <time>2017-07-16T13:31:01Z</time>
      </trkpt>
      <trkpt lat="50.48183" lon="2.99818">
        <ele>24.17</ele>
        <time>2017-07-16T13:31:10Z</time>
      </trkpt>
      <trkpt lat="50.4819" lon="2.99831">
        <ele>24.17</ele>
        <time>2017-07-16T13:31:19Z</time>
      </trkpt>
      <trkpt lat="50.48195" lon="2.99844">
        <ele>24.65</ele>
        <time>2017-07-16T13:31:27Z</time>
      </trkpt>
      <trkpt lat="50.48202" lon="2.99855">
        <ele>24.17</ele>
        <time>2017-07-16T13:31:36Z</time>
      </trkpt>
      <trkpt lat="50.48211" lon="2.99864">
        <ele>23.69</ele>
        <time>2017-07-16T13:31:45Z</time>
      </trkpt>
      <trkpt lat="50.48221" lon="2.99872">
        <ele>24.17</ele>
        <time>2017-07-16T13:31:53Z</time>
      </trkpt>
      <trkpt lat="50.48226" lon="2.99886">
        <ele>24.17</ele>
        <time>2017-07-16T13:32:01Z</time>
      </trkpt>
      <trkpt lat="50.48233" lon="2.99898">
        <ele>24.17</ele>
        <time>2017-07-16T13:32:09Z</time>
      </trkpt>
      <trkpt lat="50.48243" lon="2.99907">
        <ele>24.17</ele>
        <time>2017-07-16T13:32:18Z</time>
      </trkpt>
      <trkpt lat="50.48254" lon="2.99917">
        <ele>24.17</ele>
        <time>2017-07-16T13:32:29Z</time>
      </trkpt>
      <trkpt lat="50.48266" lon="2.99927">
        <ele>24.17</ele>
        <time>2017-07-16T13:32:39Z</time>
      </trkpt>
      <trkpt lat="50.48273" lon="2.99935">
        <ele>24.17</ele>
        <time>2017-07-16T13:32:46Z</time>
      </trkpt>
      <trkpt lat="50.48281" lon="2.99948">
        <ele>24.17</ele>
        <time>2017-07-16T13:32:57Z</time>
      </trkpt>
      <trkpt lat="50.48292" lon="2.9996">
        <ele>24.17</ele>
        <time>2017-07-16T13:33:07Z</time>
      </trkpt>
      <trkpt lat="50.48301" lon="2.99983">
        <ele>24.17</ele>
        <time>2017-07-16T13:33:20Z</time>
      </trkpt>
      <trkpt lat="50.48312" lon="2.99993">
        <ele>24.65</ele>
        <time>2017-07-16T13:33:28Z</time>
      </trkpt>
      <trkpt lat="50.48324" lon="3">
        <ele>24.65</ele>
        <time>2017-07-16T13:33:39Z</time>
      </trkpt>
      <trkpt lat="50.48334" lon="3.00012">
        <ele>24.65</ele>
        <time>2017-07-16T13:33:50Z</time>
      </trkpt>
      <trkpt lat="50.48345" lon="3.00031">
        <ele>24.65</ele>
        <time>2017-07-16T13:34:02Z</time>
      </trkpt>
      <trkpt lat="50.48352" lon="3.00044">
        <ele>25.13</ele>
        <time>2017-07-16T13:34:11Z</time>
      </trkpt>
      <trkpt lat="50.48357" lon="3.0006">
        <ele>25.13</ele>
        <time>2017-07-16T13:34:21Z</time>
      </trkpt>
      <trkpt lat="50.48367" lon="3.00072">
        <ele>25.13</ele>
        <time>2017-07-16T13:34:31Z</time>
      </trkpt>
      <trkpt lat="50.48369" lon="3.0008">
        <ele>25.13</ele>
        <time>2017-07-16T13:35:15Z</time>
      </trkpt>
      <trkpt lat="50.48377" lon="3.00084">
        <ele>25.13</ele>
        <time>2017-07-16T13:35:29Z</time>
      </trkpt>
      <trkpt lat="50.48376" lon="3.00093">
        <ele>25.13</ele>
        <time>2017-07-16T13:36:16Z</time>
      </trkpt>
      <trkpt lat="50.4837" lon="3.00104">
        <ele>25.13</ele>
        <time>2017-07-16T13:36:32Z</time>
      </trkpt>
      <trkpt lat="50.48364" lon="3.00115">
        <ele>25.13</ele>
        <time>2017-07-16T13:36:41Z</time>
      </trkpt>
      <trkpt lat="50.48358" lon="3.00128">
        <ele>25.13</ele>
        <time>2017-07-16T13:36:52Z</time>
      </trkpt>
      <trkpt lat="50.48351" lon="3.00141">
        <ele>24.65</ele>
        <time>2017-07-16T13:37:01Z</time>
      </trkpt>
      <trkpt lat="50.48345" lon="3.00154">
        <ele>24.65</ele>
        <time>2017-07-16T13:37:10Z</time>
      </trkpt>
      <trkpt lat="50.48338" lon="3.00167">
        <ele>24.65</ele>
        <time>2017-07-16T13:37:18Z</time>
      </trkpt>
      <trkpt lat="50.48331" lon="3.00178">
        <ele>24.65</ele>
        <time>2017-07-16T13:37:27Z</time>
      </trkpt>
      <trkpt lat="50.48323" lon="3.00191">
        <ele>24.65</ele>
        <time>2017-07-16T13:37:36Z</time>
      </trkpt>
      <trkpt lat="50.48315" lon="3.00205">
        <ele>24.65</ele>
        <time>2017-07-16T13:37:47Z</time>
      </trkpt>
      <trkpt lat="50.48308" lon="3.00222">
        <ele>24.65</ele>
        <time>2017-07-16T13:37:57Z</time>
      </trkpt>
      <trkpt lat="50.48302" lon="3.00239">
        <ele>24.17</ele>
        <time>2017-07-16T13:38:06Z</time>
      </trkpt>
      <trkpt lat="50.48298" lon="3.00256">
        <ele>24.65</ele>
        <time>2017-07-16T13:38:27Z</time>
      </trkpt>
      <trkpt lat="50.483" lon="3.00268">
        <ele>23.69</ele>
        <time>2017-07-16T13:38:38Z</time>
      </trkpt>
    </trkseg>
  </trk>
</gpx>